[[{"header":{"parameterUnit":"m.s-1","parameterCategory":1,"la1":30.6,"la2":29.2853,"lo1":-89.7004,"lo2":-87.6739,"dy":0.0162,"dx":0.0183,"nx":112,"ny":82,"refTime":"2023-04-06T06:00:00:Z","depth":0,"parameterNumber":2,"parameterNumberName":"U-component_of_WINDS"},"data":[0.0,0.0,0.0,0.0,0.0,0.0,0.0,0.0,0.0,0.0,0.0,0.0,0.0,0.0,0.0,0.0,0.0,0.0,0.0,0.0,0.0,0.0,0.0,0.0,0.0,0.0,0.0,0.0,0.0,0.0,0.0,0.0,0.0,0.0,0.0,0.0,0.0,0.0,0.0,0.0,0.0,0.0,0.0,0.0,0.0,0.0,0.0,0.0,0.0,0.0,0.0,0.0,0.0,0.0,0.0,0.0,0.0,0.0,0.0,0.0,0.0,0.0,0.0,0.0,0.0,0.0,0.0,0.0,0.0,0.0,0.0,0.0,0.0,0.0,0.0,0.0,0.0,0.0,0.0,0.0,0.0,0.0,0.0,0.0,0.0,0.0,0.0,0.0,0.0,0.0,3.9697,3.9697,3.9697,3.9697,3.9697,3.9697,3.9697,3.9697,0.0,0.0,0.0,0.0,0.0,0.0,0.0,0.0,0.0,0.0,0.0,0.0,0.0,0.0,0.0,0.0,0.0,0.0,0.0,0.0,0.0,0.0,0.0,0.0,0.0,0.0,0.0,0.0,0.0,0.0,0.0,0.0,0.0,0.0,0.0,0.0,0.0,0.0,0.0,0.0,0.0,0.0,0.0,0.0,0.0,0.0,0.0,0.0,0.0,0.0,0.0,0.0,0.0,0.0,0.0,0.0,0.0,0.0,0.0,0.0,0.0,0.0,0.0,0.0,0.0,0.0,0.0,0.0,0.0,0.0,0.0,0.0,0.0,0.0,0.0,0.0,0.0,0.0,0.0,0.0,0.0,0.0,0.0,0.0,0.0,0.0,0.0,0.0,0.0,0.0,0.0,0.0,0.0,0.0,0.0,0.0,0.0,0.0,0.0,0.0,0.0,0.0,0.0,0.0,3.9697,3.9697,3.9697,3.9697,3.9697,3.9697,3.9697,3.9697,0.0,0.0,0.0,0.0,0.0,0.0,0.0,0.0,0.0,0.0,0.0,0.0,0.0,0.0,0.0,0.0,0.0,0.0,0.0,0.0,0.0,0.0,0.0,0.0,0.0,0.0,0.0,0.0,0.0,0.0,0.0,0.0,0.0,0.0,0.0,0.0,0.0,0.0,0.0,0.0,0.0,0.0,0.0,0.0,0.0,0.0,0.0,0.0,0.0,0.0,0.0,0.0,0.0,0.0,0.0,0.0,0.0,0.0,0.0,0.0,0.0,0.0,0.0,0.0,0.0,0.0,0.0,0.0,0.0,0.0,0.0,0.0,0.0,0.0,0.0,0.0,0.0,0.0,0.0,0.0,0.0,0.0,0.0,0.0,0.0,0.0,0.0,0.0,0.0,0.0,0.0,0.0,0.0,0.0,0.0,0.0,0.0,0.0,0.0,0.0,0.0,0.0,0.0,3.9697,3.9697,3.9697,3.9697,3.9697,3.9697,3.9697,3.9697,3.9697,3.9697,0.0,0.0,0.0,0.0,0.0,0.0,0.0,0.0,0.0,0.0,0.0,0.0,0.0,0.0,0.0,0.0,0.0,0.0,0.0,0.0,0.0,0.0,0.0,0.0,0.0,0.0,0.0,0.0,0.0,0.0,0.0,0.0,0.0,0.0,0.0,0.0,0.0,0.0,0.0,0.0,0.0,0.0,0.0,0.0,0.0,0.0,0.0,0.0,0.0,0.0,0.0,0.0,0.0,0.0,0.0,0.0,0.0,0.0,0.0,0.0,0.0,0.0,0.0,0.0,0.0,0.0,0.0,0.0,0.0,0.0,0.0,0.0,0.0,0.0,0.0,0.0,0.0,0.0,0.0,0.0,0.0,0.0,0.0,0.0,0.0,0.0,0.0,0.0,0.0,0.0,0.0,0.0,0.0,0.0,0.0,0.0,0.0,0.0,0.0,0.0,0.0,0.0,3.9697,3.9697,3.9697,3.9697,3.9697,3.9697,3.9697,3.9697,3.9697,3.9697,0.0,0.0,0.0,0.0,0.0,0.0,0.0,0.0,0.0,0.0,0.0,0.0,0.0,0.0,0.0,0.0,0.0,0.0,0.0,0.0,0.0,0.0,0.0,0.0,0.0,0.0,0.0,0.0,0.0,0.0,0.0,0.0,0.0,0.0,0.0,0.0,0.0,0.0,0.0,0.0,0.0,0.0,0.0,0.0,0.0,0.0,0.0,0.0,0.0,0.0,0.0,0.0,0.0,0.0,0.0,0.0,0.0,0.0,0.0,0.0,0.0,0.0,0.0,0.0,0.0,0.0,0.0,0.0,0.0,0.0,0.0,0.0,0.0,0.0,0.0,0.0,0.0,0.0,0.0,0.0,0.0,0.0,0.0,0.0,0.0,0.0,0.0,0.0,0.0,0.0,0.0,0.0,0.0,0.0,0.0,0.0,0.0,0.0,0.0,0.0,0.0,0.0,3.9697,3.9697,3.9697,3.9697,3.9697,3.9697,3.9697,3.9697,3.9697,3.9697,0.0,0.0,0.0,0.0,0.0,0.0,0.0,0.0,0.0,0.0,0.0,0.0,0.0,0.0,0.0,0.0,0.0,0.0,0.0,0.0,0.0,0.0,0.0,0.0,0.0,0.0,0.0,0.0,0.0,0.0,0.0,0.0,0.0,0.0,0.0,0.0,0.0,0.0,0.0,0.0,0.0,0.0,0.0,0.0,0.0,0.0,0.0,0.0,0.0,0.0,0.0,0.0,0.0,0.0,0.0,0.0,0.0,0.0,0.0,0.0,0.0,0.0,0.0,0.0,0.0,0.0,0.0,0.0,0.0,0.0,0.0,0.0,0.0,0.0,0.0,0.0,0.0,0.0,0.0,0.0,0.0,0.0,0.0,0.0,0.0,0.0,0.0,0.0,0.0,0.0,0.0,0.0,0.0,0.0,0.0,0.0,0.0,0.0,0.0,0.0,0.0,0.0,3.9697,3.9697,0.0,3.9697,3.9697,3.9697,3.9697,3.9697,3.9697,0.0,0.0,0.0,0.0,0.0,0.0,0.0,0.0,0.0,0.0,0.0,0.0,0.0,0.0,0.0,0.0,0.0,0.0,0.0,0.0,0.0,0.0,0.0,0.0,0.0,0.0,0.0,0.0,0.0,0.0,0.0,0.0,0.0,0.0,0.0,0.0,0.0,0.0,0.0,0.0,0.0,0.0,0.0,0.0,0.0,0.0,0.0,0.0,0.0,0.0,0.0,0.0,0.0,0.0,0.0,0.0,0.0,0.0,0.0,0.0,0.0,0.0,0.0,0.0,0.0,0.0,0.0,0.0,0.0,0.0,0.0,0.0,0.0,0.0,0.0,0.0,0.0,0.0,0.0,0.0,0.0,0.0,0.0,0.0,0.0,0.0,0.0,0.0,0.0,0.0,0.0,0.0,0.0,0.0,0.0,0.0,0.0,0.0,0.0,0.0,0.0,0.0,3.9697,3.9697,3.9785,0.0,3.9948,4.0023,4.0186,4.0224,4.0224,4.0224,0.0,0.0,0.0,0.0,0.0,0.0,0.0,0.0,0.0,0.0,0.0,0.0,0.0,0.0,0.0,0.0,0.0,0.0,0.0,0.0,0.0,0.0,0.0,0.0,0.0,0.0,0.0,0.0,0.0,0.0,0.0,0.0,0.0,0.0,0.0,0.0,0.0,0.0,0.0,0.0,0.0,0.0,0.0,0.0,0.0,0.0,0.0,0.0,0.0,0.0,0.0,0.0,0.0,0.0,0.0,0.0,0.0,0.0,0.0,0.0,0.0,0.0,0.0,0.0,0.0,0.0,0.0,0.0,0.0,0.0,0.0,0.0,0.0,0.0,0.0,0.0,0.0,0.0,0.0,0.0,0.0,0.0,0.0,0.0,0.0,0.0,0.0,0.0,0.0,0.0,0.0,0.0,0.0,0.0,0.0,0.0,0.0,0.0,0.0,0.0,0.0,0.0,3.9735,3.9735,3.9923,4.0462,4.0512,4.0725,4.1239,4.1289,4.1289,0.0,0.0,0.0,0.0,0.0,0.0,0.0,0.0,0.0,0.0,0.0,0.0,0.0,0.0,0.0,0.0,0.0,0.0,0.0,0.0,0.0,0.0,0.0,0.0,0.0,0.0,0.0,0.0,0.0,0.0,0.0,0.0,0.0,0.0,0.0,0.0,0.0,0.0,0.0,0.0,0.0,0.0,0.0,0.0,0.0,0.0,0.0,0.0,0.0,0.0,0.0,0.0,0.0,0.0,0.0,0.0,0.0,0.0,0.0,0.0,0.0,0.0,0.0,0.0,0.0,0.0,0.0,0.0,0.0,0.0,0.0,0.0,0.0,0.0,0.0,0.0,0.0,0.0,0.0,0.0,0.0,0.0,0.0,0.0,0.0,0.0,0.0,0.0,0.0,0.0,0.0,0.0,0.0,0.0,0.0,0.0,0.0,0.0,0.0,0.0,0.0,0.0,0.0,4.0775,4.0826,4.0901,4.1051,4.1063,4.1138,4.1289,4.1289,4.1289,4.1289,0.0,0.0,0.0,0.0,0.0,0.0,0.0,0.0,0.0,0.0,0.0,0.0,0.0,0.0,0.0,0.0,0.0,0.0,0.0,0.0,0.0,0.0,0.0,0.0,0.0,0.0,0.0,0.0,0.0,0.0,0.0,0.0,0.0,0.0,0.0,0.0,0.0,0.0,0.0,0.0,0.0,0.0,0.0,0.0,0.0,0.0,0.0,0.0,0.0,0.0,0.0,0.0,0.0,0.0,0.0,0.0,0.0,0.0,0.0,0.0,0.0,0.0,0.0,0.0,0.0,0.0,0.0,0.0,0.0,0.0,0.0,0.0,0.0,0.0,0.0,0.0,0.0,0.0,0.0,0.0,0.0,0.0,0.0,0.0,0.0,0.0,0.0,0.0,0.0,0.0,0.0,0.0,0.0,0.0,0.0,0.0,0.0,0.0,0.0,0.0,0.0,0.0,4.1264,4.1289,4.1403,4.1617,4.1656,4.1742,4.1968,4.1993,4.1993,4.1993,0.0,0.0,0.0,0.0,0.0,0.0,0.0,0.0,0.0,0.0,0.0,0.0,0.0,0.0,0.0,0.0,0.0,0.0,0.0,0.0,0.0,0.0,0.0,0.0,0.0,0.0,0.0,0.0,0.0,0.0,0.0,0.0,0.0,0.0,0.0,0.0,0.0,0.0,0.0,0.0,0.0,0.0,0.0,0.0,0.0,0.0,0.0,0.0,0.0,0.0,0.0,0.0,0.0,0.0,0.0,0.0,0.0,0.0,0.0,0.0,0.0,0.0,0.0,0.0,0.0,0.0,0.0,0.0,0.0,0.0,0.0,0.0,0.0,0.0,0.0,0.0,0.0,0.0,0.0,0.0,0.0,0.0,0.0,0.0,0.0,0.0,0.0,0.0,0.0,0.0,0.0,0.0,0.0,0.0,0.0,0.0,0.0,0.0,0.0,0.0,0.0,0.0,4.1439,4.1464,4.1667,4.2224,4.2274,4.2475,4.2964,4.3014,4.3014,4.3014,0.0,0.0,0.0,0.0,0.0,0.0,0.0,0.0,0.0,0.0,0.0,0.0,0.0,0.0,0.0,0.0,0.0,0.0,0.0,0.0,0.0,0.0,0.0,0.0,0.0,0.0,0.0,0.0,0.0,0.0,0.0,0.0,0.0,0.0,0.0,0.0,0.0,0.0,0.0,0.0,0.0,0.0,0.0,0.0,0.0,0.0,0.0,0.0,0.0,0.0,0.0,0.0,0.0,0.0,0.0,0.0,0.0,0.0,0.0,0.0,2.9176,0.0,0.0,0.0,0.0,0.0,0.0,0.0,0.0,0.0,0.0,0.0,0.0,0.0,0.0,0.0,0.0,0.0,0.0,0.0,0.0,0.0,0.0,0.0,0.0,0.0,0.0,0.0,0.0,0.0,0.0,0.0,0.0,0.0,0.0,0.0,0.0,0.0,0.0,0.0,0.0,0.0,4.2598,4.2649,4.2674,4.2813,4.2838,4.2889,4.2989,4.3014,4.3014,4.3014,4.3014,0.0,0.0,0.0,0.0,0.0,0.0,0.0,0.0,0.0,0.0,0.0,0.0,0.0,0.0,0.0,0.0,0.0,0.0,0.0,0.0,0.0,0.0,0.0,0.0,0.0,0.0,0.0,0.0,0.0,0.0,0.0,0.0,0.0,0.0,0.0,0.0,0.0,0.0,0.0,0.0,0.0,0.0,0.0,0.0,0.0,0.0,0.0,0.0,0.0,0.0,0.0,0.0,0.0,0.0,0.0,0.0,0.0,0.0,0.0,0.0,3.0221,0.0,0.0,0.0,0.0,0.0,0.0,0.0,0.0,0.0,0.0,0.0,0.0,0.0,0.0,0.0,0.0,0.0,0.0,0.0,0.0,0.0,0.0,0.0,0.0,0.0,0.0,0.0,0.0,0.0,0.0,0.0,0.0,0.0,0.0,0.0,0.0,0.0,0.0,0.0,0.0,4.295,4.3014,4.3014,4.3014,4.3014,4.3014,4.3014,4.3014,4.3014,4.3014,4.3014,0.0,0.0,0.0,0.0,0.0,0.0,0.0,0.0,0.0,0.0,0.0,0.0,0.0,0.0,0.0,0.0,0.0,0.0,0.0,0.0,0.0,0.0,0.0,0.0,0.0,0.0,0.0,0.0,0.0,0.0,0.0,0.0,0.0,0.0,0.0,0.0,0.0,0.0,0.0,0.0,0.0,0.0,0.0,0.0,0.0,0.0,0.0,0.0,0.0,0.0,0.0,0.0,0.0,3.4853,3.499,3.5015,3.5392,3.5102,3.4296,3.5191,3.3298,2.971,3.0608,0.0,0.0,0.0,0.0,0.0,0.0,0.0,0.0,0.0,0.0,0.0,0.0,0.0,0.0,0.0,0.0,0.0,0.0,0.0,0.0,0.0,0.0,0.0,0.0,4.1603,4.1603,0.0,0.0,0.0,0.0,0.0,0.0,0.0,0.0,0.0,0.0,0.0,0.0,4.3014,4.3014,4.3014,4.3014,4.3014,4.3014,4.3014,4.3014,4.3014,4.3014,4.3014,4.3014,0.0,0.0,0.0,0.0,0.0,0.0,0.0,0.0,0.0,0.0,0.0,0.0,0.0,0.0,0.0,0.0,0.0,0.0,0.0,0.0,0.0,0.0,0.0,0.0,0.0,0.0,0.0,0.0,0.0,0.0,0.0,0.0,3.2616,3.1246,0.0,0.0,0.0,0.0,0.0,0.0,0.0,0.0,0.0,0.0,0.0,0.0,0.0,3.4327,3.4262,3.4087,3.3997,3.4022,3.5467,3.6182,3.623,3.8153,3.8969,3.8856,3.8969,0.0,3.2376,3.0146,0.0,0.0,0.0,0.0,0.0,0.0,0.0,0.0,0.0,0.0,0.0,0.0,0.0,0.0,0.0,0.0,0.0,0.0,0.0,0.0,0.0,0.0,3.4162,4.1142,4.2774,4.2774,0.0,4.2411,4.221,4.2674,0.0,0.0,0.0,0.0,0.0,0.0,0.0,0.0,4.3014,4.3014,4.3014,4.3014,4.3014,4.3014,4.3014,4.3014,4.3014,4.3014,4.3014,4.3014,4.3014,4.3014,0.0,0.0,0.0,0.0,0.0,0.0,0.0,0.0,0.0,0.0,0.0,0.0,0.0,0.0,0.0,0.0,0.0,0.0,0.0,0.0,0.0,0.0,0.0,0.0,0.0,0.0,0.0,0.0,0.0,3.0984,3.1526,3.0146,3.1035,3.126,0.0,0.0,0.0,0.0,0.0,0.0,0.0,0.0,0.0,3.2817,3.4951,3.5956,3.5666,3.6671,3.7161,3.7161,3.7889,3.8241,3.8291,3.9258,3.9697,3.9697,3.9697,3.8605,3.6621,3.4137,3.2606,3.1738,0.0,0.0,0.0,0.0,3.0457,3.0648,3.0096,2.992,0.0,0.0,0.0,0.0,0.0,0.0,0.0,0.0,0.0,0.0,0.0,0.0,0.0,4.187,4.3014,4.3014,4.3014,4.2813,4.2713,0.0,4.3014,4.3014,4.3014,0.0,0.0,0.0,0.0,4.3014,4.3014,4.3014,4.3014,4.3014,4.3014,4.3014,4.3014,4.3014,4.3014,4.3014,4.3014,4.3014,4.3014,4.3014,4.3014,0.0,0.0,0.0,0.0,0.0,0.0,0.0,0.0,0.0,0.0,0.0,0.0,0.0,0.0,0.0,0.0,0.0,0.0,0.0,0.0,0.0,0.0,0.0,0.0,0.0,0.0,0.0,0.0,3.106,3.1652,2.996,3.11,3.1712,0.0,0.0,0.0,0.0,0.0,0.0,3.2049,3.4148,3.5102,3.4561,3.6696,3.7663,3.7248,3.8881,3.9697,3.9697,3.9697,3.9697,3.9697,3.9697,3.9772,3.9898,3.9898,3.9973,3.9923,3.7437,3.5253,3.347,3.3355,3.3621,3.4087,3.3947,3.4137,3.4413,3.3872,3.3707,3.3732,3.3858,0.0,3.4187,3.4577,0.0,0.0,0.0,0.0,3.1486,3.4248,3.6796,3.9383,4.2311,4.3014,4.3014,4.3014,4.3115,4.3151,0.0,4.3014,4.3014,4.3014,0.0,0.0,0.0,0.0,4.3402,4.3402,4.3402,4.3402,4.3402,4.3402,4.3402,4.3402,4.3402,4.3402,4.3402,4.3402,4.3402,4.3402,4.3402,4.3402,4.3402,0.0,0.0,0.0,0.0,0.0,0.0,0.0,0.0,0.0,0.0,0.0,0.0,0.0,0.0,0.0,0.0,0.0,0.0,0.0,0.0,0.0,0.0,0.0,0.0,0.0,0.0,0.0,0.0,0.0,3.243,3.3068,0.0,0.0,0.0,0.0,3.4251,3.4477,3.4313,3.3796,3.5867,3.6833,3.6292,3.8404,3.9559,3.9521,3.9647,3.9697,3.9697,3.9697,3.9697,3.9697,3.9697,3.9973,4.0462,4.0462,4.075,4.0976,3.7726,3.6619,3.6746,3.4675,3.4187,3.4603,3.4098,3.3922,3.3847,3.3341,3.314,3.3205,3.3721,3.4237,3.4653,3.4703,3.4577,0.0,0.0,3.3571,3.4324,3.7086,3.7914,3.8894,4.2197,4.3014,4.3014,4.3014,4.3402,4.3614,0.0,4.3014,4.3014,4.3014,0.0,4.3765,4.3765,4.4177,4.4529,4.4529,4.4529,4.4529,4.4529,4.4529,4.4529,4.4529,4.4529,4.4529,4.4529,4.4529,4.4529,4.4529,4.4529,4.4529,4.4529,4.4529,0.0,0.0,0.0,0.0,0.0,0.0,0.0,0.0,0.0,0.0,0.0,0.0,0.0,0.0,0.0,0.0,0.0,0.0,0.0,0.0,0.0,0.0,0.0,0.0,0.0,0.0,0.0,0.0,3.39,3.5127,0.0,3.3685,3.3219,3.3345,3.4123,3.5177,3.5703,3.5527,3.76,3.873,3.8542,3.9283,3.9697,3.9697,3.9697,3.9697,3.9697,3.9697,3.9873,4.0211,4.0211,4.0512,4.1026,4.1026,4.1113,4.1239,4.0451,4.0024,3.9747,3.8969,3.9019,3.9497,3.9296,3.9472,3.9735,3.9547,3.9472,3.9497,3.9685,3.9886,3.9647,3.7475,3.6823,3.6346,3.4034,3.4913,3.6759,3.7764,3.9597,4.1619,4.3137,4.3514,4.3614,4.3966,4.4177,4.4252,4.4066,4.4027,4.4027,4.4027,4.4177,4.4303,4.4303,4.4478,4.4589,4.4589,4.4589,4.4589,4.4589,4.4589,4.4589,4.4589,4.4589,4.4589,4.4589,4.4589,4.4589,4.4589,4.4589,4.4589,4.4589,4.4589,4.4589,0.0,0.0,0.0,0.0,0.0,0.0,0.0,0.0,0.0,0.0,0.0,0.0,0.0,0.0,0.0,0.0,0.0,0.0,0.0,0.0,0.0,0.0,0.0,0.0,0.0,3.3986,3.5203,3.4993,3.6132,3.657,3.5618,3.5052,3.5052,3.5805,3.6884,3.7512,3.7512,3.8906,3.9697,3.9697,3.9697,3.9697,3.9697,3.9873,3.9973,3.9973,4.0136,4.0437,4.0775,4.0775,4.1076,4.1592,4.1592,4.1717,4.1893,4.2311,4.2222,4.1868,4.1868,4.2108,4.2475,4.2475,4.2688,4.3014,4.3014,4.3014,4.3014,4.3014,4.3014,4.2587,4.035,3.9697,3.922,3.7048,3.8153,3.9973,3.9973,4.1731,4.3639,4.3991,4.4077,4.4177,4.4529,4.4754,4.4905,4.4905,4.4729,4.4589,4.4589,4.478,4.4905,4.4905,4.5056,4.5181,4.5181,4.5181,4.5181,4.5181,4.5181,4.5181,4.5181,4.5181,4.5181,4.5181,4.5181,4.5181,4.5181,4.5181,4.5181,4.5181,4.5181,4.5081,4.4905,0.0,0.0,0.0,0.0,0.0,0.0,0.0,0.0,0.0,0.0,0.0,0.0,0.0,0.0,0.0,0.0,0.0,0.0,0.0,0.0,0.0,0.0,0.0,3.2204,3.5604,3.7375,3.582,3.6132,3.672,3.7235,3.681,3.7387,3.9546,3.9697,3.9697,3.9697,3.9697,3.971,3.9722,3.9722,3.9722,3.9747,4.0261,4.0524,4.0538,4.1038,4.1314,4.1314,4.1314,4.1656,4.2224,4.2224,4.2526,4.3014,4.3014,4.3014,4.3014,4.3014,4.3014,4.3014,4.3014,4.3014,4.3014,4.3014,4.3014,4.3014,4.3014,4.3014,4.3014,4.3014,4.3025,4.3025,4.3065,4.3427,4.3815,4.3815,4.4202,4.4589,4.4614,4.4629,4.4614,4.464,4.5121,4.5537,4.5537,4.5056,4.464,4.464,4.5146,4.5537,4.5537,4.5974,0.0,4.6286,4.6286,4.6286,4.6286,4.6286,4.6286,4.6286,4.6286,4.6286,4.6286,4.6286,4.6286,4.6286,4.6286,4.6286,4.6286,4.6286,4.605,4.5537,0.0,0.0,0.0,0.0,0.0,0.0,0.0,0.0,0.0,0.0,0.0,0.0,0.0,0.0,0.0,0.0,0.0,0.0,0.0,0.0,0.0,3.3646,3.549,3.578,3.6406,3.7248,3.8404,3.8693,3.8856,3.9007,3.8868,3.9044,3.9647,3.9697,3.9697,3.9697,3.9697,3.9873,4.0261,4.0287,4.0462,4.0851,4.1001,4.1088,4.1088,4.1214,4.1542,4.1959,4.1959,4.2261,4.2788,4.2788,4.2864,4.3014,4.3014,4.3014,4.3014,4.3014,4.3014,4.3014,4.3014,4.3014,4.3014,4.3014,4.3014,4.3014,4.3014,4.3014,4.3076,4.3463,4.3589,4.3664,4.4066,4.4278,4.4378,4.4378,4.4503,4.4704,4.5146,4.5246,4.5372,4.5759,4.5959,4.6075,4.6075,4.5934,4.5834,4.5834,4.5974,4.6075,4.6075,4.6225,0.0,4.6286,4.6286,4.6286,4.6286,4.6286,4.6286,4.6286,4.6286,4.6286,4.6286,4.6286,4.6286,4.6286,4.6286,4.6286,4.6286,4.6286,4.6225,0.0,0.0,0.0,0.0,0.0,0.0,0.0,0.0,0.0,0.0,0.0,0.0,0.0,0.0,0.0,0.0,0.0,0.0,0.0,0.0,0.0,0.0,3.5088,3.7185,3.8128,3.7989,3.8266,3.9559,3.9697,3.9697,3.9697,3.9697,3.9697,3.9697,3.9898,4.0049,4.0049,4.0236,4.0499,4.0826,4.0826,4.0988,4.1289,4.1542,4.1681,4.1681,4.1893,4.2183,4.2551,4.2551,4.2713,0.0,4.3014,4.3014,4.3014,4.3014,4.3014,0.0,0.0,0.0,0.0,0.0,4.3014,4.3014,4.3014,4.3014,4.3039,4.3251,4.3327,4.3427,4.3976,4.4127,4.4202,4.4514,4.478,4.498,4.498,4.5131,4.5407,4.5748,4.5824,4.5924,4.6235,4.6286,4.6286,4.6286,0.0,0.0,4.6286,4.6286,4.6286,4.6286,4.6286,4.6286,4.6286,4.6286,4.6286,4.6286,4.6286,4.6286,4.6286,4.6286,0.0,0.0,0.0,4.6286,4.6286,4.6286,0.0,0.0,0.0,4.6286,0.0,0.0,0.0,0.0,4.5673,4.5824,0.0,0.0,0.0,0.0,0.0,0.0,0.0,0.0,0.0,0.0,0.0,0.0,0.0,0.0,0.0,0.0,3.5867,3.7474,3.9421,3.9697,3.9697,3.9697,3.9697,3.9697,3.9697,3.9747,3.9798,3.9798,4.0287,4.0588,4.0588,0.0,0.0,0.0,0.0,4.1428,4.1503,4.2021,4.2299,4.2299,4.2763,4.3014,4.3014,4.3014,4.3014,4.3014,4.3014,4.3014,4.3014,4.3014,4.3014,4.3014,4.3014,4.3014,4.3014,4.3014,4.3039,4.309,4.309,0.0,0.0,4.374,4.389,4.3976,4.4529,4.4704,4.4715,4.4765,4.5171,4.5587,4.5587,4.5949,4.6286,4.6286,4.6286,4.6286,4.6286,4.6286,4.6286,4.6286,4.6286,4.6286,4.6286,4.6286,4.6286,4.6286,4.6286,4.6286,4.6286,4.6286,4.6286,4.6286,0.0,0.0,4.6286,4.6286,4.6286,4.6286,4.6286,4.6286,4.6286,4.6286,4.6286,4.6286,4.6286,4.6336,4.6386,4.6386,4.6411,4.6461,4.6411,4.6386,0.0,0.0,0.0,0.0,0.0,0.0,0.0,0.0,0.0,0.0,0.0,0.0,0.0,0.0,0.0,3.4653,3.7161,3.9208,3.9647,3.9697,3.9697,3.9697,3.9697,3.9697,3.9697,4.0099,4.0337,4.0337,4.0851,4.1138,4.1138,4.1239,4.1517,4.2009,4.2034,4.2222,4.2674,4.2788,4.2838,4.2838,0.0,0.0,4.3014,4.3014,4.3014,4.3014,4.3014,4.3014,4.3014,4.3014,4.3014,4.3014,4.3014,4.3014,4.3014,4.3014,4.3277,4.3639,4.3639,4.394,4.4303,4.4403,4.4453,4.4554,4.5146,4.5321,0.0,4.5834,4.606,4.615,4.615,4.621,4.6286,4.6286,4.6286,4.6286,4.6286,4.6286,4.6286,4.6286,4.6286,4.6286,4.6286,4.6286,4.6286,4.6286,4.6286,4.6286,4.6286,4.6286,4.6286,4.6286,4.6286,4.6286,4.6286,4.6286,4.6286,4.6286,4.6286,4.6286,4.6286,4.6286,4.6286,4.6286,4.6286,4.6512,4.6948,4.6948,4.7164,4.7566,4.7164,4.6948,0.0,0.0,0.0,0.0,0.0,0.0,0.0,0.0,0.0,0.0,0.0,3.2641,3.2645,0.0,3.627,3.5994,3.8065,3.9697,3.9697,3.9697,3.9697,3.9697,3.9697,3.981,4.0061,4.0337,4.06,4.0876,4.1416,4.1756,4.1756,4.1993,4.2283,4.2587,4.2587,4.2738,4.3014,4.3014,4.3014,4.3014,4.3277,4.3402,4.3402,4.3689,4.379,4.379,4.379,4.379,4.379,4.379,4.379,4.379,4.379,4.3639,4.3427,4.3689,4.3966,4.4202,4.4202,4.4378,4.464,4.4955,4.5045,4.5171,4.5723,4.5899,4.5949,4.621,4.6286,4.6286,4.6286,4.6286,4.6286,4.6286,4.6286,4.6286,4.6286,4.6286,4.6286,4.6286,4.6512,4.6712,4.6712,4.6913,4.6928,4.6386,4.6286,4.6286,4.6286,4.6286,4.6286,4.6286,4.6286,4.6286,4.6286,4.6286,4.6286,4.6286,4.6286,4.6411,4.6672,4.6712,4.6838,4.7104,4.7089,4.7239,4.7516,4.7516,4.7641,4.7908,4.7933,4.7792,0.0,0.0,0.0,0.0,0.0,0.0,0.0,3.3757,3.4438,3.5193,3.573,3.5917,3.5444,3.671,3.7688,3.7274,3.8605,3.9697,3.9697,3.9798,3.9861,3.9861,3.9861,4.0074,4.06,4.0763,4.1014,4.1428,4.2021,4.235,4.235,4.2763,4.3014,4.3014,4.3101,4.3165,4.3165,4.3251,4.3302,4.3327,4.374,4.3966,4.3966,4.4403,4.4589,4.4589,4.4589,4.4589,4.4589,4.4589,4.4589,4.4614,4.4729,4.4503,4.4166,4.4478,4.4665,4.478,4.478,4.4855,4.5006,4.5497,4.5663,4.5723,4.616,4.6286,4.6286,4.6286,4.6286,4.6286,4.6286,4.6286,4.6286,4.6286,4.6286,4.6336,4.6436,4.6461,4.6486,4.6587,4.6963,4.7249,4.7249,4.7616,4.7606,4.6737,4.6612,4.6612,4.6612,4.6612,4.6612,4.6612,4.6612,4.6612,4.6612,4.6612,4.6612,4.6612,4.6612,4.6813,4.7224,4.7249,4.7465,4.7892,4.7908,4.7958,4.8083,4.8083,4.8134,4.8234,4.8727,4.8652,3.014,3.1009,3.2154,3.1622,3.3323,3.4892,0.0,3.4603,3.5218,3.4853,3.4853,3.4865,3.4803,3.6157,3.7274,3.7198,3.8605,3.9697,3.9697,4.0124,4.0412,4.0412,4.0412,4.0625,4.1177,4.1694,4.2048,4.2098,4.2587,4.2914,4.2914,4.2964,4.3014,4.3014,4.3463,4.3714,4.3714,4.4177,4.4428,4.4428,4.4478,4.4514,4.4514,4.4564,4.4589,4.4589,4.4589,4.4589,4.4589,4.4589,4.4589,4.464,4.5196,4.5361,4.5261,4.478,4.493,4.5412,4.5412,4.5723,4.611,4.62,4.621,4.621,4.6286,4.6286,4.6286,4.6286,4.6286,4.6286,4.6286,4.6286,4.6286,4.6286,4.6286,4.6436,4.6898,4.7023,4.7149,4.7616,4.7767,4.7817,4.7817,4.7867,4.7857,4.7757,4.7716,4.7716,4.7716,4.7716,4.7716,4.7716,4.7716,4.7716,4.7716,4.7716,4.7716,4.7716,4.7716,4.7757,4.7817,4.7817,4.7842,4.7908,4.7908,4.8159,4.8718,4.8718,4.8928,4.9414,4.948,4.9229,3.2896,3.3147,3.3445,3.4511,3.5629,3.6446,3.6332,3.6647,3.7087,3.7526,3.7613,3.7613,3.7613,3.8191,3.8642,3.8642,3.9258,3.9798,4.0111,4.0362,4.0738,4.1418,4.1493,4.1569,4.1795,4.2034,4.2324,4.2637,4.2864,4.3014,4.3014,4.3302,4.3478,4.3478,4.3991,4.4278,4.4278,4.4503,4.4589,4.4589,4.4955,4.5121,4.5131,4.5457,4.5583,4.5583,4.5583,4.5583,4.5583,4.5583,4.5583,4.5608,4.5874,4.5974,4.5949,4.5683,4.5733,4.5974,4.5974,4.611,4.6286,4.6286,4.6286,4.6286,4.6286,4.6286,4.6286,4.6286,4.6286,4.6286,4.6286,4.6537,4.6788,4.6788,4.7014,4.729,4.7516,4.7566,4.7641,4.7857,4.8184,4.8426,4.8426,4.8686,4.8887,4.8887,4.8335,4.7908,4.7908,4.7908,4.7908,4.7908,4.7908,4.7908,4.7908,4.7908,4.7908,4.7908,4.7908,4.8058,4.8426,4.8426,4.856,4.8887,4.8887,4.9012,4.928,4.928,4.938,4.9615,4.9916,4.9941,3.3839,3.4262,3.4625,3.6671,3.755,3.8002,3.8391,3.8467,3.8693,3.9521,3.9697,3.9697,3.9697,3.9697,3.9697,3.9697,3.9823,4.0074,4.0437,4.0777,4.1292,4.2098,4.2324,4.2425,4.2425,4.2425,4.2587,4.2964,4.3126,4.3226,4.3226,4.374,4.4027,4.4027,4.4554,4.4855,4.4855,4.5006,4.5081,4.5066,4.5522,4.5723,4.5723,4.611,4.6286,4.6286,4.6286,4.6286,4.6286,4.6286,4.6286,4.6286,4.6286,4.6286,4.6286,4.6286,4.6286,4.6286,4.6286,4.6286,4.6286,4.6286,4.6286,4.6286,4.6286,4.6286,4.6286,4.6286,4.6411,4.6537,4.6537,4.6938,4.7324,4.7324,4.7616,4.7958,4.8109,4.8159,4.8184,4.8335,4.8727,4.9028,4.9028,4.9355,4.959,4.959,4.8887,4.8385,4.8385,4.8385,4.8385,4.8385,4.8385,4.8385,4.8385,4.8385,4.8385,4.8385,4.8385,4.856,4.9003,4.9028,4.9204,4.959,4.959,4.9665,4.9816,4.9816,4.9916,5.0083,5.0469,5.0653,3.122,3.3068,3.5091,3.6771,3.8429,3.9635,3.9647,3.9647,3.966,3.9697,3.9697,3.9697,3.9697,3.9697,3.9697,3.9697,4.0149,4.0487,4.0512,4.1443,4.2149,4.2199,4.2663,4.2989,4.2989,4.2989,4.2975,4.3014,4.3478,4.379,4.379,4.4278,4.4579,4.4579,4.5171,4.5487,4.5487,4.5999,4.6235,4.6235,4.6261,4.6261,4.6261,4.6286,4.6286,4.6286,4.6286,4.6286,4.6286,4.6286,4.6286,4.6286,4.6286,4.6286,4.6286,4.6286,4.6286,4.6286,4.6286,4.6286,4.6286,4.6286,4.6286,4.6286,4.6286,4.6286,4.6286,4.6286,4.6672,4.7074,4.7074,4.745,4.7883,4.7883,4.7892,4.8058,4.8667,4.8768,4.8944,4.9455,4.9565,4.9581,4.9581,4.959,4.959,4.959,4.9565,4.954,4.954,4.954,4.954,4.954,4.954,4.954,4.954,4.954,4.954,4.954,4.954,4.9565,4.9565,4.9581,4.9565,4.959,4.959,4.9866,5.0377,5.0377,5.067,5.1239,5.1264,5.1264,3.3083,3.4951,3.6759,3.8454,3.927,3.9697,3.9697,3.9697,3.9697,3.9697,3.8831,3.8052,3.8052,3.8052,3.8052,3.8052,3.9421,4.0625,4.0976,4.1719,4.2324,4.2688,4.3201,4.3528,4.3528,4.3528,4.3528,4.3528,4.4041,4.4328,4.4328,4.4895,4.5196,4.5196,4.5748,4.6024,4.6024,4.621,4.6286,4.6286,4.6286,4.6286,4.6286,4.6286,4.6286,4.6286,4.6286,4.6286,4.6286,4.6286,4.6286,4.6286,4.6286,4.6286,4.6286,4.6286,4.6286,4.6286,4.6286,4.6286,4.6286,4.6286,4.6286,4.6361,4.6722,4.6823,4.6898,4.7265,4.749,4.7641,4.7641,4.8058,4.8501,4.8501,4.8777,4.9088,4.928,4.933,4.938,4.9565,4.959,4.959,4.959,4.959,4.959,4.959,4.959,4.959,4.959,4.959,4.959,4.959,4.959,4.959,4.959,4.959,4.959,4.959,4.9941,5.0126,5.0126,5.0535,5.0736,5.0736,5.0736,5.0812,5.1013,5.1013,5.1113,5.1314,5.1666,5.1825,3.47,3.6232,3.76,3.927,3.9697,3.9697,3.9697,3.9697,3.9697,3.9697,3.8379,3.7148,3.6959,3.642,3.6093,3.6294,3.7651,3.9194,4.0524,4.1229,4.1996,4.3151,4.3589,4.389,4.4066,4.4292,4.4317,4.4102,4.4604,4.493,4.493,4.5472,4.5773,4.5773,4.611,4.6286,4.6286,4.6286,4.6286,4.6286,4.6286,4.6286,4.6286,4.6286,4.6286,4.6286,4.6286,4.6411,4.6587,4.6587,4.6687,4.6863,4.6863,4.6863,4.6863,4.6863,4.6863,4.6838,4.6662,4.6587,4.6612,4.6813,4.6863,4.6938,4.729,4.739,4.7465,4.7792,4.8058,4.8209,4.8209,4.8652,4.9079,4.9079,4.9355,4.959,4.959,4.959,4.959,4.959,4.959,4.959,4.959,4.959,4.959,4.959,4.9766,4.9816,4.9615,4.959,4.959,4.959,4.9766,4.9891,4.9891,5.0067,5.0209,5.0209,5.0519,5.072,5.072,5.1071,5.1289,5.1289,5.1289,5.1389,5.159,5.159,5.1674,5.1875,5.2226,5.2385,3.5865,3.6896,3.7701,3.9308,3.9697,3.9697,3.9697,3.9697,3.9685,3.9559,3.8203,3.6847,3.6217,3.4924,3.4123,3.4628,3.5344,3.6786,3.9446,4.0312,4.1441,4.3564,4.384,4.4091,4.4604,4.5196,4.5296,4.4729,0.0,4.5537,4.5537,4.6024,4.6286,4.6286,4.6286,4.6286,4.6286,4.6286,4.6311,4.6336,4.6336,4.6361,4.6386,4.6386,4.6386,4.6386,4.6386,4.6687,4.7149,4.7149,4.744,4.7908,4.7908,4.7908,4.7908,4.7908,4.7908,4.7817,4.735,4.7174,4.7224,4.7716,4.7908,4.7908,4.7933,4.7958,4.7958,4.7983,4.84,4.8843,4.8843,4.9229,4.959,4.959,4.959,4.959,4.959,4.959,4.959,4.959,4.9615,4.964,4.964,4.9665,4.9707,4.9707,5.0117,5.0252,4.9715,4.9665,4.9707,4.9707,5.0142,5.0452,5.0452,5.0971,5.1289,5.1289,5.1314,5.1339,5.1339,5.1364,5.1389,5.1389,5.1389,5.1624,5.2151,5.2151,5.241,5.2895,5.2895,5.2895,3.6721,3.8014,3.9183,3.9597,3.9697,3.9697,3.9697,3.9697,3.9233,3.7587,3.5904,3.4198,3.2416,3.3409,3.4527,3.4678,3.7965,4.0753,4.147,4.2372,4.3162,4.374,4.4543,4.5121,4.5246,4.5773,4.6024,4.5884,4.601,4.61,4.61,4.6225,4.6286,4.6286,4.6286,4.6286,4.6286,4.6286,4.6512,4.6898,4.6898,4.7114,4.749,4.749,4.749,4.749,4.749,4.7566,4.7691,4.7691,4.7767,4.7908,4.7908,4.7908,4.7908,4.7908,4.7908,4.7942,4.8259,4.8083,4.7716,4.7857,4.7908,4.7983,4.8426,4.8576,4.8652,4.9038,4.928,4.9405,4.9405,4.9506,4.959,4.959,4.959,4.959,4.959,4.959,4.959,4.959,4.9916,5.0201,5.0201,5.0569,5.0862,5.0862,5.0971,5.0845,5.0252,5.0594,5.0862,5.0862,5.0987,5.1071,5.1071,5.1214,5.1289,5.1289,5.1691,5.19,5.19,5.2277,5.2485,5.2485,5.2485,5.2561,5.2711,5.2711,5.2762,5.2895,5.2895,5.2895,3.8077,3.8982,3.9697,3.9697,3.9697,3.9459,3.8454,3.8253,3.7613,3.5413,3.3607,3.2079,3.0824,3.2054,3.3409,3.3922,3.7173,4.0075,4.1267,4.2183,4.3073,4.4027,4.4945,4.5573,4.5824,4.611,4.6286,4.6286,4.6286,4.6286,4.6286,4.6286,4.6286,4.6286,4.6537,4.6763,4.6988,4.6988,4.7139,4.7465,4.7465,4.7616,4.7908,4.7908,4.7908,4.7908,0.0,4.8058,4.8284,4.8284,4.8435,4.8661,4.8661,4.8661,4.8661,4.8661,4.8661,4.8686,4.9028,4.8928,4.8661,4.8661,4.8661,4.8711,4.9053,4.9154,4.9204,4.9531,4.959,4.959,4.959,4.959,4.959,4.959,4.959,4.959,4.959,4.959,4.9665,4.9916,5.0419,5.0795,5.0795,5.1088,5.1289,5.1289,5.1515,5.1523,5.118,5.1222,5.1289,5.1289,5.1515,5.1649,5.1649,5.1875,5.2,5.2,5.2285,5.246,5.246,5.2737,5.2895,5.2895,5.2895,5.2895,5.2895,5.2895,5.2895,5.2895,5.2895,5.2895,3.9421,3.9697,3.9697,3.9697,3.9697,3.9132,3.6896,3.6395,3.5705,3.318,3.1562,3.0522,3.0221,3.0909,3.1924,3.3205,3.5353,3.7814,4.0563,4.1403,4.2482,4.4478,4.5246,4.5773,4.6235,4.6361,4.6411,4.6411,4.6461,4.6486,4.6411,4.6411,4.6436,4.6512,4.6948,4.744,4.7908,4.7908,4.7933,4.8033,4.8033,4.8058,4.8134,4.8134,4.8134,4.8134,0.0,0.0,4.8919,4.8919,4.9179,4.959,4.959,4.959,4.959,4.959,4.959,4.959,4.959,4.959,4.959,4.959,4.959,4.959,4.959,4.959,4.959,4.959,4.959,4.959,4.959,4.959,4.9615,4.969,4.9715,4.9715,4.9816,4.9816,4.9967,5.0427,5.0996,5.1414,5.1414,5.1465,5.1515,5.1515,5.19,5.2226,5.2226,5.18,5.1515,5.1515,5.1925,5.2226,5.2226,5.2636,5.2895,5.2895,5.2895,5.2895,5.2895,5.2895,5.2895,5.2895,5.2895,5.2895,5.2895,5.2895,5.2895,5.2895,5.2895,5.2895,3.9647,3.9697,3.9697,3.9697,3.9697,3.9132,3.6896,3.6395,3.5241,3.122,3.0497,3.0046,2.8206,3.0156,3.2721,3.4742,3.735,4.0099,4.2836,4.37,4.4353,4.5246,4.5824,4.62,4.6286,4.6712,4.6973,4.6973,4.7365,4.7415,4.6973,4.6973,4.7149,4.7606,4.7716,4.7807,4.7908,4.7908,4.8159,4.8626,4.8626,4.8878,4.9314,4.9314,4.9314,4.9314,4.9314,0.0,4.9464,4.9464,4.9515,4.959,4.959,4.959,4.959,4.959,4.959,4.959,4.959,4.959,4.959,4.959,4.959,4.959,4.959,4.959,4.959,4.959,4.959,4.959,4.959,4.959,4.9715,5.0167,5.0252,5.0419,5.0912,5.1013,5.1038,5.1138,5.1574,5.1975,5.1975,5.2335,5.2611,5.2611,5.2711,5.2744,5.2744,5.2686,5.2611,5.2611,5.2711,5.2744,5.2744,5.2862,5.2895,5.2895,5.2895,5.2895,5.2895,5.2895,5.2895,5.2895,5.2895,5.2895,5.2895,5.2895,5.2895,5.2895,5.2895,5.2895,3.9697,3.9697,3.9697,3.9697,3.9697,3.8831,3.5452,3.4687,3.3506,2.9362,2.8709,2.8725,2.8222,3.0347,3.2656,3.4037,3.7312,4.0249,4.1856,4.355,4.483,4.5437,4.5974,4.6286,4.6286,4.6772,4.7099,4.7099,4.7591,4.7792,4.7541,4.7516,4.7767,4.835,4.8375,4.8485,4.8786,4.8786,4.8912,4.9229,4.9229,4.9355,4.959,4.959,4.959,4.959,4.959,0.0,4.959,4.959,4.959,4.959,4.959,4.959,4.959,4.959,4.959,4.959,4.959,4.959,4.959,4.959,4.959,4.959,4.959,4.959,4.959,4.959,4.9791,5.0017,5.0017,5.0243,5.0561,5.0795,5.087,5.0946,5.1239,5.1515,5.1716,5.1716,5.2151,5.2511,5.2511,5.2737,5.2895,5.2895,5.2895,5.2895,5.2895,5.2895,5.2895,5.2895,5.2895,5.2895,5.2895,5.2895,5.2895,5.2895,5.2895,5.2895,5.2895,5.2895,5.2895,5.2895,5.2895,5.2895,5.2895,5.2895,5.2895,5.2895,5.2895,5.2895,3.9609,3.9697,3.9697,3.9697,3.9697,3.8555,3.412,3.309,3.2009,2.809,2.7386,2.777,2.8722,3.0312,3.1853,3.2903,3.5917,3.8693,4.0437,4.2532,4.4328,4.5522,4.605,4.6336,4.6461,4.6963,4.734,4.745,4.7967,4.8209,4.8109,4.8209,4.8485,4.8953,4.8969,4.9179,4.9606,4.959,4.959,4.959,4.959,4.959,4.959,4.959,4.959,4.959,4.959,0.0,0.0,4.959,4.959,4.959,4.959,4.959,4.959,4.959,4.959,4.959,4.959,4.959,4.959,4.959,4.959,4.959,4.959,4.9665,4.9766,4.9766,5.0167,5.0578,5.0578,5.0946,5.1339,5.144,5.1565,5.1624,5.1624,5.1975,5.2277,5.2277,5.2611,5.2895,5.2895,5.2895,5.2895,5.2895,5.2895,5.2895,5.2895,5.2895,5.2895,5.2895,5.2895,5.2895,5.2895,5.2895,5.2895,5.2895,5.2895,5.2895,5.2895,5.2895,5.2698,5.2293,5.2275,5.2067,5.1642,5.2067,5.2275,5.2293,5.2698,5.2895,3.9283,3.9697,3.9697,3.9697,3.9697,3.8555,3.412,3.309,3.2009,2.809,2.7679,2.8213,2.8797,2.9073,3.0061,3.2688,3.2968,3.4828,4.0436,4.1439,4.2758,4.5859,4.6261,4.6486,4.6973,4.7516,4.8058,4.8601,4.9154,4.9229,4.8727,4.9179,4.9464,4.9515,4.9531,4.954,4.959,4.959,4.959,4.959,4.959,4.959,4.959,4.959,4.959,4.959,4.959,0.0,0.0,4.959,4.959,4.959,4.959,4.959,4.959,4.959,4.959,4.959,4.959,4.959,4.959,4.959,4.959,4.959,4.959,4.9941,5.0327,5.0327,5.077,5.1214,5.1214,5.1264,5.1414,5.19,5.2385,5.2744,5.2744,5.2787,5.2837,5.2837,5.2887,5.2895,5.2895,5.2895,5.2895,5.2895,5.2895,5.2895,5.2895,5.2895,5.2895,5.2895,5.2895,5.2895,5.2895,5.2895,5.2895,5.2895,5.2895,5.2895,5.2895,5.2895,5.2085,5.0304,5.0269,4.9373,4.754,4.9391,5.0269,5.0304,5.2085,5.2895,3.9258,3.9697,3.9697,3.9697,3.8956,3.7299,3.3869,3.2326,3.0859,2.8298,2.7946,2.8364,2.9277,2.9132,2.9383,3.0869,3.1446,3.2918,3.6371,3.7713,3.971,4.3391,4.3843,4.4694,4.6898,4.7591,4.8284,4.9204,4.948,4.9506,4.9305,4.948,4.959,4.959,4.959,4.959,4.959,4.959,4.959,4.959,4.959,4.959,4.959,4.959,4.959,4.959,4.959,0.0,0.0,4.959,4.959,4.959,4.959,4.959,4.959,4.959,4.959,4.959,4.959,4.959,4.964,4.9992,5.0076,5.0076,5.0076,5.0494,5.0946,5.0946,5.1348,5.1774,5.1774,5.2026,5.231,5.2536,5.2744,5.2895,5.2895,5.2895,5.2895,5.2895,5.2895,5.2895,5.2895,5.2895,5.2895,5.2895,5.2895,5.2895,5.2895,5.2895,5.2456,5.1285,5.1138,5.1642,5.2809,5.1834,5.166,5.2843,5.1799,5.1138,5.1138,5.1138,5.0233,4.8235,4.9391,4.9009,4.6992,4.9009,4.9997,5.0056,5.199,5.2895,3.8504,3.932,3.9697,3.9697,3.8454,3.647,3.3718,3.1924,3.0331,2.8473,2.8238,2.8649,2.9603,2.9167,2.8856,2.9443,3.003,3.1185,3.3355,3.4823,3.6996,4.0527,4.1118,4.2498,4.5809,4.7516,4.8736,4.954,4.959,4.959,4.959,4.959,4.959,4.959,4.959,4.959,4.959,4.959,4.959,4.959,4.959,4.959,4.959,4.959,4.959,4.959,4.959,0.0,0.0,4.959,4.959,4.959,4.959,4.959,4.959,4.959,4.959,4.9615,4.9791,4.9841,4.9941,5.0494,5.0754,5.0904,5.0904,5.1197,5.154,5.154,5.1925,5.2335,5.2335,5.2611,5.2895,5.2895,5.2895,5.2895,5.2895,5.2895,5.2895,5.2895,5.2456,5.205,5.205,5.205,5.205,5.205,5.2542,5.268,5.2119,5.205,5.1303,4.932,4.8596,4.9278,5.1834,5.1321,5.1215,5.1998,5.0769,4.973,4.9135,4.9099,4.8199,4.6182,4.7522,4.7266,4.5276,4.7872,4.9099,4.9153,5.1729,5.2895,3.6771,3.8429,3.9697,3.9697,3.8454,3.647,3.3718,3.22,3.0768,2.8574,2.853,2.9082,2.9679,2.8875,2.8288,2.8822,2.8455,2.9302,3.2638,3.3581,3.4951,3.7713,3.858,4.0225,4.3514,4.733,4.9606,4.959,4.959,0.0,4.959,4.959,4.959,4.959,4.959,4.959,4.959,4.959,4.959,4.959,4.959,4.959,4.959,4.959,4.959,0.0,0.0,0.0,0.0,4.959,4.959,4.959,4.959,4.959,4.959,4.959,4.959,4.9665,5.0201,5.0402,5.0477,5.1071,5.1649,5.2076,5.2076,5.2101,5.2101,5.2101,5.2485,5.2895,5.2895,5.2912,5.2895,5.2895,5.2895,5.2895,5.2895,5.2895,5.2895,5.2895,5.1356,5.0014,5.0014,5.0014,5.0014,5.0014,5.1677,5.2206,5.0286,5.0014,4.9266,4.7248,4.5313,4.5738,4.9694,5.1782,5.2067,5.0162,4.9997,4.9099,4.7102,4.7029,4.6109,4.4172,4.4132,4.3209,4.1269,4.5127,4.7029,4.712,5.1075,5.2895,3.46,3.5328,3.5666,3.5289,3.3933,3.2365,3.112,2.9955,2.895,2.8238,2.853,2.8957,2.9157,2.859,2.8288,2.8797,2.8138,2.8307,3.0542,3.23,3.4511,3.7626,4.2183,4.5638,4.7069,4.8677,4.959,4.959,4.959,4.959,4.959,4.959,4.959,4.959,4.959,4.959,4.959,4.959,4.959,4.959,4.959,4.959,4.959,4.959,4.959,0.0,0.0,0.0,0.0,4.959,4.959,4.959,4.959,4.959,4.959,4.959,4.9841,5.0151,5.0352,5.067,5.1113,5.1674,5.1975,5.2176,5.2536,5.2661,5.2661,5.2661,5.2787,5.2895,5.2895,5.2895,5.2895,5.2895,5.2895,5.2895,5.2895,5.2895,5.2508,5.118,5.041,4.957,4.8199,4.9081,4.9534,4.8162,4.9641,5.0198,4.8217,4.7963,4.7193,4.5239,4.5667,4.7139,4.9783,4.8085,4.7777,4.9872,4.7467,4.5682,4.5052,4.5014,4.4096,4.2157,4.3416,4.3151,4.1211,4.5089,4.8397,5.1075,5.2335,5.2895,3.2365,3.3119,3.3506,3.319,3.1838,3.0447,2.9905,2.9067,2.8329,2.8138,2.853,2.8897,2.8897,2.8314,2.7971,2.8505,2.8047,2.8407,3.0718,3.2411,3.4712,3.8216,4.3212,4.6677,4.7471,4.8802,4.959,4.959,4.959,4.959,4.959,4.959,4.959,4.959,4.959,4.959,4.959,4.959,4.959,4.959,4.959,4.959,4.959,4.959,4.959,0.0,0.0,0.0,0.0,4.959,4.959,4.959,4.959,4.959,4.9615,4.9816,5.0101,5.0452,5.0879,5.1297,5.1674,5.2226,5.241,5.246,5.2812,5.2895,5.2895,5.2895,5.2895,5.2895,5.2895,5.2895,5.2895,5.2895,5.2895,5.2698,5.1956,5.1816,5.1233,4.9266,4.8289,4.7376,4.6109,4.6937,4.7358,4.609,4.7595,4.8162,4.6146,4.5905,4.5164,4.3209,4.4098,4.5611,4.7595,4.6182,4.5923,4.7668,4.5459,4.3756,4.3037,4.3018,4.2426,4.123,4.2388,4.2406,4.1211,4.5089,4.9027,5.2895,5.2895,5.2895,0.0,3.1461,3.2688,3.2638,3.1472,3.0171,2.9688,2.9192,0.0,2.8213,2.853,2.8897,2.8897,2.8021,2.7478,2.8063,2.8113,2.9277,3.2688,3.3958,3.5981,3.9836,4.2598,4.4593,4.5688,4.8083,4.959,4.959,4.959,4.959,4.959,4.959,4.959,4.959,4.959,4.959,4.959,4.959,4.959,4.959,4.959,4.959,4.959,4.959,4.959,0.0,0.0,0.0,0.0,4.959,4.959,4.959,4.964,4.9665,4.9715,5.0252,5.0477,5.0678,5.1732,5.2126,5.2251,5.2737,5.2895,5.2895,5.2895,5.2895,5.2895,5.2895,5.2895,5.2895,5.2895,5.2895,5.2878,5.2715,5.268,5.2171,5.0216,4.9783,4.9189,4.7175,4.5351,4.4058,4.3926,4.4002,4.4058,4.3907,4.5555,4.609,4.4153,4.3888,4.3209,4.1385,4.1191,4.1927,4.3737,4.5555,4.589,4.4209,4.3964,4.3075,4.1269,4.1191,4.1191,4.1191,4.1191,4.1347,4.1618,4.5239,4.9027,5.2895,5.2895,5.2895,2.7613,0.0,2.8567,2.8158,2.7747,2.742,0.0,2.7805,2.8263,2.8122,2.853,2.8897,2.8897,2.8021,2.7604,2.8555,2.8364,2.9418,3.3169,3.7851,4.2146,4.5573,4.6944,4.7898,4.856,4.9213,4.959,4.959,4.959,4.959,4.959,4.959,4.959,4.959,4.959,4.959,4.959,4.959,4.959,4.959,4.959,4.959,4.959,4.959,4.959,0.0,0.0,0.0,4.959,4.959,4.959,4.964,5.0067,5.0201,5.0277,5.087,5.1348,5.1732,5.2026,5.236,5.2737,5.2845,5.2895,5.2895,5.2895,5.2895,5.2895,5.2895,5.2895,5.2895,5.2895,5.2895,5.2525,5.1033,5.0699,5.0145,4.8144,4.7727,4.712,4.5164,4.4414,4.3644,4.2138,4.3132,4.3606,4.21,4.353,4.4077,4.2119,4.1888,4.1695,4.125,4.1191,4.1405,4.1849,4.2292,4.2999,4.404,4.2713,4.1695,4.1211,4.1191,4.1191,4.1191,4.1191,4.2656,4.5648,4.6533,4.9027,5.2895,5.2895,5.2895,2.6725,2.67,2.6868,2.6575,2.6508,2.6508,2.6508,2.7336,2.8021,2.777,2.8163,2.8455,2.8213,2.7268,2.6976,2.8304,2.9142,3.106,3.5203,3.8856,4.2322,4.5623,4.6527,4.7581,4.9414,4.959,4.959,4.959,4.959,4.959,4.959,4.959,4.959,4.959,4.959,4.959,4.959,4.959,4.959,4.959,4.959,4.959,4.959,4.959,4.959,0.0,0.0,0.0,4.9967,4.9967,5.0117,5.041,5.0695,5.082,5.087,5.1465,5.185,5.2151,5.2385,5.2661,5.2895,5.2895,5.2895,5.2895,5.2895,5.2895,5.2895,5.2895,5.2895,5.268,5.1799,5.159,5.1068,4.9081,4.8632,4.809,4.609,4.5686,4.5089,4.3151,4.2771,4.2446,4.1386,4.2061,4.2406,4.1366,4.21,4.2388,4.1347,4.1191,4.1191,4.1191,4.1191,4.1191,4.1191,4.1191,4.1657,4.2713,4.1772,4.1191,4.1191,4.1191,4.1191,4.1191,4.2081,4.4023,4.6992,4.6992,4.8578,5.159,5.159,5.159,2.6659,2.6759,2.6927,2.6575,2.6508,2.6508,2.6508,2.7336,2.7946,2.7403,2.7729,2.7946,2.7412,2.6498,2.6364,2.7962,3.0658,3.4008,3.8191,3.9635,4.1343,4.4217,4.5045,4.6486,4.9314,4.959,4.959,4.959,4.959,4.959,4.959,4.959,4.959,4.959,4.9665,4.9715,4.9715,4.9715,4.9715,4.9715,4.9816,4.9866,4.9866,4.9866,4.9866,4.9866,0.0,0.0,5.0528,5.0528,5.0845,5.1314,5.1389,5.1414,5.149,5.2026,5.2226,5.2302,5.2737,5.2895,5.2895,5.2895,5.2895,5.2843,5.256,5.2456,5.2379,5.2085,5.2223,5.2015,5.0056,4.9552,4.9027,4.7029,4.6551,4.6016,4.4077,4.3663,4.317,4.1521,4.1191,4.1191,4.1191,4.1191,4.1191,4.1191,4.1191,4.1191,4.1191,4.1191,4.1191,4.1191,4.1191,4.1191,4.1191,4.1191,4.1191,4.1191,4.1191,4.1191,4.1191,4.1191,4.1191,4.1191,4.3113,4.5071,4.6992,4.6992,4.8035,4.9997,4.9997,5.0044,2.6659,2.7873,2.8844,2.6977,2.6508,2.6508,2.6508,2.7336,2.7946,2.7403,2.7729,2.7946,2.7412,2.716,2.7419,2.858,3.3822,3.8793,4.1795,4.4694,4.6903,4.7898,4.8526,4.9038,4.954,4.959,4.959,4.959,4.959,4.959,4.959,4.959,4.959,4.959,5.0042,5.0277,5.0277,5.0277,5.0277,5.0277,5.0795,5.1038,5.1038,5.1038,5.1038,5.1038,0.0,5.1088,5.1163,5.1163,5.1214,5.1339,5.18,5.1975,5.2051,5.2586,5.2787,5.2787,5.2887,5.2895,5.2895,5.2895,5.2895,5.2594,5.0945,5.0446,5.0091,4.8379,4.9117,4.9979,4.7976,4.7449,4.6955,4.5014,4.4546,4.4002,4.2081,4.1657,4.156,4.1269,4.1191,4.1191,4.1191,4.1191,4.1191,4.1191,4.1191,4.1191,4.1191,4.1191,4.1191,4.1191,4.1191,4.1191,4.1191,4.1191,4.1191,4.1191,4.1191,4.1191,4.1191,4.1191,4.1191,4.1191,4.3113,4.5071,4.6992,4.6992,4.8035,4.9997,4.9997,5.0235,2.6583,2.7253,2.8074,2.8241,2.918,3.0135,3.0427,3.111,3.125,2.9814,2.993,2.9603,2.7286,2.8081,3.0331,3.4112,3.681,3.9484,4.2587,4.3277,4.4242,4.6276,4.7044,4.7973,4.9464,4.959,4.959,4.959,4.959,4.959,4.959,4.959,4.9741,5.0001,5.0277,5.0569,5.087,5.1155,5.1155,5.0896,5.1163,5.1289,5.1289,5.1289,5.1289,5.1289,0.0,5.1465,5.1724,5.1724,5.19,5.2201,5.2435,5.2536,5.2561,5.2795,5.2895,5.2895,5.2895,5.2895,5.2895,5.2895,5.2189,5.118,5.0269,4.9224,4.7981,4.5979,4.6864,4.7904,4.5942,4.5444,4.494,4.2999,4.2522,4.2292,4.1385,4.1191,4.1191,4.1191,4.1191,4.1191,4.1191,4.1191,4.1191,4.1191,4.1191,4.1191,4.1191,4.1191,4.1191,4.1191,4.1191,4.1191,4.1191,4.1191,4.1191,4.1191,4.1191,4.1191,4.1191,4.1191,4.1676,4.2751,4.3644,4.5071,4.6992,4.5942,4.5905,4.6845,4.8219,4.9005,2.6508,2.6876,2.7672,2.9387,3.0678,3.1959,3.3556,3.3911,3.3585,3.2416,3.2606,3.1813,2.7973,2.9302,3.2807,3.8391,3.922,4.0338,4.3678,4.2699,4.266,4.5432,4.6175,4.7295,4.9389,4.959,4.959,4.959,4.959,4.959,4.959,4.9715,4.9992,5.0377,5.0653,5.1021,5.149,5.2026,5.2026,5.149,5.1599,5.1674,5.1674,5.1674,5.1674,5.1674,5.1674,5.19,5.2302,5.2302,5.2536,5.2895,5.2895,5.2895,5.2895,5.2895,5.2895,5.2895,5.2895,5.2895,5.2895,5.2895,5.1886,5.0587,5.0145,4.8596,4.6588,4.464,4.4827,4.5295,4.3815,4.3416,4.3056,4.156,4.1191,4.1191,4.1191,4.1191,4.1191,4.1191,4.1191,4.1191,4.1191,4.1191,4.1191,4.1191,4.1191,4.1191,4.1191,4.1191,4.1191,4.1191,4.1191,4.1191,4.1191,4.1191,4.1191,4.1191,4.1191,4.1191,4.1191,4.1191,4.1907,4.3397,4.3869,4.4827,4.6312,4.4827,4.432,4.4827,4.6934,4.8211,2.6508,2.7999,2.9613,2.9764,2.8376,2.8184,3.2842,3.2727,3.2164,3.4076,3.4892,3.409,3.0266,3.0934,3.3409,3.745,4.0664,4.3779,4.7079,4.7405,4.7782,4.9088,4.9264,4.9364,4.9565,4.959,4.959,4.959,4.959,4.959,4.959,5.0051,5.0352,5.0402,5.1431,5.2,5.2051,5.2561,5.2561,5.2051,5.2561,5.277,5.277,5.277,5.277,5.277,5.277,5.2812,5.2845,5.2845,5.2887,5.2895,5.2895,5.2895,5.2895,5.2895,5.2895,5.2895,5.2895,5.2895,5.2895,5.2895,5.2809,5.2345,5.0534,4.8596,4.6588,4.464,4.2903,4.1579,4.1443,4.1405,4.1366,4.123,4.1191,4.1191,4.1191,4.1191,4.1191,4.1191,4.1191,4.1191,4.1191,4.1191,4.1191,4.1191,4.1191,4.1191,4.1191,4.1191,4.1191,4.1191,4.1191,4.1191,4.1191,4.1191,4.1191,4.1191,4.1191,4.1191,4.1191,4.1191,4.1269,4.1405,4.3189,4.4172,4.4323,4.4172,4.5033,4.6813,4.7548,4.9134,2.6508,2.8124,2.9814,2.9814,2.9412,3.0357,3.5328,3.5956,3.5956,3.7487,3.7977,3.7262,3.4421,3.5805,3.794,3.9772,4.3134,4.6085,4.7666,4.8209,4.8752,4.9515,4.959,4.959,4.959,4.959,4.959,4.959,4.959,4.959,4.959,5.0101,5.0553,5.0946,5.1699,5.226,5.2586,5.2812,5.2812,5.2611,5.2795,5.2895,5.2895,5.2895,5.2895,5.2895,5.2895,5.2895,5.2895,5.2895,5.2895,5.2895,5.2895,5.2895,5.2895,5.2895,5.2895,5.2895,5.2895,5.2895,5.2895,5.2895,5.2085,5.0734,4.874,4.6754,4.479,4.2847,4.1753,4.1191,4.1191,4.1191,4.1191,4.1191,4.1191,4.1191,4.1191,4.1191,4.1191,4.1191,4.1191,4.1191,4.1191,4.1191,4.1191,4.1191,4.1191,4.1191,4.1191,4.1191,4.1191,4.1191,4.1191,4.1191,4.1191,4.1191,4.1191,4.1191,4.1191,4.1191,4.1191,4.1191,4.1753,4.298,4.2541,4.2884,4.4115,4.4115,4.4638,4.5785,4.8797,5.0882,2.6223,2.7211,2.8423,2.9292,2.9955,3.1677,3.6823,3.7613,3.7914,4.0263,4.0187,3.9358,3.8153,3.9483,4.0939,4.1491,4.469,4.7274,4.7817,4.8426,4.9003,4.9556,4.959,4.959,4.959,4.959,4.959,4.959,4.959,4.959,4.959,5.0293,5.087,5.1289,5.1975,5.2536,5.2895,5.2895,5.2895,5.2895,5.2895,5.2895,5.2895,5.2895,5.2895,5.2895,5.2895,5.2895,5.2895,5.2895,5.2895,5.2895,5.2895,5.2895,5.2895,5.2895,5.2895,5.2895,5.2895,5.2895,5.2895,5.2895,5.1565,4.9748,4.8361,4.6146,4.3813,4.2483,4.1676,4.1191,4.1191,4.1191,4.1191,4.1191,4.1191,4.1191,4.1191,4.1191,4.1191,4.1191,4.1191,4.1191,4.1191,4.1191,4.1191,4.1191,4.1191,4.1191,4.1191,4.1191,4.1191,4.1191,4.1191,4.1191,4.1191,4.1191,4.1191,4.1191,4.1191,4.1191,4.1191,4.1191,4.183,4.317,4.1888,4.1849,4.3189,4.3959,4.4852,4.5931,4.9975,5.2388,2.5619,2.5251,2.5536,2.822,2.9393,3.1311,3.6759,3.6759,3.7022,4.1984,4.1267,4.0074,4.1127,4.1314,4.1528,4.2123,4.497,4.7299,4.7817,4.8426,4.9003,4.9556,4.959,4.959,4.959,4.959,4.959,4.959,4.959,4.959,4.959,5.0686,5.1289,5.1289,5.2335,5.2895,5.2895,5.2895,5.2895,5.2895,5.2895,5.2895,5.2895,5.2895,5.2895,5.2895,5.2895,5.2895,5.2895,5.2895,5.2895,5.2895,5.2895,5.2895,5.2895,5.2895,5.2895,5.2895,5.2895,5.2895,5.2895,5.2878,5.159,4.9979,4.9943,4.7212,4.4115,4.4077,4.2694,4.1191,4.1191,4.1191,4.1191,4.1191,4.1191,4.1191,4.1191,4.1191,4.1191,4.1191,4.1191,4.1191,4.1191,4.1191,4.1191,4.1191,4.1191,4.1191,4.1191,4.1191,4.1191,4.1191,4.1191,4.1191,4.1191,4.1191,4.1191,4.1191,4.1191,4.1191,4.1191,4.1191,4.1191,4.1191,4.1191,4.1211,4.123,4.3737,4.5969,4.8021,5.1039,5.3509,2.6214,2.8391,3.0467,2.9729,3.2556,3.6006,3.7626,3.7952,3.8982,4.2785,4.3338,4.2772,4.1515,4.3234,4.4227,4.25,4.5286,4.7716,4.7883,4.8736,4.943,4.9565,4.959,4.959,4.959,4.959,4.959,4.959,4.959,4.959,4.959,5.0686,5.1289,5.1289,5.2335,5.2895,5.2895,5.2895,5.2895,5.2895,5.2895,5.2895,5.2895,5.2895,5.2895,5.2895,5.2895,5.2895,5.2895,5.2895,5.2895,5.2895,5.2895,5.2895,5.2895,5.2895,5.2895,5.2895,5.2895,5.2895,5.2663,5.1303,5.0463,4.948,4.6698,4.5033,4.3813,4.2465,4.1637,4.1191,4.1191,4.1191,4.1191,4.1191,4.1191,4.1191,4.1191,4.1191,4.1191,4.1191,4.1191,4.1191,4.1191,4.1191,4.1191,4.1191,4.1191,4.1191,4.1191,4.1191,4.1191,4.1191,4.1191,4.1191,4.1191,4.1191,4.1191,4.1191,4.1191,4.1191,4.1191,4.1191,4.1191,4.1191,4.1191,4.2047,4.3795,4.5961,4.8411,5.1118,5.3437,5.504,2.6893,2.8919,3.1004,3.1853,3.4901,3.814,3.9898,4.0589,4.1468,4.3664,4.4568,4.4629,4.3485,4.493,4.5824,4.4382,4.625,4.7983,4.8209,4.9012,4.959,4.959,4.959,4.959,4.959,4.959,4.959,4.959,4.959,4.959,4.959,5.0686,5.1289,5.1289,5.2335,5.2895,5.2895,5.2895,5.2895,5.2895,5.2895,5.2895,5.2895,5.2895,5.2895,5.2895,5.2895,5.2895,5.2895,5.2895,5.2895,5.2895,5.2895,5.2895,5.2895,5.2895,5.2895,5.2895,5.2895,5.2895,5.2577,5.0622,4.9997,4.926,4.5313,4.464,4.4846,4.2905,4.2924,4.3323,4.2541,4.235,4.2157,4.1386,4.1191,4.1191,4.1191,4.1191,4.1191,4.1191,4.1191,4.1191,4.1191,4.1191,4.1191,4.1191,4.1191,4.1191,4.1191,4.1191,4.1191,4.1191,4.1191,4.1191,4.1191,4.1191,4.1191,4.1191,4.1191,4.1191,4.1191,4.1191,4.1191,4.1191,4.2163,4.3427,4.4902,4.8134,5.0662,5.2506,5.4694,5.5892,2.7711,2.8197,2.9337,3.4391,3.6647,3.873,4.2861,4.384,4.4041,4.4579,4.5121,4.5663,4.6185,4.6286,4.6486,4.7023,4.7566,4.8109,4.8718,4.9254,4.959,4.959,4.959,4.959,4.959,4.959,4.959,4.959,4.959,4.9615,4.9665,5.0711,5.1314,5.1364,5.236,5.2895,5.2895,5.2895,5.2895,5.2895,5.2895,5.2895,5.2895,5.2895,5.2895,5.2895,5.2895,5.2895,5.2895,5.2895,5.2895,5.2895,5.2895,5.2895,5.2895,5.2895,5.2895,5.2895,5.2895,5.2895,5.2577,5.0622,4.9997,4.9278,4.5497,4.5611,4.6588,4.464,4.5388,4.6275,4.4341,4.3832,4.3397,4.1618,4.1191,4.1191,4.1191,4.1191,4.1191,4.1191,4.1191,4.1191,4.1191,4.1191,4.1191,4.1191,4.1191,4.1191,4.1191,4.1191,4.1191,4.1191,4.1191,4.1191,4.1191,4.1191,4.1191,4.1191,4.123,4.125,4.125,4.125,4.125,4.125,4.3702,4.5063,4.5316,5.0143,5.2628,5.2899,5.5157,5.62,2.9312,3.1884,3.4835,3.6445,3.8994,4.1582,4.3388,4.4127,4.4604,4.5196,4.5412,4.5663,4.6185,4.6286,4.6486,4.7023,4.7566,4.8109,4.8718,4.9254,4.959,4.959,4.959,4.959,4.959,4.959,4.959,4.959,4.959,4.9791,5.0201,5.0896,5.149,5.1925,5.2561,5.2895,5.2895,5.2895,5.2895,0.0,5.2895,5.2895,5.2895,5.2895,5.2895,5.2895,5.2895,5.2895,5.2895,5.2895,5.2895,5.2895,5.2895,5.2895,5.2895,5.2895,5.2895,5.2895,5.2895,5.2895,5.2577,5.0622,4.9997,4.9552,4.7102,4.6662,4.6588,4.464,4.4396,4.4285,4.233,4.1811,4.1714,4.1308,4.1191,4.1191,4.1191,4.1191,4.1191,4.1191,4.1191,4.1191,4.1191,4.1191,4.1191,4.1191,4.1191,4.1191,4.1191,4.1191,4.1191,4.1191,4.1191,4.1191,4.1191,4.1191,4.1191,4.1191,4.1504,4.166,4.166,4.166,4.166,4.166,4.4155,4.6412,4.836,5.1152,5.3506,5.5408,5.5942,5.62,2.9914,3.2261,3.4849,3.8291,4.069,4.2537,4.389,4.4403,4.4855,4.5698,4.5874,4.5974,4.6235,4.6512,4.6863,4.7415,4.7958,4.8526,4.9104,4.943,4.959,4.959,4.959,4.959,4.959,4.959,4.959,4.959,4.959,4.9841,5.0377,5.0971,5.1565,5.2076,5.2611,5.2895,5.2895,5.2895,5.2895,5.2895,5.2895,5.2895,5.2895,5.2895,5.2895,5.2895,5.2895,5.2895,5.2895,5.2895,5.2895,5.2895,5.2895,5.2895,5.2895,5.2895,5.2895,5.2895,5.2895,5.2895,5.2577,5.0622,5.0646,5.084,4.7908,4.8325,4.923,4.6293,4.6182,4.6256,4.3321,4.2598,4.2369,4.1405,4.1191,4.1191,4.1191,4.1191,4.1191,4.1191,4.1191,4.1191,4.1191,4.1191,4.1191,4.1191,4.1191,4.1191,4.1191,4.1191,4.1191,4.1191,4.1191,4.1191,4.1191,4.1367,4.1504,4.1504,4.1875,4.2089,4.2089,4.2305,4.2324,4.2089,4.4587,4.7016,4.9304,5.1652,5.397,5.62,5.62,5.62,2.9713,3.1597,3.3858,3.9922,4.1895,4.2738,4.4252,4.4589,4.4916,4.606,4.6286,4.6286,4.6286,4.6722,4.7274,4.7817,4.84,4.8994,4.9515,4.959,4.959,4.959,4.959,4.959,4.959,4.959,4.959,4.959,4.959,4.9866,5.0503,5.1021,5.159,5.2226,5.2661,5.2895,5.2895,5.2895,5.2895,5.2895,5.2895,5.2895,5.2895,5.2895,5.2895,5.2895,5.2895,5.2895,5.2895,5.2895,5.2895,5.2895,5.2895,5.2895,5.2895,5.2895,5.2895,5.2895,5.2895,5.2895,5.2629,5.1016,5.1583,5.2293,4.9009,5.0074,5.1642,4.8035,4.7963,4.8162,4.4548,4.3606,4.3189,4.1579,4.1191,4.1191,4.1191,4.1191,4.1191,4.1191,4.1191,4.1191,4.1191,4.1191,4.1191,4.1191,4.1191,4.1191,4.1191,4.1191,4.1191,4.1191,4.1191,4.123,4.1289,4.1601,4.1836,4.1894,4.2285,4.2519,4.2519,4.2949,4.3008,4.2636,4.5398,4.7714,4.9439,5.2259,5.4516,5.62,5.62,5.62,2.8364,3.2401,3.7336,4.113,4.2487,4.3176,4.4328,4.4589,4.4916,4.606,4.6286,4.6286,4.6286,4.6722,4.7274,4.7817,4.84,4.8994,4.9515,4.959,4.959,4.959,4.959,4.959,4.959,4.959,4.959,4.959,4.959,5.0067,5.1113,5.1264,5.1749,5.2744,5.2845,5.2895,5.2895,5.2895,5.2895,5.2895,5.2895,5.2895,5.2895,5.2895,5.2895,5.2895,5.2895,5.2895,5.2895,5.2895,5.2895,5.2895,5.2895,5.2895,5.2895,5.2895,5.2895,5.2895,5.2895,5.2895,5.2861,5.2594,5.268,5.2809,5.2258,5.1303,4.9908,4.7631,4.5979,4.4379,4.2157,4.1599,4.1521,4.1269,4.1191,4.1191,4.1191,4.1191,4.1191,4.1191,4.1191,4.1191,4.1191,4.1191,4.1191,4.1191,4.1191,4.1191,4.1191,4.1191,4.1191,4.1191,4.1191,4.1348,4.168,4.1758,4.1953,4.2304,4.2754,4.3008,4.3008,4.3398,4.3594,4.3535,4.7457,4.9624,4.9916,5.387,5.5937,5.62,5.62,5.62,2.9468,3.3721,3.8002,4.1369,4.2587,4.3277,4.4353,4.4589,4.4916,4.606,4.6286,4.6286,4.6286,4.6988,4.7616,4.7867,4.8661,4.933,4.9565,4.959,4.959,4.959,4.959,4.959,4.959,4.959,4.959,4.959,4.959,5.0108,5.1239,5.1289,5.1774,5.2887,5.2895,5.2895,5.2895,5.2895,5.2895,5.2895,5.2895,5.2895,5.2895,5.2895,5.2895,5.2895,5.2895,5.2895,5.2895,5.2895,5.2895,5.2895,5.2895,5.2895,5.2895,5.2895,5.2895,5.2895,5.2895,5.2895,5.2895,5.2895,5.2895,5.2895,5.2895,5.153,4.9587,4.7558,4.6385,4.5033,4.1985,4.2023,4.2541,4.1463,4.1191,4.1191,4.1191,4.1191,4.1191,4.1191,4.1191,4.1191,4.1191,4.1191,4.1191,4.1191,4.1191,4.1191,4.1191,4.1191,4.1289,4.1523,4.1543,4.1699,4.2089,4.2383,4.2598,4.2773,4.3203,4.3437,4.3437,4.3613,4.3711,4.3711,4.6666,4.8814,5.0028,5.3006,5.506,5.62,5.62,5.62,2.986,3.3194,3.6093,4.0314,4.1658,4.2372,4.4027,4.4489,4.488,4.5899,4.6225,4.6286,4.6286,4.7179,4.7908,4.7908,4.8862,4.959,4.959,4.959,4.959,4.959,4.959,4.959,4.959,4.959,4.959,4.959,4.959,5.0108,5.1239,5.1289,5.1774,5.2887,5.2895,5.2895,5.2895,5.2895,5.2895,5.2895,5.2895,5.2895,5.2895,5.2895,5.2895,5.2895,5.2895,5.2895,5.2895,5.2895,5.2895,5.2895,5.2895,5.2895,5.2895,5.2895,5.2895,5.2895,5.2895,5.2895,5.2895,5.2895,5.2895,5.2895,5.2895,5.153,4.9694,4.8199,4.7376,4.6223,4.2828,4.3018,4.3625,4.1657,4.1191,4.1191,4.1191,4.1191,4.1191,4.1191,4.1191,4.1191,4.1191,4.1191,4.1191,4.1191,4.1191,4.1191,4.1191,4.1289,4.1465,4.1758,4.1894,4.2109,4.2538,4.2911,4.3145,4.3243,4.3535,4.3711,4.3711,4.4206,4.4494,4.4494,4.7066,4.893,5.0028,5.2603,5.4664,5.62,5.62,5.62,2.7985,2.9198,3.0889,3.7436,3.9095,3.9936,4.3112,4.4227,4.478,4.5397,4.5949,4.6286,4.6286,4.7179,4.7908,4.7908,4.8862,4.959,4.959,4.959,4.959,4.959,4.959,4.959,4.959,4.959,4.959,4.959,4.959,5.0108,5.1239,5.1289,5.1774,5.2887,5.2895,5.2895,5.2895,5.2895,5.2895,5.2895,5.2895,5.2895,5.2895,5.2895,5.2895,5.2895,5.2895,5.2895,5.2895,5.2895,5.2895,5.2895,5.2895,5.2895,5.2895,5.2895,5.2895,5.2895,5.2895,5.2895,5.2895,5.2895,5.2895,5.2895,5.2895,5.153,4.9961,4.9872,4.847,4.6514,4.4471,4.4021,4.3625,4.1657,4.1191,4.1191,4.1191,4.1191,4.1191,4.1191,4.1191,4.1191,4.1191,4.1191,4.1191,4.1191,4.1191,4.1191,4.1191,4.1523,4.1777,4.1797,4.2128,4.2558,4.3028,4.3087,4.3263,4.3652,4.3691,4.3711,4.3711,4.5576,4.6666,4.6727,5.0704,5.1861,5.0006,5.4044,5.6084,5.62,5.62,5.62,2.7944,2.9183,3.0557,3.5077,3.755,3.9296,4.0815,4.2947,4.478,4.5386,4.5924,4.6286,4.6286,4.7179,4.7908,4.7908,4.8862,4.959,4.959,4.959,4.959,4.959,4.959,4.959,4.959,4.959,4.959,4.959,4.959,5.0108,5.1239,5.1289,5.1774,5.2887,5.2895,5.2895,5.2895,5.2895,5.2895,5.2895,5.2895,5.2895,5.2895,5.2895,5.2895,5.2895,5.2895,5.2895,5.2895,5.2895,5.2895,5.2895,5.2895,5.2895,5.2895,5.2895,5.2895,5.2895,5.2895,5.2895,5.2895,5.2895,5.2895,5.2895,5.2895,5.153,4.9997,4.9997,4.856,4.6551,4.4602,4.4115,4.3625,4.1657,4.1191,4.1191,4.1191,4.1191,4.1191,4.1191,4.1191,4.1191,4.1191,4.1191,4.1191,4.1191,4.1191,4.1289,4.1543,4.1699,4.2012,4.2579,4.2754,4.3008,4.3437,4.3476,4.3555,4.3691,4.3711,4.4329,4.5698,4.6465,4.7507,4.8853,5.167,5.2741,5.1995,5.4837,5.62,5.62,5.62,5.62,2.6865,2.7962,2.9176,3.2505,3.4726,3.6708,3.8931,4.1254,4.3374,4.4895,4.5648,4.61,4.6261,4.7039,4.7691,4.7867,4.8711,4.9405,4.9565,4.959,4.959,4.959,4.959,4.959,4.959,4.959,4.959,4.959,4.959,0.0,5.1239,5.1289,5.1774,5.2887,5.2895,5.2895,5.2895,5.2895,5.2895,5.2895,5.2895,5.2895,5.2895,5.2895,5.2895,5.2895,5.2895,5.2895,5.2895,5.2895,5.2895,5.2895,5.2895,5.2895,5.2895,5.2895,5.2895,5.2895,5.2895,5.2895,5.2895,5.2895,5.2895,5.2895,5.2895,5.199,5.0963,5.0963,4.9534,4.754,4.5571,4.4096,4.2789,4.1502,4.1191,4.1191,4.1191,4.1191,4.1191,4.1191,4.1191,4.1191,4.1191,4.1191,4.1191,4.1191,4.1308,4.1504,4.1758,4.2051,4.2461,4.3048,4.3223,4.3398,4.3691,4.3711,4.3711,4.3711,4.3711,4.4658,4.6787,4.7567,4.8912,5.0993,5.3081,5.4138,5.4138,5.5527,5.62,5.62,5.62,5.62,0.0,0.0,0.0,2.9669,3.0538,3.2003,3.7411,3.9107,4.0501,4.3776,4.4945,4.5587,4.62,4.6737,4.7249,4.7792,4.84,4.8978,4.949,4.959,4.959,4.959,4.959,4.959,4.959,4.959,4.959,4.959,4.959,5.0108,5.1239,5.1339,5.1825,5.2887,5.2895,5.2895,5.2895,5.2895,5.2895,5.2895,5.2895,5.2895,5.2895,5.2895,5.2895,5.2895,5.2895,5.2895,5.2895,5.2895,5.2895,5.2895,5.2895,5.2895,5.2895,5.2895,5.2895,5.2895,5.2895,5.2895,5.2895,5.2895,5.2895,5.2895,5.2895,5.2895,5.2895,5.2843,5.1408,4.9445,4.738,4.4079,4.1288,4.1288,4.1327,4.1386,4.1386,4.1327,4.1269,4.1211,4.1191,4.1191,4.1191,4.1191,4.1191,4.1211,4.1562,4.1816,4.1836,4.2579,4.3106,4.3126,4.3457,4.3711,4.3711,4.3711,4.3711,4.3711,4.3773,4.474,4.6806,4.8949,5.1051,5.3157,5.517,5.62,5.62,5.62,5.62,5.62,5.62,5.62,2.5335,0.0,0.0,0.0,0.0,0.0,3.2049,3.4564,3.7488,4.0437,4.1818,4.3234,4.5834,4.6411,4.6712,4.7224,4.8159,4.8843,4.9003,4.9355,4.959,4.959,4.959,4.959,4.959,4.959,4.959,0.0,4.959,5.0108,5.1239,5.2051,5.2586,5.2895,5.2895,5.2895,5.2895,5.2895,5.2895,5.2895,5.2895,5.2895,5.2895,5.2895,5.2895,5.2895,5.2895,5.2895,5.2895,5.2895,5.2895,5.2895,5.2895,5.2895,5.2895,5.2895,5.2895,5.2895,5.2895,5.2895,5.2895,5.2895,5.2895,5.2895,5.2895,5.2895,5.2611,5.1215,4.9373,4.7047,4.3663,4.3056,4.3302,4.3302,4.4379,4.5388,4.5388,4.4285,4.2884,4.1463,4.1191,4.1191,4.1191,4.1191,4.1289,4.1582,4.1719,4.2031,4.2657,4.295,4.3204,4.3496,4.3633,4.3711,4.3711,4.3711,4.3711,4.3711,4.5149,4.6947,4.9028,5.1128,5.3213,5.5306,5.5901,5.62,5.62,5.62,5.62,5.62,5.62,5.62,0.0,0.0,2.6508,2.6508,0.0,0.0,3.1376,3.3749,3.6698,4.0889,4.2445,4.3725,4.5884,4.6286,4.6411,4.6737,4.7516,4.8275,4.8727,4.9079,4.9355,4.9565,4.959,4.959,4.959,4.959,4.959,4.959,4.959,5.0108,5.1239,5.2084,5.2661,5.2895,5.2895,5.2895,5.2895,5.2895,5.2895,5.2895,5.2895,5.2895,5.2895,5.2895,5.2895,5.2895,5.2895,5.2895,5.2895,5.2895,5.2895,5.2895,5.2895,5.2895,5.2895,5.2895,5.2895,5.2895,5.2895,5.2895,5.2895,5.2895,5.2895,5.2895,5.2895,5.2895,5.2491,5.0534,4.856,4.6481,4.4212,4.4454,4.5313,4.5313,4.6164,4.6992,4.6992,4.6109,4.4734,4.279,4.1734,4.1191,4.1191,4.1191,4.1328,4.1738,4.1953,4.2305,4.3008,4.3243,4.3437,4.3672,4.3711,4.3711,4.3711,4.4494,4.4986,4.4986,4.7007,4.9128,5.1228,5.2452,5.4063,5.6164,5.62,5.62,5.62,5.62,5.62,5.62,5.62,5.62,0.0,0.0,0.0,0.0,2.6508,0.0,3.253,3.4065,3.6096,4.1779,4.3489,4.4192,4.5045,4.5196,4.5206,4.5196,4.5909,4.6963,4.84,4.8652,4.8903,4.9455,4.9515,4.9515,4.959,4.959,4.959,4.959,4.9665,5.0117,5.1163,5.1774,5.231,5.2812,5.2887,5.2895,5.2895,5.2895,5.2895,5.2895,5.2895,5.2895,5.2895,5.2895,5.2895,5.2895,5.2895,5.2895,5.2895,5.2895,5.2895,5.2895,5.2895,5.2895,5.2895,5.2895,5.2895,5.2895,5.2895,5.2895,5.2895,5.2895,5.2895,5.2895,5.2895,5.2895,5.2491,5.0534,4.856,4.6992,4.6992,4.7157,4.7321,4.7321,4.7485,4.7649,4.7649,4.7485,4.6754,4.479,4.2846,4.1443,4.125,4.1444,4.1757,4.2171,4.2764,4.3259,4.3492,4.3826,4.3959,4.3712,4.3711,4.3774,4.4021,4.5738,4.6907,4.7147,4.9146,5.119,5.3025,5.3307,5.4311,5.6164,5.62,5.62,5.62,5.62,5.62,5.62,5.62,5.62,0.0,0.0,0.0,0.0,0.0,0.0,2.6707,2.7519,2.9095,3.2074,3.3481,3.5013,3.7813,3.8316,3.8341,3.8341,4.0638,4.3611,4.6963,4.7792,4.8284,4.8878,4.8953,4.9129,4.9565,4.959,4.959,4.959,5.0017,5.0327,5.0553,5.1532,5.2151,5.2234,5.2686,5.2895,5.2895,5.2895,5.2895,5.2895,5.2895,5.2895,5.2895,5.2895,5.2895,5.2895,5.2895,5.2895,5.2895,5.2895,5.2895,5.2895,5.2895,5.2895,5.2895,5.2895,5.2895,5.2895,5.2895,5.2895,5.2895,5.2895,5.2895,5.2895,5.2895,5.2895,5.2491,5.0534,4.856,4.6992,4.6992,4.8217,4.9427,4.9427,5.0611,5.1747,5.1747,5.0516,4.883,4.6809,4.4865,4.3037,4.1463,4.2863,4.4329,4.4787,4.6609,4.751,4.6318,4.6182,4.5555,4.3877,4.3711,4.4371,4.6062,4.6565,4.7545,4.9263,5.1344,5.2684,5.3081,5.4702,5.5791,5.62,5.62,5.62,5.62,5.62,5.62,5.62,5.62,5.62,0.0,0.0,0.0,2.6508,0.0,0.0,0.0,2.8138,2.9312,3.2079,3.3294,3.4407,3.6091,3.6395,3.6408,3.6395,3.9157,4.1403,4.1731,4.5081,4.7716,4.8284,4.8626,4.8919,4.9179,4.9455,4.959,4.959,4.9841,5.0101,5.0377,5.1222,5.1825,5.2101,5.2611,5.2895,5.2895,5.2895,5.2895,5.2895,5.2895,5.2895,5.2895,5.2895,5.2895,5.2895,5.2895,5.2895,5.2895,5.2895,5.2895,5.2895,5.2895,5.2895,5.2895,5.2895,5.2895,5.2895,5.2895,5.2895,5.2895,5.2895,5.2895,5.2895,5.2895,5.2223,5.1443,5.1443,5.0014,4.8722,4.9677,5.0699,5.1443,5.1443,5.2189,5.2895,5.2895,5.2137,5.0857,4.8866,4.7704,4.5816,4.1869,4.3272,4.507,4.5514,4.7706,4.9079,4.8512,4.7466,4.6404,4.5373,4.5271,4.5718,4.6706,4.8733,5.0394,5.1497,5.3519,5.4646,5.4646,5.5637,5.62,5.62,5.62,5.62,5.62,5.62,5.62,5.62,5.62,5.62,0.0,0.0,0.0,0.0,0.0,2.6414,0.0,0.0,0.0,3.3061,3.4073,3.4483,3.4483,3.4486,3.4424,3.4187,3.7112,3.8404,3.5527,4.0852,4.5231,4.5773,4.7396,4.825,4.7738,4.8074,4.8661,4.9556,4.8928,4.9012,5.0176,5.0795,5.1389,5.1925,5.246,5.2812,5.2895,5.2895,5.2895,5.2895,5.2895,5.2895,5.2895,5.2895,5.2895,5.2895,5.2895,5.2895,5.2895,5.2895,5.2895,5.2895,5.2895,5.2895,5.2895,5.2895,5.2895,5.2895,5.2895,5.2895,5.2895,5.2895,5.2895,5.2895,5.2895,5.1799,5.0893,5.2473,5.1764,5.091,5.2491,5.2895,5.2895,5.2895,5.2895,5.2895,5.2895,5.2895,5.231,5.0375,4.9997,4.8361,4.3189,4.4463,4.6322,4.6711,4.8962,5.0613,5.0601,4.9087,4.7864,4.7446,4.7467,4.7646,4.7983,5.1148,5.327,5.3688,5.5287,5.62,5.62,5.62,5.62,5.62,5.62,5.62,5.62,5.62,5.62,5.62,5.62,5.62,0.0,0.0,0.0,0.0,2.6063,0.0,0.0,0.0,2.6918,2.6775,0.0,2.763,2.763,0.0,0.0,2.6272,2.9719,3.2064,3.0743,3.4622,3.7813,3.8354,4.3675,4.6336,4.3894,4.3704,4.5386,4.9289,4.6401,4.5999,4.949,5.0218,5.077,5.1364,5.19,5.241,5.2912,5.2895,5.2895,5.2895,5.2895,5.2895,5.2895,5.2895,5.2895,5.2895,5.2895,5.2895,5.2895,5.2895,5.2895,5.2895,5.2895,5.2895,5.2895,5.2895,5.2895,5.2895,5.2895,5.2895,5.2895,5.2895,5.2895,5.2895,5.2895,5.2757,5.2611,5.2843,5.2732,5.2611,5.2843,5.2895,5.2895,5.2895,5.2895,5.2895,5.2895,5.2895,5.231,5.0375,4.9997,4.923,4.6754,4.885,5.0849,5.0919,5.3484,5.4782,5.2987,5.2528,5.1689,4.983,4.9635,5.0375,5.2223,5.2812,5.3895,5.5711,5.6066,5.62,5.62,5.62,5.62,5.62,5.62,5.62,5.62,5.62,5.62,5.62,5.62,5.62,0.0,0.0,0.0,0.0,0.0,0.0,2.6247,0.0,2.6013,0.0,0.0,0.0,0.0,0.0,0.0,0.0,2.8935,3.0577,2.8225,3.2799,3.6468,3.6708,3.9484,0.0,4.3327,4.3176,4.4834,4.928,4.5999,4.5497,4.9389,5.0101,5.0695,5.1289,5.1825,5.236,5.2895,5.2895,5.2895,5.2895,5.2895,5.2895,5.2895,5.2895,5.2895,5.2895,5.2895,5.2895,5.2895,5.2895,5.2895,5.2895,5.2895,5.2895,5.2895,5.2895,5.2895,5.2895,5.2895,5.2895,5.2895,5.2895,5.2895,5.2895,5.2895,5.2895,5.2895,5.2895,5.2895,5.2895,5.2895,5.2895,5.2895,5.2895,5.2895,5.2895,5.2895,5.2895,5.2646,5.1834,5.1694,5.1408,5.0576,5.1076,5.1604,5.1604,5.4218,5.5882,5.5004,5.3857,5.2779,5.1899,5.1804,5.2147,5.3025,5.4218,5.5287,5.6146,5.62,5.62,5.62,5.62,5.62,5.62,5.62,5.62,5.62,5.62,5.62,5.62,5.62,5.62,2.8803,0.0,0.0,0.0,0.0,0.0,0.0,0.0,0.0,0.0,0.0,0.0,0.0,0.0,0.0,0.0,0.0,2.912,2.6415,3.0436,3.369,3.369,3.4835,0.0,0.0,4.0664,4.2096,4.7597,0.0,4.4367,4.9339,4.9967,5.0444,5.1021,5.1599,5.2151,5.2686,5.2837,5.2895,5.2895,5.2895,5.2895,5.2895,5.2895,5.2895,5.2895,5.2895,5.2895,5.2895,5.2895,5.2895,5.2895,5.2895,5.2895,5.2895,5.2895,5.2895,5.2895,5.2895,5.2895,5.2895,5.2895,5.2895,5.2895,5.2895,5.2895,5.2895,5.2895,5.2895,5.2895,5.2895,5.2895,5.2895,5.2895,5.2895,5.2895,5.2895,5.2895,5.2895,5.2895,5.2895,5.2895,5.2895,5.2632,5.2411,5.2411,5.4571,5.62,5.62,5.4893,5.3951,5.3951,5.3951,5.3951,5.3951,5.5343,5.62,5.62,5.62,5.62,5.62,5.62,5.62,5.62,5.62,5.62,5.62,5.62,5.62,5.62,5.62,5.62,0.0,0.0,0.0,2.7454,0.0,0.0,0.0,0.0,2.711,0.0,0.0,0.0,0.0,0.0,0.0,0.0,0.0,0.0,0.0,2.5979,2.6835,2.6835,2.9648,3.3129,0.0,3.3983,3.5164,0.0,4.0387,0.0,4.9188,4.9615,4.9866,5.0402,5.0996,5.159,5.2126,5.2636,5.2895,5.2895,5.2895,5.2895,5.2895,5.2895,5.2895,5.2895,5.2895,5.2895,5.2895,5.2895,5.2895,5.2895,5.2895,5.2895,5.2895,5.2895,5.2895,5.2895,5.2895,5.2895,5.2895,5.2895,5.2895,5.2895,5.2895,5.2895,5.2895,5.2895,5.2895,5.2895,5.2895,5.2895,5.2895,5.2895,5.2895,5.2895,5.2895,5.2895,5.2895,5.2895,5.2895,5.2895,5.2895,5.3798,5.4508,5.4508,5.5454,5.62,5.62,5.6146,5.6084,5.6084,5.6084,5.6084,5.6084,5.6164,5.62,5.62,5.62,5.62,5.62,5.62,5.62,5.62,5.62,5.62,5.62,5.62,5.62,5.62,5.62,5.62,0.0,0.0,3.6936,3.1602,0.0,0.0,0.0,0.0,0.0,0.0,0.0,0.0,0.0,0.0,0.0,0.0,0.0,0.0,0.0,2.6273,2.6508,2.6508,2.9396,3.2049,3.3721,0.0,0.0,4.3363,4.2585,0.0,0.0,4.959,4.9841,5.0377,5.0987,5.1565,5.2101,5.2636,5.2895,5.2895,5.2895,5.2895,5.2895,5.2895,5.2895,5.2895,5.2895,5.2895,5.2895,5.2895,5.2895,5.2895,5.2895,5.2895,5.2895,5.2895,5.2895,5.2895,5.2895,5.2895,5.2895,5.2895,5.2895,5.2895,5.2895,5.2895,5.2895,5.2895,5.2895,5.2895,5.2895,5.2895,5.2895,5.2895,5.2895,5.2895,5.2895,5.2895,5.2895,5.2895,5.2895,5.2995,5.3364,5.4077,5.4597,5.4597,5.5491,5.62,5.62,5.62,5.62,5.62,5.62,5.62,5.62,5.62,5.62,5.62,5.62,5.62,5.62,5.62,5.62,5.62,5.62,5.62,5.62,5.62,5.62,5.62,5.62,5.62,3.8404,3.9822,0.0,3.5253,3.534,0.0,2.9974,0.0,0.0,0.0,0.0,0.0,0.0,0.0,0.0,0.0,0.0,0.0,0.0,2.6508,2.6508,2.6508,2.8376,3.0251,3.1763,3.2627,3.5415,4.1028,4.1455,4.3237,0.0,0.0,4.9766,5.0101,5.067,5.1247,5.18,5.2335,5.2711,5.2895,5.2895,5.2895,5.2895,5.2895,5.2895,5.2895,5.2895,5.2895,5.2895,5.2895,5.2895,5.2895,5.2895,5.2895,5.2895,5.2895,5.2895,5.2895,5.2895,5.2895,5.2895,5.2895,5.2895,5.2895,5.2895,5.2895,5.3046,5.3849,5.3515,5.3088,5.3866,5.3472,5.2895,5.2895,5.2895,5.2895,5.2895,5.2895,5.2895,5.2895,5.2895,5.3063,5.3607,5.4202,5.4672,5.4873,5.5659,5.62,5.62,5.62,5.62,5.62,5.62,5.62,5.62,5.62,5.62,5.62,5.62,5.62,5.62,5.62,5.6394,5.6796,5.642,5.642,5.6821,5.642,5.62,5.62,5.62,5.62]},{"header":{"parameterUnit":"m.s-1","parameterCategory":1,"la1":30.6,"la2":29.2853,"lo1":-89.7004,"lo2":-87.6739,"dy":0.0162,"dx":0.0183,"nx":112,"ny":82,"refTime":"2023-04-06T06:00:00:Z","depth":0,"parameterNumber":3,"parameterNumberName":"V-component_of_WINDS"},"data":[0.0,0.0,0.0,0.0,0.0,0.0,0.0,0.0,0.0,0.0,0.0,0.0,0.0,0.0,0.0,0.0,0.0,0.0,0.0,0.0,0.0,0.0,0.0,0.0,0.0,0.0,0.0,0.0,0.0,0.0,0.0,0.0,0.0,0.0,0.0,0.0,0.0,0.0,0.0,0.0,0.0,0.0,0.0,0.0,0.0,0.0,0.0,0.0,0.0,0.0,0.0,0.0,0.0,0.0,0.0,0.0,0.0,0.0,0.0,0.0,0.0,0.0,0.0,0.0,0.0,0.0,0.0,0.0,0.0,0.0,0.0,0.0,0.0,0.0,0.0,0.0,0.0,0.0,0.0,0.0,0.0,0.0,0.0,0.0,0.0,0.0,0.0,0.0,0.0,0.0,4.7309,4.7309,4.7309,4.7309,4.7309,4.7309,4.7309,4.7309,0.0,0.0,0.0,0.0,0.0,0.0,0.0,0.0,0.0,0.0,0.0,0.0,0.0,0.0,0.0,0.0,0.0,0.0,0.0,0.0,0.0,0.0,0.0,0.0,0.0,0.0,0.0,0.0,0.0,0.0,0.0,0.0,0.0,0.0,0.0,0.0,0.0,0.0,0.0,0.0,0.0,0.0,0.0,0.0,0.0,0.0,0.0,0.0,0.0,0.0,0.0,0.0,0.0,0.0,0.0,0.0,0.0,0.0,0.0,0.0,0.0,0.0,0.0,0.0,0.0,0.0,0.0,0.0,0.0,0.0,0.0,0.0,0.0,0.0,0.0,0.0,0.0,0.0,0.0,0.0,0.0,0.0,0.0,0.0,0.0,0.0,0.0,0.0,0.0,0.0,0.0,0.0,0.0,0.0,0.0,0.0,0.0,0.0,0.0,0.0,0.0,0.0,0.0,0.0,4.7309,4.7309,4.7309,4.7309,4.7309,4.7309,4.7309,4.7309,0.0,0.0,0.0,0.0,0.0,0.0,0.0,0.0,0.0,0.0,0.0,0.0,0.0,0.0,0.0,0.0,0.0,0.0,0.0,0.0,0.0,0.0,0.0,0.0,0.0,0.0,0.0,0.0,0.0,0.0,0.0,0.0,0.0,0.0,0.0,0.0,0.0,0.0,0.0,0.0,0.0,0.0,0.0,0.0,0.0,0.0,0.0,0.0,0.0,0.0,0.0,0.0,0.0,0.0,0.0,0.0,0.0,0.0,0.0,0.0,0.0,0.0,0.0,0.0,0.0,0.0,0.0,0.0,0.0,0.0,0.0,0.0,0.0,0.0,0.0,0.0,0.0,0.0,0.0,0.0,0.0,0.0,0.0,0.0,0.0,0.0,0.0,0.0,0.0,0.0,0.0,0.0,0.0,0.0,0.0,0.0,0.0,0.0,0.0,0.0,0.0,0.0,0.0,4.7309,4.7309,4.7309,4.7309,4.7309,4.7309,4.7309,4.7309,4.7309,4.7309,0.0,0.0,0.0,0.0,0.0,0.0,0.0,0.0,0.0,0.0,0.0,0.0,0.0,0.0,0.0,0.0,0.0,0.0,0.0,0.0,0.0,0.0,0.0,0.0,0.0,0.0,0.0,0.0,0.0,0.0,0.0,0.0,0.0,0.0,0.0,0.0,0.0,0.0,0.0,0.0,0.0,0.0,0.0,0.0,0.0,0.0,0.0,0.0,0.0,0.0,0.0,0.0,0.0,0.0,0.0,0.0,0.0,0.0,0.0,0.0,0.0,0.0,0.0,0.0,0.0,0.0,0.0,0.0,0.0,0.0,0.0,0.0,0.0,0.0,0.0,0.0,0.0,0.0,0.0,0.0,0.0,0.0,0.0,0.0,0.0,0.0,0.0,0.0,0.0,0.0,0.0,0.0,0.0,0.0,0.0,0.0,0.0,0.0,0.0,0.0,0.0,0.0,4.7309,4.7309,4.7309,4.7309,4.7309,4.7309,4.7309,4.7309,4.7309,4.7309,0.0,0.0,0.0,0.0,0.0,0.0,0.0,0.0,0.0,0.0,0.0,0.0,0.0,0.0,0.0,0.0,0.0,0.0,0.0,0.0,0.0,0.0,0.0,0.0,0.0,0.0,0.0,0.0,0.0,0.0,0.0,0.0,0.0,0.0,0.0,0.0,0.0,0.0,0.0,0.0,0.0,0.0,0.0,0.0,0.0,0.0,0.0,0.0,0.0,0.0,0.0,0.0,0.0,0.0,0.0,0.0,0.0,0.0,0.0,0.0,0.0,0.0,0.0,0.0,0.0,0.0,0.0,0.0,0.0,0.0,0.0,0.0,0.0,0.0,0.0,0.0,0.0,0.0,0.0,0.0,0.0,0.0,0.0,0.0,0.0,0.0,0.0,0.0,0.0,0.0,0.0,0.0,0.0,0.0,0.0,0.0,0.0,0.0,0.0,0.0,0.0,0.0,4.7309,4.7309,4.7309,4.7309,4.7309,4.7309,4.7309,4.7309,4.7309,4.7309,0.0,0.0,0.0,0.0,0.0,0.0,0.0,0.0,0.0,0.0,0.0,0.0,0.0,0.0,0.0,0.0,0.0,0.0,0.0,0.0,0.0,0.0,0.0,0.0,0.0,0.0,0.0,0.0,0.0,0.0,0.0,0.0,0.0,0.0,0.0,0.0,0.0,0.0,0.0,0.0,0.0,0.0,0.0,0.0,0.0,0.0,0.0,0.0,0.0,0.0,0.0,0.0,0.0,0.0,0.0,0.0,0.0,0.0,0.0,0.0,0.0,0.0,0.0,0.0,0.0,0.0,0.0,0.0,0.0,0.0,0.0,0.0,0.0,0.0,0.0,0.0,0.0,0.0,0.0,0.0,0.0,0.0,0.0,0.0,0.0,0.0,0.0,0.0,0.0,0.0,0.0,0.0,0.0,0.0,0.0,0.0,0.0,0.0,0.0,0.0,0.0,0.0,4.7309,4.7309,0.0,4.7309,4.7309,4.7309,4.7309,4.7309,4.7309,0.0,0.0,0.0,0.0,0.0,0.0,0.0,0.0,0.0,0.0,0.0,0.0,0.0,0.0,0.0,0.0,0.0,0.0,0.0,0.0,0.0,0.0,0.0,0.0,0.0,0.0,0.0,0.0,0.0,0.0,0.0,0.0,0.0,0.0,0.0,0.0,0.0,0.0,0.0,0.0,0.0,0.0,0.0,0.0,0.0,0.0,0.0,0.0,0.0,0.0,0.0,0.0,0.0,0.0,0.0,0.0,0.0,0.0,0.0,0.0,0.0,0.0,0.0,0.0,0.0,0.0,0.0,0.0,0.0,0.0,0.0,0.0,0.0,0.0,0.0,0.0,0.0,0.0,0.0,0.0,0.0,0.0,0.0,0.0,0.0,0.0,0.0,0.0,0.0,0.0,0.0,0.0,0.0,0.0,0.0,0.0,0.0,0.0,0.0,0.0,0.0,0.0,4.7309,4.7309,4.7388,0.0,4.7608,4.7698,4.7919,4.7938,4.7938,4.7938,0.0,0.0,0.0,0.0,0.0,0.0,0.0,0.0,0.0,0.0,0.0,0.0,0.0,0.0,0.0,0.0,0.0,0.0,0.0,0.0,0.0,0.0,0.0,0.0,0.0,0.0,0.0,0.0,0.0,0.0,0.0,0.0,0.0,0.0,0.0,0.0,0.0,0.0,0.0,0.0,0.0,0.0,0.0,0.0,0.0,0.0,0.0,0.0,0.0,0.0,0.0,0.0,0.0,0.0,0.0,0.0,0.0,0.0,0.0,0.0,0.0,0.0,0.0,0.0,0.0,0.0,0.0,0.0,0.0,0.0,0.0,0.0,0.0,0.0,0.0,0.0,0.0,0.0,0.0,0.0,0.0,0.0,0.0,0.0,0.0,0.0,0.0,0.0,0.0,0.0,0.0,0.0,0.0,0.0,0.0,0.0,0.0,0.0,0.0,0.0,0.0,0.0,4.7328,4.7328,4.7578,4.8248,4.8308,4.8588,4.9228,4.9288,4.9288,0.0,0.0,0.0,0.0,0.0,0.0,0.0,0.0,0.0,0.0,0.0,0.0,0.0,0.0,0.0,0.0,0.0,0.0,0.0,0.0,0.0,0.0,0.0,0.0,0.0,0.0,0.0,0.0,0.0,0.0,0.0,0.0,0.0,0.0,0.0,0.0,0.0,0.0,0.0,0.0,0.0,0.0,0.0,0.0,0.0,0.0,0.0,0.0,0.0,0.0,0.0,0.0,0.0,0.0,0.0,0.0,0.0,0.0,0.0,0.0,0.0,0.0,0.0,0.0,0.0,0.0,0.0,0.0,0.0,0.0,0.0,0.0,0.0,0.0,0.0,0.0,0.0,0.0,0.0,0.0,0.0,0.0,0.0,0.0,0.0,0.0,0.0,0.0,0.0,0.0,0.0,0.0,0.0,0.0,0.0,0.0,0.0,0.0,0.0,0.0,0.0,0.0,0.0,4.8648,4.8708,4.8798,4.8977,4.9018,4.9108,4.9288,4.9288,4.9288,4.9288,0.0,0.0,0.0,0.0,0.0,0.0,0.0,0.0,0.0,0.0,0.0,0.0,0.0,0.0,0.0,0.0,0.0,0.0,0.0,0.0,0.0,0.0,0.0,0.0,0.0,0.0,0.0,0.0,0.0,0.0,0.0,0.0,0.0,0.0,0.0,0.0,0.0,0.0,0.0,0.0,0.0,0.0,0.0,0.0,0.0,0.0,0.0,0.0,0.0,0.0,0.0,0.0,0.0,0.0,0.0,0.0,0.0,0.0,0.0,0.0,0.0,0.0,0.0,0.0,0.0,0.0,0.0,0.0,0.0,0.0,0.0,0.0,0.0,0.0,0.0,0.0,0.0,0.0,0.0,0.0,0.0,0.0,0.0,0.0,0.0,0.0,0.0,0.0,0.0,0.0,0.0,0.0,0.0,0.0,0.0,0.0,0.0,0.0,0.0,0.0,0.0,0.0,4.9258,4.9288,4.9396,4.9625,4.9643,4.9774,5.0044,5.0074,5.0074,5.0074,0.0,0.0,0.0,0.0,0.0,0.0,0.0,0.0,0.0,0.0,0.0,0.0,0.0,0.0,0.0,0.0,0.0,0.0,0.0,0.0,0.0,0.0,0.0,0.0,0.0,0.0,0.0,0.0,0.0,0.0,0.0,0.0,0.0,0.0,0.0,0.0,0.0,0.0,0.0,0.0,0.0,0.0,0.0,0.0,0.0,0.0,0.0,0.0,0.0,0.0,0.0,0.0,0.0,0.0,0.0,0.0,0.0,0.0,0.0,0.0,0.0,0.0,0.0,0.0,0.0,0.0,0.0,0.0,0.0,0.0,0.0,0.0,0.0,0.0,0.0,0.0,0.0,0.0,0.0,0.0,0.0,0.0,0.0,0.0,0.0,0.0,0.0,0.0,0.0,0.0,0.0,0.0,0.0,0.0,0.0,0.0,0.0,0.0,0.0,0.0,0.0,0.0,4.9468,4.9498,4.9684,5.0237,5.0297,5.0536,5.1146,5.1206,5.1206,5.1206,0.0,0.0,0.0,0.0,0.0,0.0,0.0,0.0,0.0,0.0,0.0,0.0,0.0,0.0,0.0,0.0,0.0,0.0,0.0,0.0,0.0,0.0,0.0,0.0,0.0,0.0,0.0,0.0,0.0,0.0,0.0,0.0,0.0,0.0,0.0,0.0,0.0,0.0,0.0,0.0,0.0,0.0,0.0,0.0,0.0,0.0,0.0,0.0,0.0,0.0,0.0,0.0,0.0,0.0,0.0,0.0,0.0,0.0,0.0,0.0,3.4771,0.0,0.0,0.0,0.0,0.0,0.0,0.0,0.0,0.0,0.0,0.0,0.0,0.0,0.0,0.0,0.0,0.0,0.0,0.0,0.0,0.0,0.0,0.0,0.0,0.0,0.0,0.0,0.0,0.0,0.0,0.0,0.0,0.0,0.0,0.0,0.0,0.0,0.0,0.0,0.0,0.0,5.0739,5.0799,5.0828,5.0966,5.0996,5.1056,5.1176,5.1206,5.1206,5.1206,5.1206,0.0,0.0,0.0,0.0,0.0,0.0,0.0,0.0,0.0,0.0,0.0,0.0,0.0,0.0,0.0,0.0,0.0,0.0,0.0,0.0,0.0,0.0,0.0,0.0,0.0,0.0,0.0,0.0,0.0,0.0,0.0,0.0,0.0,0.0,0.0,0.0,0.0,0.0,0.0,0.0,0.0,0.0,0.0,0.0,0.0,0.0,0.0,0.0,0.0,0.0,0.0,0.0,0.0,0.0,0.0,0.0,0.0,0.0,0.0,0.0,3.6036,0.0,0.0,0.0,0.0,0.0,0.0,0.0,0.0,0.0,0.0,0.0,0.0,0.0,0.0,0.0,0.0,0.0,0.0,0.0,0.0,0.0,0.0,0.0,0.0,0.0,0.0,0.0,0.0,0.0,0.0,0.0,0.0,0.0,0.0,0.0,0.0,0.0,0.0,0.0,0.0,5.1158,5.1206,5.1206,5.1206,5.1206,5.1206,5.1206,5.1206,5.1206,5.1206,5.1206,0.0,0.0,0.0,0.0,0.0,0.0,0.0,0.0,0.0,0.0,0.0,0.0,0.0,0.0,0.0,0.0,0.0,0.0,0.0,0.0,0.0,0.0,0.0,0.0,0.0,0.0,0.0,0.0,0.0,0.0,0.0,0.0,0.0,0.0,0.0,0.0,0.0,0.0,0.0,0.0,0.0,0.0,0.0,0.0,0.0,0.0,0.0,0.0,0.0,0.0,0.0,0.0,0.0,4.1583,4.1723,4.1753,4.2202,4.1833,4.0827,4.1962,3.9727,3.5446,3.6477,0.0,0.0,0.0,0.0,0.0,0.0,0.0,0.0,0.0,0.0,0.0,0.0,0.0,0.0,0.0,0.0,0.0,0.0,0.0,0.0,0.0,0.0,0.0,0.0,4.9636,4.9636,0.0,0.0,0.0,0.0,0.0,0.0,0.0,0.0,0.0,0.0,0.0,0.0,5.1206,5.1206,5.1206,5.1206,5.1206,5.1206,5.1206,5.1206,5.1206,5.1206,5.1206,5.1206,0.0,0.0,0.0,0.0,0.0,0.0,0.0,0.0,0.0,0.0,0.0,0.0,0.0,0.0,0.0,0.0,0.0,0.0,0.0,0.0,0.0,0.0,0.0,0.0,0.0,0.0,0.0,0.0,0.0,0.0,0.0,0.0,3.8871,3.7216,0.0,0.0,0.0,0.0,0.0,0.0,0.0,0.0,0.0,0.0,0.0,0.0,0.0,4.0954,4.0855,4.0645,4.0516,4.0546,4.2292,4.312,4.313,4.5443,4.6441,4.6281,4.6441,0.0,3.8563,3.5946,0.0,0.0,0.0,0.0,0.0,0.0,0.0,0.0,0.0,0.0,0.0,0.0,0.0,0.0,0.0,0.0,0.0,0.0,0.0,0.0,0.0,0.0,4.0735,4.9004,5.0948,5.0948,0.0,5.0488,5.0249,5.0828,0.0,0.0,0.0,0.0,0.0,0.0,0.0,0.0,5.1206,5.1206,5.1206,5.1206,5.1206,5.1206,5.1206,5.1206,5.1206,5.1206,5.1206,5.1206,5.1206,5.1206,0.0,0.0,0.0,0.0,0.0,0.0,0.0,0.0,0.0,0.0,0.0,0.0,0.0,0.0,0.0,0.0,0.0,0.0,0.0,0.0,0.0,0.0,0.0,0.0,0.0,0.0,0.0,0.0,0.0,3.6926,3.7593,3.5946,3.6985,3.7255,0.0,0.0,0.0,0.0,0.0,0.0,0.0,0.0,0.0,3.911,4.1654,4.2851,4.2482,4.3678,4.4287,4.4287,4.5155,4.5574,4.5583,4.676,4.7309,4.7309,4.7309,4.5982,4.3619,4.0705,3.888,3.7823,0.0,0.0,0.0,0.0,3.6297,3.6545,3.5887,3.5677,0.0,0.0,0.0,0.0,0.0,0.0,0.0,0.0,0.0,0.0,0.0,0.0,0.0,4.9871,5.1206,5.1206,5.1206,5.0966,5.0847,0.0,5.1206,5.1206,5.1206,0.0,0.0,0.0,0.0,5.1206,5.1206,5.1206,5.1206,5.1206,5.1206,5.1206,5.1206,5.1206,5.1206,5.1206,5.1206,5.1206,5.1206,5.1206,5.1206,0.0,0.0,0.0,0.0,0.0,0.0,0.0,0.0,0.0,0.0,0.0,0.0,0.0,0.0,0.0,0.0,0.0,0.0,0.0,0.0,0.0,0.0,0.0,0.0,0.0,0.0,0.0,0.0,3.7015,3.7742,3.5745,3.7084,3.7793,0.0,0.0,0.0,0.0,0.0,0.0,3.8174,4.0696,4.1833,4.1165,4.3708,4.4835,4.4316,4.6311,4.7309,4.7309,4.7309,4.7309,4.7309,4.7309,4.7399,4.7549,4.7549,4.7638,4.7578,4.4616,4.2013,3.9888,3.9729,4.0068,4.0645,4.0457,4.0705,4.1035,4.0367,4.0148,4.0178,4.0328,0.0,4.0765,4.1254,0.0,0.0,0.0,0.0,3.7524,4.0816,4.3828,4.6909,5.0368,5.1206,5.1206,5.1206,5.1325,5.1397,0.0,5.1206,5.1206,5.1206,0.0,0.0,0.0,0.0,5.1696,5.1696,5.1696,5.1696,5.1696,5.1696,5.1696,5.1696,5.1696,5.1696,5.1696,5.1696,5.1696,5.1696,5.1696,5.1696,5.1696,0.0,0.0,0.0,0.0,0.0,0.0,0.0,0.0,0.0,0.0,0.0,0.0,0.0,0.0,0.0,0.0,0.0,0.0,0.0,0.0,0.0,0.0,0.0,0.0,0.0,0.0,0.0,0.0,0.0,3.867,3.9409,0.0,0.0,0.0,0.0,4.0864,4.1134,4.0915,4.0277,4.2721,4.3848,4.318,4.5743,4.7119,4.71,4.7249,4.7309,4.7309,4.7309,4.7309,4.7309,4.7309,4.7638,4.8248,4.8248,4.8618,4.8887,4.4935,4.3569,4.3768,4.1324,4.0765,4.1283,4.0636,4.0427,4.0337,3.969,3.9451,3.955,4.0187,4.0825,4.1343,4.1403,4.1254,0.0,0.0,4.0008,4.0905,4.4197,4.5185,4.6352,5.026,5.1206,5.1206,5.1206,5.1696,5.1977,0.0,5.1206,5.1206,5.1206,0.0,5.2157,5.2157,5.2677,5.3097,5.3097,5.3097,5.3097,5.3097,5.3097,5.3097,5.3097,5.3097,5.3097,5.3097,5.3097,5.3097,5.3097,5.3097,5.3097,5.3097,5.3097,0.0,0.0,0.0,0.0,0.0,0.0,0.0,0.0,0.0,0.0,0.0,0.0,0.0,0.0,0.0,0.0,0.0,0.0,0.0,0.0,0.0,0.0,0.0,0.0,0.0,0.0,0.0,0.0,4.0445,4.1863,0.0,4.0167,3.9589,3.9738,4.0666,4.1923,4.2502,4.2293,4.4785,4.6132,4.5882,4.679,4.7309,4.7309,4.7309,4.7309,4.7309,4.7309,4.7519,4.7948,4.7948,4.8308,4.8947,4.8947,4.9078,4.9228,4.8155,4.7646,4.7421,4.6493,4.6501,4.7018,4.6779,4.6988,4.7328,4.7078,4.6988,4.7018,4.7268,4.7508,4.7249,4.4686,4.3908,4.3339,4.0537,4.1584,4.3808,4.5005,4.7189,4.9572,5.1409,5.1858,5.1977,5.2396,5.2677,5.2767,5.2516,5.2498,5.2498,5.2498,5.2677,5.2827,5.2827,5.3037,5.3198,5.3198,5.3198,5.3198,5.3198,5.3198,5.3198,5.3198,5.3198,5.3198,5.3198,5.3198,5.3198,5.3198,5.3198,5.3198,5.3198,5.3198,5.3198,0.0,0.0,0.0,0.0,0.0,0.0,0.0,0.0,0.0,0.0,0.0,0.0,0.0,0.0,0.0,0.0,0.0,0.0,0.0,0.0,0.0,0.0,0.0,0.0,0.0,4.0526,4.1953,4.1772,4.306,4.3559,4.2471,4.1773,4.1773,4.2671,4.3908,4.4655,4.4655,4.6341,4.7309,4.7309,4.7309,4.7309,4.7309,4.7519,4.7638,4.7638,4.7859,4.8218,4.8648,4.8648,4.9007,4.9595,4.9595,4.9744,4.9954,5.0368,5.029,4.9924,4.9924,5.0182,5.0536,5.0536,5.0817,5.1206,5.1206,5.1206,5.1206,5.1206,5.1206,5.0697,4.8087,4.7309,4.6741,4.4127,4.5443,4.7638,4.7638,4.9733,5.2007,5.2426,5.2558,5.2677,5.3097,5.3366,5.3545,5.3545,5.3336,5.3198,5.3198,5.3396,5.3545,5.3545,5.3725,5.3875,5.3875,5.3875,5.3875,5.3875,5.3875,5.3875,5.3875,5.3875,5.3875,5.3875,5.3875,5.3875,5.3875,5.3875,5.3875,5.3875,5.3875,5.3755,5.3545,0.0,0.0,0.0,0.0,0.0,0.0,0.0,0.0,0.0,0.0,0.0,0.0,0.0,0.0,0.0,0.0,0.0,0.0,0.0,0.0,0.0,0.0,0.0,3.8401,4.2432,4.4566,4.276,4.306,4.3688,4.4326,4.3868,4.4556,4.713,4.7309,4.7309,4.7309,4.7309,4.7298,4.7339,4.7339,4.7339,4.7369,4.8008,4.8349,4.8338,4.8989,4.9318,4.9318,4.9318,4.9643,5.0237,5.0237,5.0596,5.1206,5.1206,5.1206,5.1206,5.1206,5.1206,5.1206,5.1206,5.1206,5.1206,5.1206,5.1206,5.1206,5.1206,5.1206,5.1206,5.1206,5.1247,5.1247,5.1265,5.1726,5.2217,5.2217,5.2707,5.3198,5.3228,5.3216,5.3228,5.3258,5.3773,5.4239,5.4239,5.3725,5.3258,5.3258,5.3803,5.4239,5.4239,5.479,0.0,5.5192,5.5192,5.5192,5.5192,5.5192,5.5192,5.5192,5.5192,5.5192,5.5192,5.5192,5.5192,5.5192,5.5192,5.5192,5.5192,5.5192,5.488,5.4239,0.0,0.0,0.0,0.0,0.0,0.0,0.0,0.0,0.0,0.0,0.0,0.0,0.0,0.0,0.0,0.0,0.0,0.0,0.0,0.0,0.0,4.0098,4.2272,4.2641,4.3339,4.4366,4.5793,4.6112,4.6281,4.6461,4.6322,4.6531,4.7249,4.7309,4.7309,4.7309,4.7309,4.7519,4.8008,4.8038,4.8248,4.8738,4.8917,4.9048,4.9048,4.9198,4.9535,4.9949,4.9949,5.0308,5.0936,5.0936,5.1026,5.1206,5.1206,5.1206,5.1206,5.1206,5.1206,5.1206,5.1206,5.1206,5.1206,5.1206,5.1206,5.1206,5.1206,5.1206,5.1307,5.1798,5.1947,5.2037,5.2516,5.2797,5.2917,5.2917,5.3067,5.3306,5.3803,5.3922,5.4072,5.4563,5.4803,5.491,5.491,5.4773,5.4653,5.4653,5.479,5.491,5.491,5.5089,0.0,5.5192,5.5192,5.5192,5.5192,5.5192,5.5192,5.5192,5.5192,5.5192,5.5192,5.5192,5.5192,5.5192,5.5192,5.5192,5.5192,5.5192,5.5089,0.0,0.0,0.0,0.0,0.0,0.0,0.0,0.0,0.0,0.0,0.0,0.0,0.0,0.0,0.0,0.0,0.0,0.0,0.0,0.0,0.0,0.0,4.1794,4.4267,4.5414,4.5224,4.5553,4.7119,4.7309,4.7309,4.7309,4.7309,4.7309,4.7309,4.7549,4.7728,4.7728,4.7978,4.8319,4.8708,4.8708,4.8929,4.9288,4.9535,4.9673,4.9673,4.9954,5.0272,5.0626,5.0626,5.0847,0.0,5.1206,5.1206,5.1206,5.1206,5.1206,0.0,0.0,0.0,0.0,0.0,5.1206,5.1206,5.1206,5.1206,5.1236,5.1517,5.1606,5.1726,5.2438,5.2618,5.2707,5.3109,5.3396,5.3635,5.3635,5.3815,5.4144,5.4521,5.461,5.473,5.5132,5.5192,5.5192,5.5192,0.0,0.0,5.5192,5.5192,5.5192,5.5192,5.5192,5.5192,5.5192,5.5192,5.5192,5.5192,5.5192,5.5192,5.5192,5.5192,0.0,0.0,0.0,5.5192,5.5192,5.5192,0.0,0.0,0.0,5.5192,0.0,0.0,0.0,0.0,5.4431,5.461,0.0,0.0,0.0,0.0,0.0,0.0,0.0,0.0,0.0,0.0,0.0,0.0,0.0,0.0,0.0,0.0,4.2721,4.4585,4.698,4.7309,4.7309,4.7309,4.7309,4.7309,4.7309,4.7369,4.7429,4.7429,4.8038,4.8397,4.8397,0.0,0.0,0.0,0.0,4.9426,4.9516,5.0051,5.0327,5.0327,5.0907,5.1206,5.1206,5.1206,5.1206,5.1206,5.1206,5.1206,5.1206,5.1206,5.1206,5.1206,5.1206,5.1206,5.1206,5.1206,5.1236,5.1295,5.1295,0.0,0.0,5.2127,5.2306,5.2438,5.3097,5.3306,5.3348,5.3408,5.3832,5.4299,5.4299,5.476,5.5192,5.5192,5.5192,5.5192,5.5192,5.5192,5.5192,5.5192,5.5192,5.5192,5.5192,5.5192,5.5192,5.5192,5.5192,5.5192,5.5192,5.5192,5.5192,5.5192,0.0,0.0,5.5192,5.5192,5.5192,5.5192,5.5192,5.5192,5.5192,5.5192,5.5192,5.5192,5.5192,5.5251,5.5311,5.5311,5.5341,5.5401,5.5341,5.5311,0.0,0.0,0.0,0.0,0.0,0.0,0.0,0.0,0.0,0.0,0.0,0.0,0.0,0.0,0.0,4.1343,4.4287,4.67,4.7249,4.7309,4.7309,4.7309,4.7309,4.7309,4.7309,4.7788,4.8098,4.8098,4.8738,4.9108,4.9108,4.9228,4.9505,5.0009,5.0039,5.029,5.0828,5.0936,5.0996,5.0996,0.0,0.0,5.1206,5.1206,5.1206,5.1206,5.1206,5.1206,5.1206,5.1206,5.1206,5.1206,5.1206,5.1206,5.1206,5.1206,5.1546,5.2007,5.2007,5.2366,5.2827,5.2947,5.3007,5.3126,5.3803,5.4012,0.0,5.4653,5.4922,5.4999,5.4999,5.5102,5.5192,5.5192,5.5192,5.5192,5.5192,5.5192,5.5192,5.5192,5.5192,5.5192,5.5192,5.5192,5.5192,5.5192,5.5192,5.5192,5.5192,5.5192,5.5192,5.5192,5.5192,5.5192,5.5192,5.5192,5.5192,5.5192,5.5192,5.5192,5.5192,5.5192,5.5192,5.5192,5.5192,5.5461,5.6013,5.6013,5.6239,5.6718,5.6239,5.6013,0.0,0.0,0.0,0.0,0.0,0.0,0.0,0.0,0.0,0.0,0.0,3.8901,3.8948,0.0,4.3249,4.292,4.5364,4.7309,4.7309,4.7309,4.7309,4.7309,4.7309,4.7418,4.7769,4.8098,4.8438,4.8768,4.9385,4.9763,4.9763,5.0074,5.0391,5.0697,5.0697,5.0877,5.1206,5.1206,5.1206,5.1206,5.1546,5.1696,5.1696,5.2067,5.2187,5.2187,5.2187,5.2187,5.2187,5.2187,5.2187,5.2187,5.2187,5.2007,5.1726,5.2067,5.2396,5.2707,5.2707,5.2917,5.3258,5.3605,5.3683,5.3832,5.4491,5.47,5.476,5.5102,5.5192,5.5192,5.5192,5.5192,5.5192,5.5192,5.5192,5.5192,5.5192,5.5192,5.5192,5.5192,5.5461,5.57,5.57,5.594,5.5927,5.5311,5.5192,5.5192,5.5192,5.5192,5.5192,5.5192,5.5192,5.5192,5.5192,5.5192,5.5192,5.5192,5.5192,5.5341,5.5683,5.57,5.585,5.6137,5.6149,5.6329,5.6658,5.6658,5.6808,5.7094,5.7124,5.6987,0.0,0.0,0.0,0.0,0.0,0.0,0.0,4.0208,4.1064,4.2012,4.2581,4.2781,4.2311,4.3798,4.4915,4.4396,4.5982,4.7309,4.7309,4.7429,4.7478,4.7478,4.7478,4.7758,4.8438,4.8607,4.8906,4.9426,5.0051,5.0387,5.0387,5.0907,5.1206,5.1206,5.1337,5.1385,5.1385,5.1517,5.1576,5.1606,5.2127,5.2396,5.2396,5.2947,5.3198,5.3198,5.3198,5.3198,5.3198,5.3198,5.3198,5.3228,5.3336,5.3067,5.2636,5.3037,5.3288,5.3396,5.3396,5.3486,5.3665,5.4221,5.4389,5.4491,5.5042,5.5192,5.5192,5.5192,5.5192,5.5192,5.5192,5.5192,5.5192,5.5192,5.5192,5.5251,5.5371,5.5401,5.5431,5.5551,5.6,5.6372,5.6372,5.6778,5.6735,5.573,5.5581,5.5581,5.5581,5.5581,5.5581,5.5581,5.5581,5.5581,5.5581,5.5581,5.5581,5.5581,5.5581,5.582,5.6342,5.6372,5.6598,5.7107,5.7094,5.7154,5.7304,5.7304,5.7363,5.7483,5.8038,5.7949,3.59,3.6956,3.8341,3.7665,3.9757,4.1652,0.0,4.1283,4.2041,4.1583,4.1583,4.1573,4.1523,4.309,4.4396,4.4307,4.5982,4.7309,4.7309,4.7818,4.8188,4.8188,4.8188,4.8468,4.9127,4.9662,5.0028,5.0088,5.0697,5.1086,5.1086,5.1146,5.1206,5.1206,5.1798,5.2097,5.2097,5.2677,5.2977,5.2977,5.3037,5.3109,5.3109,5.3169,5.3198,5.3198,5.3198,5.3198,5.3198,5.3198,5.3198,5.3258,5.3862,5.403,5.391,5.3396,5.3575,5.4089,5.4089,5.4491,5.4982,5.5059,5.5102,5.5102,5.5192,5.5192,5.5192,5.5192,5.5192,5.5192,5.5192,5.5192,5.5192,5.5192,5.5192,5.5371,5.5953,5.6102,5.6252,5.6778,5.6958,5.7017,5.7017,5.7077,5.7034,5.6915,5.6898,5.6898,5.6898,5.6898,5.6898,5.6898,5.6898,5.6898,5.6898,5.6898,5.6898,5.6898,5.6898,5.6915,5.7017,5.7017,5.7047,5.7094,5.7094,5.7393,5.7995,5.7995,5.8278,5.889,5.8936,5.8637,3.9248,3.9547,3.9858,4.1106,4.2462,4.3459,4.3299,4.3698,4.4247,4.4746,4.4825,4.4825,4.4825,4.5514,4.6052,4.6052,4.676,4.7429,4.7829,4.8128,4.8577,4.9333,4.9422,4.9512,4.9781,5.0039,5.0357,5.0757,5.1026,5.1206,5.1206,5.1576,5.1786,5.1786,5.2426,5.2797,5.2797,5.3067,5.3198,5.3198,5.3605,5.3773,5.3815,5.4204,5.4354,5.4354,5.4354,5.4354,5.4354,5.4354,5.4354,5.4384,5.467,5.479,5.476,5.4473,5.4533,5.479,5.479,5.4982,5.5192,5.5192,5.5192,5.5192,5.5192,5.5192,5.5192,5.5192,5.5192,5.5192,5.5192,5.5491,5.579,5.579,5.606,5.6389,5.6658,5.6718,5.6808,5.7034,5.7423,5.7679,5.7679,5.8022,5.8261,5.8261,5.7603,5.7094,5.7094,5.7094,5.7094,5.7094,5.7094,5.7094,5.7094,5.7094,5.7094,5.7094,5.7094,5.7274,5.7679,5.7679,5.7872,5.8261,5.8261,5.8411,5.8697,5.8697,5.8816,5.9129,5.9488,5.9518,4.0395,4.0855,4.1265,4.3678,4.4725,4.5264,4.5753,4.5843,4.6112,4.71,4.7309,4.7309,4.7309,4.7309,4.7309,4.7309,4.7459,4.7758,4.8218,4.8596,4.9183,5.0088,5.0357,5.0476,5.0476,5.0476,5.0697,5.1146,5.1367,5.1487,5.1487,5.2127,5.2498,5.2498,5.3126,5.3486,5.3486,5.3665,5.3755,5.3767,5.4251,5.4491,5.4491,5.4982,5.5192,5.5192,5.5192,5.5192,5.5192,5.5192,5.5192,5.5192,5.5192,5.5192,5.5192,5.5192,5.5192,5.5192,5.5192,5.5192,5.5192,5.5192,5.5192,5.5192,5.5192,5.5192,5.5192,5.5192,5.5341,5.5491,5.5491,5.597,5.6462,5.6462,5.6778,5.7154,5.7334,5.7393,5.7423,5.7603,5.8038,5.8397,5.8397,5.8786,5.9099,5.9099,5.8261,5.7663,5.7663,5.7663,5.7663,5.7663,5.7663,5.7663,5.7663,5.7663,5.7663,5.7663,5.7663,5.7872,5.8367,5.8397,5.8607,5.9099,5.9099,5.9189,5.9368,5.9368,5.9488,5.9654,6.0146,6.04,3.7186,3.9409,4.1843,4.3798,4.5773,4.7209,4.7249,4.7249,4.7238,4.7309,4.7309,4.7309,4.7309,4.7309,4.7309,4.7309,4.7848,4.8278,4.8308,4.9363,5.0147,5.0207,5.0787,5.1176,5.1176,5.1176,5.1187,5.1206,5.1786,5.2187,5.2187,5.2797,5.3156,5.3156,5.3832,5.4179,5.4179,5.482,5.5132,5.5132,5.5162,5.5162,5.5162,5.5192,5.5192,5.5192,5.5192,5.5192,5.5192,5.5192,5.5192,5.5192,5.5192,5.5192,5.5192,5.5192,5.5192,5.5192,5.5192,5.5192,5.5192,5.5192,5.5192,5.5192,5.5192,5.5192,5.5192,5.5192,5.5683,5.6162,5.6162,5.6611,5.7064,5.7064,5.7107,5.7274,5.7935,5.8055,5.8264,5.8906,5.9069,5.9056,5.9056,5.9099,5.9099,5.9099,5.9069,5.9039,5.9039,5.9039,5.9039,5.9039,5.9039,5.9039,5.9039,5.9039,5.9039,5.9039,5.9039,5.9069,5.9069,5.9056,5.9069,5.9099,5.9099,5.9428,6.007,6.007,6.0386,6.103,6.106,6.106,3.9448,4.1654,4.3808,4.5802,4.68,4.7309,4.7309,4.7309,4.7309,4.7309,4.6251,4.5324,4.5324,4.5324,4.5324,4.5324,4.698,4.8468,4.8887,4.9692,5.0357,5.0817,5.1457,5.1846,5.1846,5.1846,5.1846,5.1846,5.2486,5.2857,5.2857,5.3503,5.3862,5.3862,5.4521,5.485,5.485,5.5102,5.5192,5.5192,5.5192,5.5192,5.5192,5.5192,5.5192,5.5192,5.5192,5.5192,5.5192,5.5192,5.5192,5.5192,5.5192,5.5192,5.5192,5.5192,5.5192,5.5192,5.5192,5.5192,5.5192,5.5192,5.5192,5.5281,5.5743,5.5863,5.5953,5.6359,5.6628,5.6808,5.6808,5.7274,5.7769,5.7769,5.8098,5.8501,5.8697,5.8756,5.8816,5.9069,5.9099,5.9099,5.9099,5.9099,5.9099,5.9099,5.9099,5.9099,5.9099,5.9099,5.9099,5.9099,5.9099,5.9099,5.9099,5.9099,5.9099,5.9099,5.9518,5.9771,5.9771,6.0192,6.0432,6.0432,6.0432,6.0521,6.0761,6.0761,6.088,6.112,6.1539,6.1762,4.1354,4.318,4.4785,4.68,4.7309,4.7309,4.7309,4.7309,4.7309,4.7309,4.5713,4.4247,4.3997,4.3379,4.299,4.323,4.4896,4.6762,4.8349,4.9134,5.0021,5.1397,5.1947,5.2306,5.2516,5.2785,5.2815,5.2588,5.3186,5.3575,5.3575,5.4192,5.4551,5.4551,5.4982,5.5192,5.5192,5.5192,5.5192,5.5192,5.5192,5.5192,5.5192,5.5192,5.5192,5.5192,5.5192,5.5341,5.5551,5.5551,5.5671,5.588,5.588,5.588,5.588,5.588,5.588,5.585,5.5641,5.5551,5.5581,5.582,5.588,5.597,5.6389,5.6509,5.6598,5.6987,5.7274,5.7453,5.7453,5.7949,5.8457,5.8457,5.8786,5.9099,5.9099,5.9099,5.9099,5.9099,5.9099,5.9099,5.9099,5.9099,5.9099,5.9099,5.9308,5.9368,5.9129,5.9099,5.9099,5.9099,5.9308,5.9458,5.9458,5.9668,5.9803,5.9803,6.0206,6.0446,6.0446,6.0864,6.109,6.109,6.109,6.121,6.1449,6.1449,6.1583,6.1822,6.2241,6.2465,4.2672,4.3898,4.4905,4.682,4.7309,4.7309,4.7309,4.7309,4.7268,4.7119,4.5503,4.3888,4.309,4.1575,4.0666,4.1313,4.2191,4.3888,4.701,4.8068,4.9415,5.1917,5.2247,5.2546,5.3186,5.3862,5.3982,5.3336,0.0,5.4239,5.4239,5.485,5.5192,5.5192,5.5192,5.5192,5.5192,5.5192,5.5222,5.5251,5.5251,5.5281,5.5311,5.5311,5.5311,5.5311,5.5311,5.5671,5.6252,5.6252,5.6568,5.7094,5.7094,5.7094,5.7094,5.7094,5.7094,5.7017,5.6492,5.6282,5.6342,5.6898,5.7094,5.7094,5.7124,5.7154,5.7154,5.7184,5.7649,5.8145,5.8145,5.8637,5.9099,5.9099,5.9099,5.9099,5.9099,5.9099,5.9099,5.9099,5.9129,5.9159,5.9159,5.9189,5.9205,5.9205,5.9727,5.9921,5.9249,5.9189,5.9205,5.9205,5.9757,6.016,6.016,6.0745,6.109,6.109,6.112,6.115,6.115,6.118,6.121,6.121,6.121,6.1523,6.2151,6.2151,6.2495,6.3108,6.3108,6.3108,4.3738,4.5254,4.667,4.7189,4.7309,4.7309,4.7309,4.7309,4.673,4.4745,4.2741,4.0756,3.8631,3.9837,4.1194,4.1373,4.5244,4.8514,4.934,5.0469,5.1439,5.2127,5.3084,5.3773,5.3922,5.4551,5.485,5.4713,5.4862,5.494,5.494,5.5089,5.5192,5.5192,5.5192,5.5192,5.5192,5.5192,5.5461,5.5953,5.5953,5.6179,5.6628,5.6628,5.6628,5.6628,5.6628,5.6718,5.6868,5.6868,5.6958,5.7094,5.7094,5.7094,5.7094,5.7094,5.7094,5.7167,5.7513,5.7304,5.6898,5.7034,5.7094,5.7184,5.7679,5.7859,5.7949,5.8441,5.8697,5.8846,5.8846,5.8966,5.9099,5.9099,5.9099,5.9099,5.9099,5.9099,5.9099,5.9099,5.9488,5.9861,5.9861,6.0266,6.0581,6.0581,6.0745,6.0595,5.9921,6.0296,6.0581,6.0581,6.0731,6.0864,6.0864,6.1,6.109,6.109,6.1569,6.1852,6.1852,6.2301,6.2584,6.2584,6.2584,6.2674,6.2854,6.2854,6.2914,6.3108,6.3108,6.3108,4.5354,4.6431,4.7309,4.7309,4.7309,4.6999,4.5802,4.5563,4.4825,4.2133,4.0029,3.8251,3.6755,3.8221,3.9837,4.0427,4.4277,4.7706,4.9153,5.0272,5.1361,5.2498,5.3563,5.4311,5.461,5.4982,5.5192,5.5192,5.5192,5.5192,5.5192,5.5192,5.5192,5.5192,5.5491,5.576,5.603,5.603,5.6209,5.6598,5.6598,5.6778,5.7094,5.7094,5.7094,5.7094,0.0,5.7274,5.7543,5.7543,5.7723,5.7992,5.7992,5.7992,5.7992,5.7992,5.7992,5.8022,5.8397,5.8278,5.7992,5.7992,5.7992,5.8052,5.8427,5.8547,5.8607,5.8996,5.9099,5.9099,5.9099,5.9099,5.9099,5.9099,5.9099,5.9099,5.9099,5.9099,5.9189,5.9488,6.0086,6.0535,6.0535,6.0851,6.109,6.109,6.1359,6.1403,6.1028,6.1044,6.109,6.109,6.1359,6.1553,6.1553,6.1822,6.1972,6.1972,6.2345,6.2555,6.2555,6.2884,6.3108,6.3108,6.3108,6.3108,6.3108,6.3108,6.3108,6.3108,6.3108,6.3108,4.698,4.7309,4.7309,4.7309,4.7309,4.661,4.3898,4.3349,4.2551,3.952,3.7614,3.6395,3.6036,3.6836,3.8024,3.955,4.2132,4.5065,4.8368,4.9396,5.0684,5.3037,5.3922,5.4551,5.5132,5.5281,5.5341,5.5341,5.5401,5.5431,5.5341,5.5341,5.5371,5.5461,5.6013,5.6568,5.7094,5.7094,5.7124,5.7244,5.7244,5.7274,5.7363,5.7363,5.7363,5.7363,0.0,0.0,5.8234,5.8234,5.8577,5.9099,5.9099,5.9099,5.9099,5.9099,5.9099,5.9099,5.9099,5.9099,5.9099,5.9099,5.9099,5.9099,5.9099,5.9099,5.9099,5.9099,5.9099,5.9099,5.9099,5.9099,5.9129,5.9219,5.9249,5.9249,5.9368,5.9368,5.9548,6.013,6.0775,6.1239,6.1239,6.1299,6.1359,6.1359,6.1852,6.2241,6.2241,6.1732,6.1359,6.1359,6.1882,6.2241,6.2241,6.2764,6.3108,6.3108,6.3108,6.3108,6.3108,6.3108,6.3108,6.3108,6.3108,6.3108,6.3108,6.3108,6.3108,6.3108,6.3108,6.3108,4.7249,4.7309,4.7309,4.7309,4.7309,4.661,4.3898,4.3349,4.2022,3.7186,3.6365,3.5827,3.3596,3.5938,3.9038,4.1473,4.4536,4.7788,5.105,5.2109,5.2887,5.3922,5.461,5.5059,5.5192,5.57,5.6042,5.6042,5.6479,5.6539,5.6042,5.6042,5.6252,5.6735,5.6898,5.6974,5.7094,5.7094,5.7393,5.7919,5.7919,5.8218,5.877,5.877,5.877,5.877,5.877,0.0,5.8949,5.8949,5.9009,5.9099,5.9099,5.9099,5.9099,5.9099,5.9099,5.9099,5.9099,5.9099,5.9099,5.9099,5.9099,5.9099,5.9099,5.9099,5.9099,5.9099,5.9099,5.9099,5.9099,5.9099,5.9249,5.9787,5.9921,6.0086,6.0641,6.0761,6.0791,6.091,6.1463,6.1942,6.1942,6.2405,6.2734,6.2734,6.2854,6.2928,6.2928,6.2824,6.2734,6.2734,6.2854,6.2928,6.2928,6.3033,6.3108,6.3108,6.3108,6.3108,6.3108,6.3108,6.3108,6.3108,6.3108,6.3108,6.3108,6.3108,6.3108,6.3108,6.3108,6.3108,4.7309,4.7309,4.7309,4.7309,4.7309,4.6251,4.2203,4.1315,3.9909,3.4973,3.4195,3.4233,3.3634,3.6186,3.8939,4.0586,4.4466,4.7967,4.9883,5.1929,5.3456,5.4119,5.479,5.5192,5.5192,5.5803,5.6192,5.6192,5.6748,5.6987,5.6688,5.6658,5.6958,5.759,5.762,5.7782,5.8141,5.8141,5.8291,5.8637,5.8637,5.8786,5.9099,5.9099,5.9099,5.9099,5.9099,0.0,5.9099,5.9099,5.9099,5.9099,5.9099,5.9099,5.9099,5.9099,5.9099,5.9099,5.9099,5.9099,5.9099,5.9099,5.9099,5.9099,5.9099,5.9099,5.9099,5.9099,5.9338,5.9608,5.9608,5.9877,6.0222,6.0535,6.0625,6.0715,6.103,6.1359,6.1598,6.1598,6.2151,6.2614,6.2614,6.2884,6.3108,6.3108,6.3108,6.3108,6.3108,6.3108,6.3108,6.3108,6.3108,6.3108,6.3108,6.3108,6.3108,6.3108,6.3108,6.3108,6.3108,6.3108,6.3108,6.3108,6.3108,6.3108,6.3108,6.3108,6.3108,6.3108,6.3108,6.3108,4.7179,4.7309,4.7309,4.7309,4.7309,4.5922,4.0618,3.9391,3.8105,3.3439,3.2602,3.3095,3.4286,3.6164,3.7982,3.9191,4.2781,4.6112,4.8218,5.0744,5.2857,5.4251,5.488,5.5251,5.5401,5.6,5.6449,5.6611,5.7197,5.7453,5.7334,5.7453,5.7782,5.8308,5.8294,5.8577,5.9085,5.9099,5.9099,5.9099,5.9099,5.9099,5.9099,5.9099,5.9099,5.9099,5.9099,0.0,0.0,5.9099,5.9099,5.9099,5.9099,5.9099,5.9099,5.9099,5.9099,5.9099,5.9099,5.9099,5.9099,5.9099,5.9099,5.9099,5.9099,5.9189,5.9308,5.9308,5.9787,6.031,6.031,6.0715,6.115,6.1269,6.1419,6.1523,6.1523,6.1942,6.2301,6.2301,6.2734,6.3108,6.3108,6.3108,6.3108,6.3108,6.3108,6.3108,6.3108,6.3108,6.3108,6.3108,6.3108,6.3108,6.3108,6.3108,6.3108,6.3108,6.3108,6.3108,6.3108,6.3108,6.3222,6.3507,6.3521,6.3692,6.3986,6.3692,6.3521,6.3507,6.3222,6.3108,4.679,4.7309,4.7309,4.7309,4.7309,4.5922,4.0618,3.9391,3.8105,3.3439,3.2968,3.3642,3.4376,3.4705,3.5865,3.8913,3.929,4.1553,4.827,4.9468,5.1013,5.4683,5.5162,5.5431,5.6042,5.6658,5.7274,5.7889,5.8547,5.8637,5.8038,5.8577,5.8949,5.9009,5.8996,5.9039,5.9099,5.9099,5.9099,5.9099,5.9099,5.9099,5.9099,5.9099,5.9099,5.9099,5.9099,0.0,0.0,5.9099,5.9099,5.9099,5.9099,5.9099,5.9099,5.9099,5.9099,5.9099,5.9099,5.9099,5.9099,5.9099,5.9099,5.9099,5.9099,5.9518,6.001,6.001,6.0505,6.1,6.1,6.106,6.1239,6.1852,6.2465,6.2928,6.2928,6.2944,6.3003,6.3003,6.3063,6.3108,6.3108,6.3108,6.3108,6.3108,6.3108,6.3108,6.3108,6.3108,6.3108,6.3108,6.3108,6.3108,6.3108,6.3108,6.3108,6.3108,6.3108,6.3108,6.3108,6.3108,6.3677,6.4895,6.4923,6.5558,6.6803,6.5544,6.4923,6.4895,6.3677,6.3108,4.676,4.7309,4.7309,4.7309,4.6401,4.4426,4.0318,3.8503,3.6776,3.3724,3.3305,3.3821,3.4891,3.4757,3.5056,3.6768,3.7456,3.923,4.3369,4.4945,4.7298,5.1654,5.2193,5.3264,5.5953,5.6748,5.7543,5.8607,5.8936,5.8966,5.8726,5.8936,5.9099,5.9099,5.9099,5.9099,5.9099,5.9099,5.9099,5.9099,5.9099,5.9099,5.9099,5.9099,5.9099,5.9099,5.9099,0.0,0.0,5.9099,5.9099,5.9099,5.9099,5.9099,5.9099,5.9099,5.9099,5.9099,5.9099,5.9099,5.9159,5.9578,5.9711,5.9711,5.9711,6.0176,6.0715,6.0715,6.1194,6.1702,6.1702,6.2002,6.2375,6.2644,6.2928,6.3108,6.3108,6.3108,6.3108,6.3108,6.3108,6.3108,6.3108,6.3108,6.3108,6.3108,6.3108,6.3108,6.3108,6.3108,6.3422,6.4223,6.429,6.3986,6.318,6.3831,6.3972,6.3151,6.386,6.429,6.429,6.429,6.495,6.6351,6.5544,6.5781,6.719,6.5781,6.5083,6.5087,6.3704,6.3108,4.5862,4.686,4.7309,4.7309,4.5802,4.3439,4.0139,3.8024,3.6148,3.3933,3.3672,3.4143,3.528,3.4779,3.4428,3.5108,3.5789,3.7165,3.9729,4.1455,4.4017,4.8245,4.8921,5.0619,5.4623,5.6658,5.8082,5.9039,5.9099,5.9099,5.9099,5.9099,5.9099,5.9099,5.9099,5.9099,5.9099,5.9099,5.9099,5.9099,5.9099,5.9099,5.9099,5.9099,5.9099,5.9099,5.9099,0.0,0.0,5.9099,5.9099,5.9099,5.9099,5.9099,5.9099,5.9099,5.9099,5.9129,5.9338,5.9398,5.9518,6.0176,6.0519,6.0699,6.0699,6.1014,6.1389,6.1389,6.1882,6.2405,6.2405,6.2734,6.3108,6.3108,6.3108,6.3108,6.3108,6.3108,6.3108,6.3108,6.3422,6.3706,6.3706,6.3706,6.3706,6.3706,6.3351,6.3236,6.3649,6.3706,6.4209,6.5598,6.6087,6.558,6.3831,6.4195,6.4279,6.3748,6.4582,6.5287,6.5688,6.5714,6.6378,6.7749,6.6816,6.6997,6.8405,6.6613,6.5714,6.5674,6.3916,6.3108,4.3798,4.5773,4.7309,4.7309,4.5802,4.3439,4.0139,3.8353,3.6648,3.4053,3.4039,3.4697,3.537,3.4412,3.3732,3.4406,3.3949,3.4921,3.8853,3.9999,4.1654,4.4945,4.5952,4.7886,5.1858,5.6406,5.9085,5.9099,5.9099,0.0,5.9099,5.9099,5.9099,5.9099,5.9099,5.9099,5.9099,5.9099,5.9099,5.9099,5.9099,5.9099,5.9099,5.9099,5.9099,0.0,0.0,0.0,0.0,5.9099,5.9099,5.9099,5.9099,5.9099,5.9099,5.9099,5.9099,5.9189,5.9861,6.01,6.019,6.0864,6.1553,6.2061,6.2061,6.2091,6.2091,6.2091,6.2584,6.3108,6.3108,6.3093,6.3108,6.3108,6.3108,6.3108,6.3108,6.3108,6.3108,6.3108,6.4167,6.507,6.507,6.507,6.507,6.507,6.3958,6.3578,6.4909,6.507,6.5638,6.701,6.838,6.8049,6.5314,6.3874,6.3692,6.5005,6.5083,6.5714,6.7113,6.7164,6.7799,6.9169,6.9148,6.9867,7.1255,6.8503,6.7164,6.71,6.439,6.3108,4.1235,4.2102,4.2482,4.2033,4.0417,3.8571,3.7067,3.5699,3.4502,3.3672,3.4039,3.4548,3.4787,3.4091,3.3732,3.4376,3.3552,3.3716,3.6379,3.8473,4.1106,4.4866,5.0272,5.4359,5.6064,5.7979,5.9099,5.9099,5.9099,5.9099,5.9099,5.9099,5.9099,5.9099,5.9099,5.9099,5.9099,5.9099,5.9099,5.9099,5.9099,5.9099,5.9099,5.9099,5.9099,0.0,0.0,0.0,0.0,5.9099,5.9099,5.9099,5.9099,5.9099,5.9099,5.9099,5.9398,5.9801,6.004,6.0386,6.088,6.1583,6.1942,6.2181,6.2644,6.2794,6.2794,6.2794,6.2944,6.3108,6.3108,6.3108,6.3108,6.3108,6.3108,6.3108,6.3108,6.3108,6.3379,6.4307,6.4813,6.5409,6.6378,6.5728,6.5436,6.6404,6.5355,6.4978,6.6365,6.6548,6.7048,6.8429,6.8144,6.7087,6.5247,6.6412,6.6634,6.5179,6.6855,6.8087,6.8552,6.8577,6.9217,7.0597,6.9692,6.9902,7.1289,6.8528,6.6233,6.439,6.3522,6.3108,3.8571,3.9469,3.9909,3.9511,3.7943,3.6306,3.5639,3.4659,3.3799,3.3552,3.4039,3.4496,3.4496,3.3761,3.3335,3.4009,3.3425,3.3836,3.6588,3.8584,4.1345,4.5544,5.1498,5.5628,5.6543,5.8128,5.9099,5.9099,5.9099,5.9099,5.9099,5.9099,5.9099,5.9099,5.9099,5.9099,5.9099,5.9099,5.9099,5.9099,5.9099,5.9099,5.9099,5.9099,5.9099,0.0,0.0,0.0,0.0,5.9099,5.9099,5.9099,5.9099,5.9099,5.9129,5.9368,5.9741,6.016,6.0669,6.1134,6.1583,6.2241,6.2495,6.2555,6.2974,6.3108,6.3108,6.3108,6.3108,6.3108,6.3108,6.3108,6.3108,6.3108,6.3108,6.3222,6.3732,6.3845,6.4265,6.5638,6.6312,6.6919,6.7799,6.7228,6.6932,6.7811,6.6764,6.6404,6.7774,6.7937,6.8479,6.9867,6.9262,6.8181,6.6764,6.7749,6.7924,6.6712,6.8236,6.9433,6.9973,6.9984,7.039,7.1278,7.0459,7.0402,7.1289,6.8528,6.5768,6.3108,6.3108,6.3108,0.0,3.7494,3.8913,3.8853,3.7486,3.5976,3.5362,3.4809,0.0,3.3642,3.4039,3.4496,3.4496,3.3395,3.2729,3.3462,3.3522,3.4891,3.8913,4.0447,4.288,4.7448,5.0739,5.3144,5.4418,5.7304,5.9099,5.9099,5.9099,5.9099,5.9099,5.9099,5.9099,5.9099,5.9099,5.9099,5.9099,5.9099,5.9099,5.9099,5.9099,5.9099,5.9099,5.9099,5.9099,0.0,0.0,0.0,0.0,5.9099,5.9099,5.9099,5.9159,5.9189,5.9249,5.9921,6.019,6.0429,6.1687,6.2121,6.2271,6.2884,6.3108,6.3108,6.3108,6.3108,6.3108,6.3108,6.3108,6.3108,6.3108,6.3108,6.3122,6.3207,6.3236,6.3606,6.4964,6.5247,6.5647,6.7061,6.8355,6.9241,6.9325,6.9277,6.9241,6.9337,6.8219,6.7811,6.9181,6.9349,6.9867,7.1143,7.13,7.078,6.9445,6.8219,6.7994,6.9145,6.9301,6.9949,7.1255,7.13,7.13,7.13,7.13,7.121,7.1007,6.8429,6.5768,6.3108,6.3108,6.3108,3.2871,0.0,3.4007,3.3484,3.3013,3.2624,0.0,3.3118,3.3702,3.3514,3.4039,3.4496,3.4496,3.3395,3.2878,3.4069,3.3821,3.5078,3.9529,4.5084,5.02,5.4311,5.5914,5.7051,5.7872,5.865,5.9099,5.9099,5.9099,5.9099,5.9099,5.9099,5.9099,5.9099,5.9099,5.9099,5.9099,5.9099,5.9099,5.9099,5.9099,5.9099,5.9099,5.9099,5.9099,0.0,0.0,0.0,5.9099,5.9099,5.9099,5.9159,5.9668,5.9861,5.9951,6.0625,6.1194,6.1687,6.2002,6.2435,6.2884,6.3048,6.3108,6.3108,6.3108,6.3108,6.3108,6.3108,6.3108,6.3108,6.3108,6.3108,6.3365,6.4373,6.4637,6.5019,6.6417,6.6718,6.71,6.8479,6.8967,6.9549,7.0608,6.9914,6.9573,7.0631,6.9621,6.9229,7.062,7.0802,7.0916,7.1267,7.13,7.1176,7.0825,7.0516,6.9996,6.9253,7.0216,7.0961,7.1289,7.13,7.13,7.13,7.13,7.0251,6.8157,6.7508,6.5768,6.3108,6.3108,6.3108,3.178,3.175,3.1966,3.16,3.1503,3.1503,3.1503,3.2542,3.3395,3.3095,3.3582,3.3949,3.3642,3.2497,3.2131,3.3769,3.4749,3.7015,4.1953,4.6281,5.041,5.4371,5.5448,5.6705,5.889,5.9099,5.9099,5.9099,5.9099,5.9099,5.9099,5.9099,5.9099,5.9099,5.9099,5.9099,5.9099,5.9099,5.9099,5.9099,5.9099,5.9099,5.9099,5.9099,5.9099,0.0,0.0,0.0,5.9548,5.9548,5.9727,6.0043,6.0416,6.0565,6.0625,6.1299,6.1792,6.2151,6.2465,6.2794,6.3108,6.3108,6.3108,6.3108,6.3108,6.3108,6.3108,6.3108,6.3108,6.3236,6.386,6.4029,6.4346,6.5728,6.6061,6.6456,6.7811,6.8132,6.8528,6.9902,7.0181,7.0424,7.1188,7.0654,7.0402,7.1199,7.0631,7.0459,7.121,7.13,7.13,7.13,7.13,7.13,7.13,7.13,7.0984,7.0216,7.0871,7.13,7.13,7.13,7.13,7.13,7.0688,6.931,6.719,6.719,6.6101,6.4029,6.4029,6.4029,3.1683,3.1802,3.2019,3.16,3.1503,3.1503,3.1503,3.2542,3.3305,3.2639,3.3028,3.3305,3.2632,3.1562,3.142,3.3342,3.6537,4.0507,4.5514,4.7209,4.9243,5.2695,5.3683,5.5431,5.877,5.9099,5.9099,5.9099,5.9099,5.9099,5.9099,5.9099,5.9099,5.9099,5.9189,5.9249,5.9249,5.9249,5.9249,5.9249,5.9368,5.9428,5.9428,5.9428,5.9428,5.9428,0.0,0.0,6.025,6.025,6.0595,6.112,6.121,6.1239,6.1329,6.2002,6.2241,6.2331,6.2884,6.3108,6.3108,6.3108,6.3108,6.3151,6.3337,6.3422,6.3435,6.3677,6.3564,6.3734,6.5087,6.5423,6.5768,6.7164,6.7496,6.7862,6.9229,6.9537,6.989,7.1064,7.13,7.13,7.13,7.13,7.13,7.13,7.13,7.13,7.13,7.13,7.13,7.13,7.13,7.13,7.13,7.13,7.13,7.13,7.13,7.13,7.13,7.13,7.13,7.13,6.9926,6.854,6.719,6.719,6.6496,6.5083,6.5083,6.5145,3.1683,3.3162,3.4336,3.2079,3.1503,3.1503,3.1503,3.2542,3.3305,3.2639,3.3028,3.3305,3.2632,3.2333,3.2677,3.4099,4.0307,4.6181,4.9781,5.3264,5.5897,5.7051,5.7799,5.8441,5.9039,5.9099,5.9099,5.9099,5.9099,5.9099,5.9099,5.9099,5.9099,5.9099,5.9638,5.9951,5.9951,5.9951,5.9951,5.9951,6.0535,6.0791,6.0791,6.0791,6.0791,6.0791,0.0,6.0851,6.094,6.094,6.1,6.115,6.1732,6.1942,6.2032,6.2704,6.2944,6.2944,6.3063,6.3108,6.3108,6.3108,6.3108,6.3308,6.4443,6.4786,6.506,6.6246,6.5701,6.5097,6.649,6.6868,6.7215,6.8577,6.8882,6.9277,7.0688,7.0984,7.1041,7.1255,7.13,7.13,7.13,7.13,7.13,7.13,7.13,7.13,7.13,7.13,7.13,7.13,7.13,7.13,7.13,7.13,7.13,7.13,7.13,7.13,7.13,7.13,7.13,7.13,6.9926,6.854,6.719,6.719,6.6496,6.5083,6.5083,6.5393,3.1593,3.2407,3.3402,3.3619,3.4717,3.5854,3.6221,3.7075,3.7263,3.5511,3.5669,3.528,3.2482,3.3447,3.6148,4.0675,4.3868,4.7029,5.0697,5.1546,5.2725,5.5149,5.6034,5.7141,5.8949,5.9099,5.9099,5.9099,5.9099,5.9099,5.9099,5.9099,5.9279,5.9621,5.9951,6.0266,6.0625,6.0998,6.0998,6.0655,6.094,6.109,6.109,6.109,6.109,6.109,0.0,6.1299,6.1642,6.1642,6.1852,6.2211,6.2525,6.2644,6.2674,6.2988,6.3108,6.3108,6.3108,6.3108,6.3108,6.3108,6.3592,6.4307,6.4923,6.562,6.6535,6.7887,6.7279,6.6543,6.7912,6.8293,6.8626,6.9996,7.0333,7.0516,7.1143,7.13,7.13,7.13,7.13,7.13,7.13,7.13,7.13,7.13,7.13,7.13,7.13,7.13,7.13,7.13,7.13,7.13,7.13,7.13,7.13,7.13,7.13,7.13,7.13,7.13,7.0928,7.0193,6.9549,6.854,6.719,6.7912,6.7937,6.7292,6.6942,6.695,3.1503,3.1959,3.2923,3.5003,3.652,3.8045,3.9969,4.0436,4.0047,3.8631,3.888,3.7913,3.3282,3.4921,3.9119,4.5753,4.6741,4.8046,5.2025,5.0858,5.084,5.4174,5.5029,5.6333,5.886,5.9099,5.9099,5.9099,5.9099,5.9099,5.9099,5.9249,5.9578,6.007,6.04,6.0805,6.1329,6.2002,6.2002,6.1329,6.1493,6.1583,6.1583,6.1583,6.1583,6.1583,6.1583,6.1852,6.2331,6.2331,6.2644,6.3108,6.3108,6.3108,6.3108,6.3108,6.3108,6.3108,6.3108,6.3108,6.3108,6.3108,6.3789,6.4675,6.5019,6.6087,6.747,6.8821,6.8699,6.8392,6.9442,6.9692,6.9961,7.1041,7.13,7.13,7.13,7.13,7.13,7.13,7.13,7.13,7.13,7.13,7.13,7.13,7.13,7.13,7.13,7.13,7.13,7.13,7.13,7.13,7.13,7.13,7.13,7.13,7.13,7.13,7.13,7.13,7.0791,6.9704,6.9361,6.8699,6.766,6.8699,6.9028,6.8699,6.837,6.8099,3.1503,3.3312,3.5272,3.5451,3.376,3.3514,3.914,3.8981,3.8332,4.0655,4.1652,4.0694,3.605,3.6866,3.9837,4.4656,4.8435,5.2145,5.6107,5.6496,5.6944,5.8501,5.871,5.883,5.9069,5.9099,5.9099,5.9099,5.9099,5.9099,5.9099,5.9681,6.004,6.01,6.1327,6.1972,6.2032,6.2674,6.2674,6.2032,6.2674,6.2958,6.2958,6.2958,6.2958,6.2958,6.2958,6.2974,6.3048,6.3048,6.3063,6.3108,6.3108,6.3108,6.3108,6.3108,6.3108,6.3108,6.3108,6.3108,6.3108,6.3108,6.318,6.3464,6.4717,6.6087,6.747,6.8821,7.0055,7.103,7.1109,7.1131,7.1154,7.1278,7.13,7.13,7.13,7.13,7.13,7.13,7.13,7.13,7.13,7.13,7.13,7.13,7.13,7.13,7.13,7.13,7.13,7.13,7.13,7.13,7.13,7.13,7.13,7.13,7.13,7.13,7.13,7.13,7.1255,7.1131,6.9879,6.9169,6.9073,6.9169,6.8565,6.7362,6.7945,6.7822,3.1503,3.3461,3.5511,3.5511,3.5032,3.6178,4.2102,4.2851,4.2851,4.4676,4.5285,4.4407,4.0976,4.2671,4.5265,4.7451,5.1462,5.4952,5.6838,5.7453,5.8068,5.9009,5.9099,5.9099,5.9099,5.9099,5.9099,5.9099,5.9099,5.9099,5.9099,5.9741,6.028,6.0715,6.1613,6.2315,6.2704,6.2974,6.2974,6.2734,6.2988,6.3108,6.3108,6.3108,6.3108,6.3108,6.3108,6.3108,6.3108,6.3108,6.3108,6.3108,6.3108,6.3108,6.3108,6.3108,6.3108,6.3108,6.3108,6.3108,6.3108,6.3108,6.3677,6.4609,6.5981,6.7356,6.8724,7.0135,7.0882,7.13,7.13,7.13,7.13,7.13,7.13,7.13,7.13,7.13,7.13,7.13,7.13,7.13,7.13,7.13,7.13,7.13,7.13,7.13,7.13,7.13,7.13,7.13,7.13,7.13,7.13,7.13,7.13,7.13,7.13,7.13,7.13,7.13,7.0882,7.0008,7.0321,7.0066,6.9205,6.9205,6.9148,6.9051,6.8017,6.76,3.1182,3.2392,3.3873,3.4929,3.5699,3.7772,4.3908,4.4825,4.5185,4.7956,4.7867,4.6879,4.5443,4.7081,4.8816,4.9475,5.3318,5.6402,5.7017,5.7679,5.8367,5.9026,5.9099,5.9099,5.9099,5.9099,5.9099,5.9099,5.9099,5.9099,5.9099,5.9937,6.0625,6.109,6.1942,6.2644,6.3108,6.3108,6.3108,6.3108,6.3108,6.3108,6.3108,6.3108,6.3108,6.3108,6.3108,6.3108,6.3108,6.3108,6.3108,6.3108,6.3108,6.3108,6.3108,6.3108,6.3108,6.3108,6.3108,6.3108,6.3108,6.3108,6.3998,6.5274,6.6259,6.7774,6.9397,7.0356,7.0973,7.13,7.13,7.13,7.13,7.13,7.13,7.13,7.13,7.13,7.13,7.13,7.13,7.13,7.13,7.13,7.13,7.13,7.13,7.13,7.13,7.13,7.13,7.13,7.13,7.13,7.13,7.13,7.13,7.13,7.13,7.13,7.13,7.13,7.0837,6.989,7.0802,7.0825,6.9879,6.9628,6.9522,6.9517,6.8079,6.7432,3.0515,3.011,3.0483,3.3687,3.5048,3.7315,4.3808,4.3808,4.4097,4.9979,4.9153,4.7758,4.9067,4.9318,4.9546,5.0117,5.3593,5.6432,5.7017,5.7679,5.8367,5.9026,5.9099,5.9099,5.9099,5.9099,5.9099,5.9099,5.9099,5.9099,5.9099,6.0372,6.109,6.109,6.2405,6.3108,6.3108,6.3108,6.3108,6.3108,6.3108,6.3108,6.3108,6.3108,6.3108,6.3108,6.3108,6.3108,6.3108,6.3108,6.3108,6.3108,6.3108,6.3108,6.3108,6.3108,6.3108,6.3108,6.3108,6.3108,6.3108,6.3122,6.4029,6.5097,6.5124,6.7035,6.9205,6.9229,7.0228,7.13,7.13,7.13,7.13,7.13,7.13,7.13,7.13,7.13,7.13,7.13,7.13,7.13,7.13,7.13,7.13,7.13,7.13,7.13,7.13,7.13,7.13,7.13,7.13,7.13,7.13,7.13,7.13,7.13,7.13,7.13,7.13,7.13,7.13,7.13,7.13,7.1289,7.1278,7.055,6.9492,6.8185,6.8117,6.7346,3.1189,3.3798,3.6289,3.5429,3.882,4.291,4.4866,4.5204,4.6431,5.099,5.1648,5.1001,4.9557,5.1582,5.2737,5.0566,5.394,5.6898,5.7064,5.8082,5.8876,5.9069,5.9099,5.9099,5.9099,5.9099,5.9099,5.9099,5.9099,5.9099,5.9099,6.0372,6.109,6.109,6.2405,6.3108,6.3108,6.3108,6.3108,6.3108,6.3108,6.3108,6.3108,6.3108,6.3108,6.3108,6.3108,6.3108,6.3108,6.3108,6.3108,6.3108,6.3108,6.3108,6.3108,6.3108,6.3108,6.3108,6.3108,6.3108,6.325,6.4209,6.4772,6.5477,6.7394,6.8565,6.9397,7.0412,7.0996,7.13,7.13,7.13,7.13,7.13,7.13,7.13,7.13,7.13,7.13,7.13,7.13,7.13,7.13,7.13,7.13,7.13,7.13,7.13,7.13,7.13,7.13,7.13,7.13,7.13,7.13,7.13,7.13,7.13,7.13,7.13,7.13,7.13,7.13,7.13,7.13,7.1026,7.0514,6.9357,6.8579,6.8106,6.7104,6.6658,3.1996,3.4426,3.6909,3.7982,4.1594,4.5454,4.7549,4.8345,4.9392,5.2037,5.3114,5.3216,5.1881,5.3575,5.461,5.2863,5.5119,5.7184,5.7453,5.8411,5.9099,5.9099,5.9099,5.9099,5.9099,5.9099,5.9099,5.9099,5.9099,5.9099,5.9099,6.0372,6.109,6.109,6.2405,6.3108,6.3108,6.3108,6.3108,6.3108,6.3108,6.3108,6.3108,6.3108,6.3108,6.3108,6.3108,6.3108,6.3108,6.3108,6.3108,6.3108,6.3108,6.3108,6.3108,6.3108,6.3108,6.3108,6.3108,6.3108,6.3322,6.4648,6.5083,6.5594,6.838,6.8821,6.8687,7.01,7.0088,6.9796,7.0321,7.0482,7.0597,7.1188,7.13,7.13,7.13,7.13,7.13,7.13,7.13,7.13,7.13,7.13,7.13,7.13,7.13,7.13,7.13,7.13,7.13,7.13,7.13,7.13,7.13,7.13,7.13,7.13,7.13,7.13,7.13,7.13,7.13,7.13,7.1003,7.065,7.0186,6.8822,6.8155,6.8081,6.6942,6.661,3.3043,3.3604,3.4943,4.1053,4.3698,4.6132,5.1079,5.2247,5.2486,5.3156,5.3773,5.4389,5.5072,5.5192,5.5431,5.6102,5.6718,5.7334,5.7995,5.8667,5.9099,5.9099,5.9099,5.9099,5.9099,5.9099,5.9099,5.9099,5.9099,5.9129,5.9189,6.0402,6.112,6.118,6.2435,6.3108,6.3108,6.3108,6.3108,6.3108,6.3108,6.3108,6.3108,6.3108,6.3108,6.3108,6.3108,6.3108,6.3108,6.3108,6.3108,6.3108,6.3108,6.3108,6.3108,6.3108,6.3108,6.3108,6.3108,6.3108,6.3322,6.4648,6.5083,6.558,6.8211,6.8181,6.747,6.8821,6.833,6.7686,6.906,6.9385,6.9704,7.1007,7.13,7.13,7.13,7.13,7.13,7.13,7.13,7.13,7.13,7.13,7.13,7.13,7.13,7.13,7.13,7.13,7.13,7.13,7.13,7.13,7.13,7.13,7.13,7.13,7.1368,7.1402,7.1402,7.1402,7.1402,7.1402,7.0664,7.0268,7.0199,6.8779,6.8085,6.7975,6.7321,6.7014,3.4913,3.7956,4.1446,4.3409,4.642,4.9501,5.1708,5.2618,5.3186,5.3862,5.4089,5.4389,5.5072,5.5192,5.5431,5.6102,5.6718,5.7334,5.7995,5.8667,5.9099,5.9099,5.9099,5.9099,5.9099,5.9099,5.9099,5.9099,5.9099,5.9338,5.9861,6.0655,6.1329,6.1882,6.2674,6.3108,6.3108,6.3108,6.3108,0.0,6.3108,6.3108,6.3108,6.3108,6.3108,6.3108,6.3108,6.3108,6.3108,6.3108,6.3108,6.3108,6.3108,6.3108,6.3108,6.3108,6.3108,6.3108,6.3108,6.3108,6.3322,6.4648,6.5083,6.5423,6.7113,6.7419,6.747,6.8821,6.8979,6.9097,7.0493,7.0848,7.0905,7.1233,7.13,7.13,7.13,7.13,7.13,7.13,7.13,7.13,7.13,7.13,7.13,7.13,7.13,7.13,7.13,7.13,7.13,7.13,7.13,7.13,7.13,7.13,7.13,7.13,7.1842,7.2157,7.2157,7.2157,7.2157,7.2157,7.144,7.079,7.0282,6.8813,6.7796,6.7216,6.7077,6.7014,3.5631,3.8404,4.1485,4.5633,4.8465,5.0637,5.2306,5.2947,5.3486,5.4461,5.467,5.479,5.5132,5.5461,5.588,5.6539,5.7154,5.7799,5.8487,5.8876,5.9099,5.9099,5.9099,5.9099,5.9099,5.9099,5.9099,5.9099,5.9099,5.9398,6.007,6.0745,6.1419,6.2061,6.2734,6.3108,6.3108,6.3108,6.3108,6.3108,6.3108,6.3108,6.3108,6.3108,6.3108,6.3108,6.3108,6.3108,6.3108,6.3108,6.3108,6.3108,6.3108,6.3108,6.3108,6.3108,6.3108,6.3108,6.3108,6.3108,6.3322,6.4648,6.4678,6.4526,6.6587,6.6286,6.5665,6.7673,6.7749,6.7698,6.9751,7.0286,7.047,7.1131,7.13,7.13,7.13,7.13,7.13,7.13,7.13,7.13,7.13,7.13,7.13,7.13,7.13,7.13,7.13,7.13,7.13,7.13,7.13,7.13,7.13,7.1605,7.1842,7.1842,7.2529,7.2947,7.2947,7.3274,7.3308,7.2947,7.2183,7.1328,7.0291,6.9171,6.8077,6.7014,6.7014,6.7014,3.5391,3.7635,4.0328,4.763,4.9901,5.0877,5.2767,5.3198,5.3588,5.4922,5.5192,5.5192,5.5192,5.5743,5.6402,5.7017,5.7649,5.8324,5.9009,5.9099,5.9099,5.9099,5.9099,5.9099,5.9099,5.9099,5.9099,5.9099,5.9099,5.9428,6.022,6.0805,6.1449,6.2241,6.2794,6.3108,6.3108,6.3108,6.3108,6.3108,6.3108,6.3108,6.3108,6.3108,6.3108,6.3108,6.3108,6.3108,6.3108,6.3108,6.3108,6.3108,6.3108,6.3108,6.3108,6.3108,6.3108,6.3108,6.3108,6.3108,6.3279,6.4387,6.3984,6.3507,6.5781,6.5073,6.3986,6.6496,6.6548,6.6404,6.8927,6.9573,6.9879,7.103,7.13,7.13,7.13,7.13,7.13,7.13,7.13,7.13,7.13,7.13,7.13,7.13,7.13,7.13,7.13,7.13,7.13,7.13,7.13,7.1368,7.147,7.2056,7.2462,7.2563,7.3285,7.3691,7.3691,7.439,7.4492,7.3894,7.2784,7.1662,7.0483,6.935,6.8192,6.7014,6.7014,6.7014,3.3821,3.8593,4.4446,4.8962,5.0578,5.1427,5.2857,5.3198,5.3588,5.4922,5.5192,5.5192,5.5192,5.5743,5.6402,5.7017,5.7649,5.8324,5.9009,5.9099,5.9099,5.9099,5.9099,5.9099,5.9099,5.9099,5.9099,5.9099,5.9099,5.9668,6.088,6.106,6.1672,6.2928,6.3048,6.3108,6.3108,6.3108,6.3108,6.3108,6.3108,6.3108,6.3108,6.3108,6.3108,6.3108,6.3108,6.3108,6.3108,6.3108,6.3108,6.3108,6.3108,6.3108,6.3108,6.3108,6.3108,6.3108,6.3108,6.3108,6.3137,6.3308,6.3236,6.318,6.3535,6.4209,6.5151,6.6738,6.7887,6.9036,7.0597,7.1018,7.1064,7.1255,7.13,7.13,7.13,7.13,7.13,7.13,7.13,7.13,7.13,7.13,7.13,7.13,7.13,7.13,7.13,7.13,7.13,7.13,7.13,7.1571,7.2191,7.2326,7.2665,7.3319,7.4052,7.4446,7.4446,7.5168,7.5506,7.5405,7.286,7.145,7.1246,6.8603,6.7183,6.7014,6.7014,6.7014,3.5138,4.0187,4.5264,4.922,5.0697,5.1546,5.2887,5.3198,5.3588,5.4922,5.5192,5.5192,5.5192,5.603,5.6778,5.7077,5.7992,5.8756,5.9069,5.9099,5.9099,5.9099,5.9099,5.9099,5.9099,5.9099,5.9099,5.9099,5.9099,5.9684,6.103,6.109,6.1702,6.3063,6.3108,6.3108,6.3108,6.3108,6.3108,6.3108,6.3108,6.3108,6.3108,6.3108,6.3108,6.3108,6.3108,6.3108,6.3108,6.3108,6.3108,6.3108,6.3108,6.3108,6.3108,6.3108,6.3108,6.3108,6.3108,6.3108,6.3108,6.3108,6.3108,6.3108,6.3108,6.4026,6.5396,6.679,6.761,6.8565,7.0745,7.0722,7.0321,7.1098,7.13,7.13,7.13,7.13,7.13,7.13,7.13,7.13,7.13,7.13,7.13,7.13,7.13,7.13,7.13,7.13,7.147,7.1875,7.1909,7.2225,7.2947,7.3409,7.3781,7.4086,7.483,7.5236,7.5236,7.554,7.5709,7.5709,7.3694,7.2242,7.1406,6.9274,6.7804,6.7014,6.7014,6.7014,3.5625,3.9559,4.299,4.7964,4.9591,5.0469,5.2498,5.3079,5.3516,5.47,5.5089,5.5192,5.5192,5.6226,5.7094,5.7094,5.8231,5.9099,5.9099,5.9099,5.9099,5.9099,5.9099,5.9099,5.9099,5.9099,5.9099,5.9099,5.9099,5.9684,6.103,6.109,6.1702,6.3063,6.3108,6.3108,6.3108,6.3108,6.3108,6.3108,6.3108,6.3108,6.3108,6.3108,6.3108,6.3108,6.3108,6.3108,6.3108,6.3108,6.3108,6.3108,6.3108,6.3108,6.3108,6.3108,6.3108,6.3108,6.3108,6.3108,6.3108,6.3108,6.3108,6.3108,6.3108,6.4026,6.5314,6.6378,6.6919,6.7768,7.0146,6.9984,6.9561,7.0984,7.13,7.13,7.13,7.13,7.13,7.13,7.13,7.13,7.13,7.13,7.13,7.13,7.13,7.13,7.13,7.147,7.1774,7.2326,7.2563,7.2981,7.3725,7.4277,7.4683,7.4852,7.5405,7.5709,7.5709,7.5376,7.5161,7.5161,7.3392,7.2116,7.1406,6.9531,6.8073,6.7014,6.7014,6.7014,3.3425,3.4855,3.6853,4.4566,4.654,4.7568,5.1379,5.2737,5.3396,5.4102,5.476,5.5192,5.5192,5.6226,5.7094,5.7094,5.8231,5.9099,5.9099,5.9099,5.9099,5.9099,5.9099,5.9099,5.9099,5.9099,5.9099,5.9099,5.9099,5.9684,6.103,6.109,6.1702,6.3063,6.3108,6.3108,6.3108,6.3108,6.3108,6.3108,6.3108,6.3108,6.3108,6.3108,6.3108,6.3108,6.3108,6.3108,6.3108,6.3108,6.3108,6.3108,6.3108,6.3108,6.3108,6.3108,6.3108,6.3108,6.3108,6.3108,6.3108,6.3108,6.3108,6.3108,6.3108,6.4026,6.5111,6.5179,6.618,6.7521,6.8931,6.9265,6.9561,7.0984,7.13,7.13,7.13,7.13,7.13,7.13,7.13,7.13,7.13,7.13,7.13,7.13,7.13,7.13,7.13,7.1921,7.236,7.2394,7.3015,7.3759,7.448,7.4581,7.4886,7.5608,7.5676,7.5709,7.5709,7.4418,7.3694,7.3701,7.088,7.0086,7.1374,6.8516,6.7061,6.7014,6.7014,6.7014,3.3358,3.4817,3.6417,4.1803,4.4725,4.6779,4.8615,5.1211,5.3396,5.4059,5.473,5.5192,5.5192,5.6226,5.7094,5.7094,5.8231,5.9099,5.9099,5.9099,5.9099,5.9099,5.9099,5.9099,5.9099,5.9099,5.9099,5.9099,5.9099,5.9684,6.103,6.109,6.1702,6.3063,6.3108,6.3108,6.3108,6.3108,6.3108,6.3108,6.3108,6.3108,6.3108,6.3108,6.3108,6.3108,6.3108,6.3108,6.3108,6.3108,6.3108,6.3108,6.3108,6.3108,6.3108,6.3108,6.3108,6.3108,6.3108,6.3108,6.3108,6.3108,6.3108,6.3108,6.3108,6.4026,6.5083,6.5083,6.6114,6.7496,6.8846,6.9205,6.9561,7.0984,7.13,7.13,7.13,7.13,7.13,7.13,7.13,7.13,7.13,7.13,7.13,7.13,7.13,7.147,7.1954,7.2225,7.2766,7.3702,7.4052,7.4492,7.5236,7.5303,7.5439,7.5676,7.5709,7.5303,7.439,7.3866,7.3154,7.2215,7.0227,6.9476,6.9987,6.7983,6.7014,6.7014,6.7014,6.7014,3.207,3.3342,3.4771,3.876,4.1384,4.3698,4.6371,4.9164,5.172,5.3503,5.4401,5.494,5.5162,5.609,5.6868,5.7077,5.8052,5.8846,5.9069,5.9099,5.9099,5.9099,5.9099,5.9099,5.9099,5.9099,5.9099,5.9099,5.9099,0.0,6.103,6.109,6.1702,6.3063,6.3108,6.3108,6.3108,6.3108,6.3108,6.3108,6.3108,6.3108,6.3108,6.3108,6.3108,6.3108,6.3108,6.3108,6.3108,6.3108,6.3108,6.3108,6.3108,6.3108,6.3108,6.3108,6.3108,6.3108,6.3108,6.3108,6.3108,6.3108,6.3108,6.3108,6.3108,6.3704,6.4429,6.4429,6.5436,6.6803,6.8161,6.9217,7.0125,7.1075,7.13,7.13,7.13,7.13,7.13,7.13,7.13,7.13,7.13,7.13,7.13,7.13,7.1503,7.1842,7.2326,7.2834,7.3499,7.4514,7.4818,7.5168,7.5676,7.5709,7.5709,7.5709,7.5709,7.5064,7.3663,7.3115,7.2175,7.0672,6.9216,6.8443,6.8443,6.7472,6.7014,6.7014,6.7014,6.7014,0.0,0.0,0.0,3.5378,3.6434,3.8161,4.4536,4.658,4.8267,5.2199,5.3563,5.4299,5.5059,5.573,5.6372,5.6987,5.7649,5.8338,5.8979,5.9099,5.9099,5.9099,5.9099,5.9099,5.9099,5.9099,5.9099,5.9099,5.9099,5.9684,6.103,6.115,6.1762,6.3063,6.3108,6.3108,6.3108,6.3108,6.3108,6.3108,6.3108,6.3108,6.3108,6.3108,6.3108,6.3108,6.3108,6.3108,6.3108,6.3108,6.3108,6.3108,6.3108,6.3108,6.3108,6.3108,6.3108,6.3108,6.3108,6.3108,6.3108,6.3108,6.3108,6.3108,6.3108,6.3108,6.3108,6.3151,6.4125,6.5504,6.6964,6.9274,7.1244,7.1244,7.1222,7.1188,7.1188,7.1222,7.1255,7.1289,7.13,7.13,7.13,7.13,7.13,7.1334,7.1943,7.2428,7.2462,7.3702,7.4615,7.4649,7.527,7.5709,7.5709,7.5709,7.5709,7.5709,7.5674,7.5015,7.3604,7.2103,7.063,6.9158,6.7713,6.7014,6.7014,6.7014,6.7014,6.7014,6.7014,6.7014,3.0193,0.0,0.0,0.0,0.0,0.0,3.8174,4.1214,4.4726,4.8218,4.9864,5.1582,5.4653,5.5341,5.57,5.6342,5.7393,5.8145,5.8367,5.8786,5.9099,5.9099,5.9099,5.9099,5.9099,5.9099,5.9099,0.0,5.9099,5.9684,6.103,6.2032,6.2704,6.3108,6.3108,6.3108,6.3108,6.3108,6.3108,6.3108,6.3108,6.3108,6.3108,6.3108,6.3108,6.3108,6.3108,6.3108,6.3108,6.3108,6.3108,6.3108,6.3108,6.3108,6.3108,6.3108,6.3108,6.3108,6.3108,6.3108,6.3108,6.3108,6.3108,6.3108,6.3108,6.3108,6.3293,6.4279,6.5558,6.7151,6.9537,6.9961,6.9763,6.9763,6.9036,6.833,6.833,6.9097,7.0066,7.1098,7.13,7.13,7.13,7.13,7.147,7.2022,7.2259,7.28,7.3837,7.4345,7.4784,7.5337,7.5574,7.5709,7.5709,7.5709,7.5709,7.5709,7.4724,7.3515,7.2049,7.0574,6.9114,6.7653,6.7213,6.7014,6.7014,6.7014,6.7014,6.7014,6.7014,6.7014,0.0,0.0,3.1503,3.1503,0.0,0.0,3.7413,4.0266,4.3808,4.8757,5.0612,5.2139,5.4713,5.5192,5.5341,5.573,5.6658,5.75,5.8038,5.8457,5.8786,5.9069,5.9099,5.9099,5.9099,5.9099,5.9099,5.9099,5.9099,5.9684,6.103,6.2106,6.2794,6.3108,6.3108,6.3108,6.3108,6.3108,6.3108,6.3108,6.3108,6.3108,6.3108,6.3108,6.3108,6.3108,6.3108,6.3108,6.3108,6.3108,6.3108,6.3108,6.3108,6.3108,6.3108,6.3108,6.3108,6.3108,6.3108,6.3108,6.3108,6.3108,6.3108,6.3108,6.3108,6.3108,6.3394,6.4717,6.6114,6.7591,6.919,6.8988,6.838,6.838,6.7761,6.719,6.719,6.7799,6.876,7.017,7.0894,7.13,7.13,7.13,7.1537,7.2293,7.2665,7.3274,7.4446,7.4852,7.5236,7.5642,7.5709,7.5709,7.5709,7.5161,7.4822,7.4822,7.3476,7.2028,7.055,6.9645,6.8502,6.7045,6.7014,6.7014,6.7014,6.7014,6.7014,6.7014,6.7014,6.7014,0.0,0.0,0.0,0.0,3.1503,0.0,3.879,4.0664,4.309,4.9845,5.1828,5.2665,5.3683,5.3862,5.3905,5.3862,5.4743,5.6,5.7649,5.7949,5.8248,5.8906,5.9009,5.9009,5.9099,5.9099,5.9099,5.9099,5.9189,5.9727,6.094,6.1702,6.2375,6.2974,6.3063,6.3108,6.3108,6.3108,6.3108,6.3108,6.3108,6.3108,6.3108,6.3108,6.3108,6.3108,6.3108,6.3108,6.3108,6.3108,6.3108,6.3108,6.3108,6.3108,6.3108,6.3108,6.3108,6.3108,6.3108,6.3108,6.3108,6.3108,6.3108,6.3108,6.3108,6.3108,6.3394,6.4717,6.6114,6.719,6.719,6.7074,6.6958,6.6958,6.6842,6.6725,6.6725,6.6842,6.7356,6.8724,7.009,7.1109,7.1267,7.1244,7.1423,7.2177,7.278,7.3486,7.4391,7.5055,7.552,7.5664,7.5709,7.5628,7.5484,7.4319,7.354,7.3386,7.1969,7.0578,6.9259,6.9042,6.8355,6.7045,6.7014,6.7014,6.7014,6.7014,6.7014,6.7014,6.7014,6.7014,0.0,0.0,0.0,0.0,0.0,0.0,3.1846,3.2796,3.4636,3.8204,3.9879,4.1704,4.5014,4.5663,4.5693,4.5642,4.8457,5.2031,5.6,5.6987,5.7543,5.8218,5.8308,5.8517,5.9069,5.9099,5.9099,5.9099,5.9608,6.001,6.028,6.1447,6.2151,6.2285,6.2824,6.3108,6.3108,6.3108,6.3108,6.3108,6.3108,6.3108,6.3108,6.3108,6.3108,6.3108,6.3108,6.3108,6.3108,6.3108,6.3108,6.3108,6.3108,6.3108,6.3108,6.3108,6.3108,6.3108,6.3108,6.3108,6.3108,6.3108,6.3108,6.3108,6.3108,6.3108,6.3394,6.4717,6.6114,6.719,6.719,6.6365,6.5517,6.5517,6.4706,6.3902,6.3902,6.473,6.5915,6.7317,6.8675,6.9973,7.1098,7.0811,7.0641,7.1414,7.1175,7.161,7.3543,7.3906,7.4431,7.5568,7.5709,7.5234,7.4119,7.3757,7.3083,7.1888,7.0466,6.9519,6.9216,6.8043,6.7305,6.7014,6.7014,6.7014,6.7014,6.7014,6.7014,6.7014,6.7014,6.7014,0.0,0.0,0.0,3.1503,0.0,0.0,0.0,3.3552,3.4913,3.8251,3.9679,4.0937,4.2941,4.3349,4.3389,4.3349,4.6691,4.9396,4.9733,5.3755,5.6898,5.7543,5.7919,5.8234,5.8577,5.8906,5.9099,5.9099,5.9398,5.9741,6.007,6.1044,6.1762,6.2091,6.2734,6.3108,6.3108,6.3108,6.3108,6.3108,6.3108,6.3108,6.3108,6.3108,6.3108,6.3108,6.3108,6.3108,6.3108,6.3108,6.3108,6.3108,6.3108,6.3108,6.3108,6.3108,6.3108,6.3108,6.3108,6.3108,6.3108,6.3108,6.3108,6.3108,6.3108,6.3564,6.4097,6.4097,6.507,6.5994,6.5328,6.4637,6.4097,6.4097,6.3592,6.3108,6.3108,6.3635,6.4512,6.5888,6.6686,6.8044,7.0814,7.0699,7.0449,7.1185,7.0727,7.0829,7.2304,7.3134,7.3858,7.4588,7.465,7.4377,7.3668,7.2249,7.11,7.0354,6.8927,6.8087,6.8087,6.7381,6.7014,6.7014,6.7014,6.7014,6.7014,6.7014,6.7014,6.7014,6.7014,6.7014,0.0,0.0,0.0,0.0,0.0,3.148,0.0,0.0,0.0,3.9466,4.0606,4.1027,4.1027,4.1076,4.1025,4.0765,4.4277,4.5793,4.2293,4.8686,5.3935,5.4551,5.6453,5.747,5.6829,5.7261,5.7992,5.9026,5.8278,5.8411,5.9831,6.0535,6.121,6.1882,6.2555,6.2974,6.3108,6.3108,6.3108,6.3108,6.3108,6.3108,6.3108,6.3108,6.3108,6.3108,6.3108,6.3108,6.3108,6.3108,6.3108,6.3108,6.3108,6.3108,6.3108,6.3108,6.3108,6.3108,6.3108,6.3108,6.3108,6.3108,6.3108,6.3108,6.3108,6.386,6.4485,6.3408,6.3888,6.4471,6.3394,6.3108,6.3108,6.3108,6.3108,6.3108,6.3108,6.3108,6.3492,6.4841,6.5083,6.6259,6.9879,7.0003,6.982,7.0406,7.0006,6.9983,7.0858,7.2009,7.2874,7.3147,7.318,7.3063,7.2796,7.056,6.9071,6.8795,6.7668,6.7014,6.7014,6.7014,6.7014,6.7014,6.7014,6.7014,6.7014,6.7014,6.7014,6.7014,6.7014,6.7014,0.0,0.0,0.0,0.0,3.1009,0.0,0.0,0.0,3.2026,3.1891,0.0,3.2856,3.2856,0.0,0.0,3.1344,3.5438,3.8212,3.6618,4.1216,4.5014,4.5683,5.2079,5.5251,5.2252,5.2055,5.4059,5.874,5.5299,5.482,5.8979,5.9847,6.0505,6.118,6.1852,6.2495,6.3093,6.3108,6.3108,6.3108,6.3108,6.3108,6.3108,6.3108,6.3108,6.3108,6.3108,6.3108,6.3108,6.3108,6.3108,6.3108,6.3108,6.3108,6.3108,6.3108,6.3108,6.3108,6.3108,6.3108,6.3108,6.3108,6.3108,6.3108,6.3108,6.3223,6.3293,6.3151,6.3193,6.3293,6.3151,6.3108,6.3108,6.3108,6.3108,6.3108,6.3108,6.3108,6.3492,6.4841,6.5083,6.5665,6.7356,6.7546,6.7478,6.7572,6.7465,6.7877,6.9288,6.9588,7.0213,7.1497,7.1632,7.1114,6.9816,6.9372,6.8634,6.732,6.7076,6.7014,6.7014,6.7014,6.7014,6.7014,6.7014,6.7014,6.7014,6.7014,6.7014,6.7014,6.7014,6.7014,0.0,0.0,0.0,0.0,0.0,0.0,3.1263,0.0,3.095,0.0,0.0,0.0,0.0,0.0,0.0,0.0,3.4464,3.64,3.3581,3.9023,4.3389,4.3698,4.7029,0.0,5.1606,5.1427,5.3401,5.8697,5.482,5.4221,5.886,5.9741,6.0416,6.109,6.1762,6.2435,6.3108,6.3108,6.3108,6.3108,6.3108,6.3108,6.3108,6.3108,6.3108,6.3108,6.3108,6.3108,6.3108,6.3108,6.3108,6.3108,6.3108,6.3108,6.3108,6.3108,6.3108,6.3108,6.3108,6.3108,6.3108,6.3108,6.3108,6.3108,6.3108,6.3108,6.3108,6.3108,6.3108,6.3108,6.3108,6.3108,6.3108,6.3108,6.3108,6.3108,6.3108,6.3108,6.3265,6.3831,6.3944,6.4125,6.4734,6.6077,6.71,6.71,6.7028,6.7229,6.7849,6.8663,6.9447,7.0058,7.0129,6.9873,6.9259,6.8429,6.7668,6.706,6.7014,6.7014,6.7014,6.7014,6.7014,6.7014,6.7014,6.7014,6.7014,6.7014,6.7014,6.7014,6.7014,6.7014,3.4269,0.0,0.0,0.0,0.0,0.0,0.0,0.0,0.0,0.0,0.0,0.0,0.0,0.0,0.0,0.0,0.0,3.4666,3.1428,3.6213,4.0061,4.0061,4.1446,0.0,0.0,4.8435,5.014,5.6692,0.0,5.2875,5.88,5.9548,6.0116,6.0805,6.1493,6.2151,6.2824,6.3003,6.3108,6.3108,6.3108,6.3108,6.3108,6.3108,6.3108,6.3108,6.3108,6.3108,6.3108,6.3108,6.3108,6.3108,6.3108,6.3108,6.3108,6.3108,6.3108,6.3108,6.3108,6.3108,6.3108,6.3108,6.3108,6.3108,6.3108,6.3108,6.3108,6.3108,6.3108,6.3108,6.3108,6.3108,6.3108,6.3108,6.3108,6.3108,6.3108,6.3108,6.3108,6.3108,6.3108,6.3108,6.3108,6.4995,6.6521,6.6521,6.6791,6.7014,6.7014,6.7939,6.859,6.859,6.859,6.859,6.859,6.7623,6.7014,6.7014,6.7014,6.7014,6.7014,6.7014,6.7014,6.7014,6.7014,6.7014,6.7014,6.7014,6.7014,6.7014,6.7014,6.7014,0.0,0.0,0.0,3.2647,0.0,0.0,0.0,0.0,3.2273,0.0,0.0,0.0,0.0,0.0,0.0,0.0,0.0,0.0,0.0,3.0927,3.1892,3.1892,3.5294,3.946,0.0,4.0477,4.1883,0.0,4.8158,0.0,5.862,5.9129,5.9428,6.01,6.0775,6.1449,6.2121,6.2764,6.3108,6.3108,6.3108,6.3108,6.3108,6.3108,6.3108,6.3108,6.3108,6.3108,6.3108,6.3108,6.3108,6.3108,6.3108,6.3108,6.3108,6.3108,6.3108,6.3108,6.3108,6.3108,6.3108,6.3108,6.3108,6.3108,6.3108,6.3108,6.3108,6.3108,6.3108,6.3108,6.3108,6.3108,6.3108,6.3108,6.3108,6.3108,6.3108,6.3108,6.3108,6.3108,6.3108,6.3108,6.3108,6.4185,6.5068,6.5068,6.6161,6.7014,6.7014,6.706,6.7061,6.7061,6.7061,6.7061,6.7061,6.7045,6.7014,6.7014,6.7014,6.7014,6.7014,6.7014,6.7014,6.7014,6.7014,6.7014,6.7014,6.7014,6.7014,6.7014,6.7014,6.7014,0.0,0.0,4.4068,3.7682,0.0,0.0,0.0,0.0,0.0,0.0,0.0,0.0,0.0,0.0,0.0,0.0,0.0,0.0,0.0,3.1241,3.1503,3.1503,3.4995,3.8174,4.0187,0.0,0.0,5.1678,5.075,0.0,0.0,5.9099,5.9398,6.007,6.0731,6.1419,6.2091,6.2764,6.3108,6.3108,6.3108,6.3108,6.3108,6.3108,6.3108,6.3108,6.3108,6.3108,6.3108,6.3108,6.3108,6.3108,6.3108,6.3108,6.3108,6.3108,6.3108,6.3108,6.3108,6.3108,6.3108,6.3108,6.3108,6.3108,6.3108,6.3108,6.3108,6.3108,6.3108,6.3108,6.3108,6.3108,6.3108,6.3108,6.3108,6.3108,6.3108,6.3108,6.3108,6.3108,6.3108,6.3227,6.3632,6.4411,6.4994,6.4994,6.6131,6.7014,6.7014,6.7014,6.7014,6.7014,6.7014,6.7014,6.7014,6.7014,6.7014,6.7014,6.7014,6.7014,6.7014,6.7014,6.7014,6.7014,6.7014,6.7014,6.7014,6.7014,6.7014,6.7014,6.7014,6.7014,4.5793,4.751,0.0,4.2013,4.2093,0.0,3.5682,0.0,0.0,0.0,0.0,0.0,0.0,0.0,0.0,0.0,0.0,0.0,0.0,3.1503,3.1503,3.1503,3.376,3.6011,3.7853,3.8862,4.2183,4.8895,4.9404,5.1528,0.0,0.0,5.9308,5.9741,6.0386,6.1074,6.1732,6.2405,6.2854,6.3108,6.3108,6.3108,6.3108,6.3108,6.3108,6.3108,6.3108,6.3108,6.3108,6.3108,6.3108,6.3108,6.3108,6.3108,6.3108,6.3108,6.3108,6.3108,6.3108,6.3108,6.3108,6.3108,6.3108,6.3108,6.3108,6.3108,6.3287,6.4245,6.3812,6.3303,6.4231,6.3796,6.3108,6.3108,6.3108,6.3108,6.3108,6.3108,6.3108,6.3108,6.3108,6.3273,6.3887,6.456,6.5084,6.5323,6.6295,6.7014,6.7014,6.7014,6.7014,6.7014,6.7014,6.7014,6.7014,6.7014,6.7014,6.7014,6.7014,6.7014,6.7014,6.7014,6.7208,6.7687,6.7238,6.7238,6.7717,6.7238,6.7014,6.7014,6.7014,6.7014]}]]